[[{"header":{"parameterUnit":"m.s-1","parameterCategory":1,"la1":31.0,"la2":29.5877,"lo1":-88.7671,"lo2":-86.6584,"dy":0.0162,"dx":0.0185,"nx":115,"ny":88,"refTime":"2026-04-14T00:00:00:Z","depth":0,"parameterNumber":2,"parameterNumberName":"U-component_of_WINDS"},"data":[0.0,0.0,0.0,0.0,0.0,0.0,0.0,0.0,0.0,0.0,0.0,0.0,0.0,0.0,0.0,0.0,0.0,0.0,0.0,0.0,0.0,0.0,0.0,0.0,0.0,0.0,0.0,0.0,0.0,0.0,0.0,0.0,0.0,0.0,0.0,0.0,0.0,0.0,0.0,0.0,0.0,0.0,0.0,0.0,0.0,0.0,0.0,0.0,0.0,0.0,0.0,0.0,0.0,0.0,0.0,0.0,0.0,0.0,0.0,0.0,0.0,0.0,0.0,0.0,0.0,0.0,0.0,0.0,0.0,0.0,0.0,0.0,0.0,0.0,0.0,0.0,0.0,0.0,0.0,0.0,0.0,0.0,0.0,0.0,0.0,0.0,0.0,0.0,0.0,0.0,0.0,0.0,0.0,0.0,0.0,0.0,0.0,0.0,0.0,0.0,0.0,0.0,0.0,0.0,0.0,0.0,0.0,0.0,0.0,0.0,0.0,0.0,0.0,0.0,0.0,0.0,0.0,0.0,0.0,0.0,0.0,0.0,0.0,0.0,0.0,0.0,0.0,0.0,0.0,0.0,0.0,0.0,0.0,0.0,0.0,0.0,0.0,0.0,0.0,0.0,0.0,0.0,0.0,0.0,0.0,0.0,0.0,0.0,0.0,0.0,0.0,0.0,0.0,0.0,0.0,0.0,0.0,0.0,0.0,0.0,0.0,0.0,0.0,0.0,0.0,0.0,0.0,0.0,0.0,0.0,0.0,0.0,0.0,0.0,0.0,0.0,0.0,0.0,0.0,0.0,0.0,0.0,0.0,0.0,0.0,0.0,0.0,0.0,0.0,0.0,0.0,0.0,0.0,0.0,0.0,0.0,0.0,0.0,0.0,0.0,0.0,0.0,0.0,0.0,0.0,0.0,0.0,0.0,0.0,0.0,0.0,0.0,0.0,0.0,0.0,0.0,0.0,0.0,0.0,0.0,0.0,0.0,0.0,0.0,0.0,0.0,0.0,0.0,0.0,0.0,0.0,0.0,0.0,0.0,0.0,0.0,0.0,0.0,0.0,0.0,0.0,0.0,0.0,0.0,0.0,0.0,0.0,0.0,0.0,0.0,0.0,0.0,0.0,0.0,0.0,0.0,0.0,0.0,0.0,0.0,0.0,0.0,0.0,0.0,0.0,0.0,0.0,0.0,0.0,0.0,0.0,0.0,0.0,0.0,0.0,0.0,0.0,0.0,0.0,0.0,0.0,0.0,0.0,0.0,0.0,0.0,0.0,0.0,0.0,0.0,0.0,0.0,0.0,0.0,0.0,0.0,0.0,0.0,0.0,0.0,0.0,0.0,0.0,0.0,0.0,0.0,0.0,0.0,0.0,0.0,0.0,0.0,0.0,0.0,0.0,0.0,0.0,0.0,0.0,0.0,0.0,0.0,0.0,0.0,0.0,0.0,0.0,0.0,0.0,0.0,0.0,0.0,0.0,0.0,0.0,0.0,0.0,0.0,0.0,0.0,0.0,0.0,0.0,0.0,0.0,0.0,0.0,0.0,0.0,0.0,0.0,0.0,0.0,0.0,0.0,0.0,0.0,0.0,0.0,0.0,0.0,0.0,0.0,0.0,0.0,0.0,0.0,0.0,0.0,0.0,0.0,0.0,0.0,0.0,0.0,0.0,0.0,0.0,0.0,0.0,0.0,0.0,0.0,0.0,0.0,0.0,0.0,0.0,0.0,0.0,0.0,0.0,0.0,0.0,0.0,0.0,0.0,0.0,0.0,0.0,0.0,0.0,0.0,0.0,0.0,0.0,0.0,0.0,0.0,0.0,0.0,0.0,0.0,0.0,0.0,0.0,0.0,0.0,0.0,0.0,0.0,0.0,0.0,0.0,0.0,0.0,0.0,0.0,0.0,0.0,0.0,0.0,0.0,0.0,0.0,0.0,0.0,0.0,0.0,0.0,0.0,0.0,0.0,0.0,0.0,0.0,0.0,0.0,0.0,0.0,0.0,0.0,0.0,0.0,0.0,0.0,0.0,0.0,0.0,0.0,0.0,0.0,0.0,0.0,0.0,0.0,0.0,0.0,0.0,0.0,0.0,0.0,0.0,0.0,0.0,0.0,0.0,0.0,0.0,0.0,0.0,0.0,0.0,0.0,0.0,0.0,0.0,0.0,0.0,0.0,0.0,0.0,0.0,0.0,0.0,0.0,0.0,0.0,0.0,0.0,0.0,0.0,0.0,0.0,0.0,0.0,0.0,0.0,0.0,0.0,0.0,0.0,0.0,0.0,0.0,0.0,0.0,0.0,0.0,0.0,0.0,0.0,0.0,0.0,0.0,0.0,0.0,0.0,0.0,0.0,0.0,0.0,0.0,0.0,0.0,0.0,0.0,0.0,0.0,0.0,0.0,0.0,0.0,0.0,0.0,0.0,0.0,0.0,0.0,0.0,0.0,0.0,0.0,0.0,0.0,0.0,0.0,0.0,0.0,0.0,0.0,0.0,0.0,0.0,0.0,0.0,0.0,0.0,0.0,0.0,0.0,0.0,0.0,0.0,0.0,0.0,0.0,0.0,0.0,0.0,0.0,0.0,0.0,0.0,0.0,0.0,0.0,0.0,0.0,0.0,0.0,0.0,0.0,0.0,0.0,0.0,0.0,0.0,0.0,0.0,0.0,0.0,0.0,0.0,0.0,0.0,0.0,0.0,0.0,0.0,0.0,0.0,0.0,0.0,0.0,0.0,0.0,0.0,0.0,0.0,0.0,0.0,0.0,0.0,0.0,0.0,0.0,0.0,0.0,0.0,0.0,0.0,0.0,0.0,0.0,0.0,0.0,0.0,0.0,0.0,0.0,0.0,0.0,0.0,0.0,0.0,0.0,0.0,0.0,0.0,0.0,0.0,0.0,0.0,0.0,0.0,0.0,0.0,0.0,0.0,0.0,0.0,0.0,0.0,0.0,0.0,0.0,0.0,0.0,0.0,0.0,0.0,0.0,0.0,0.0,0.0,0.0,0.0,0.0,0.0,0.0,0.0,0.0,0.0,0.0,0.0,0.0,0.0,0.0,0.0,0.0,0.0,0.0,0.0,0.0,0.0,0.0,0.0,0.0,0.0,0.0,0.0,0.0,0.0,0.0,0.0,0.0,0.0,0.0,0.0,0.0,0.0,0.0,0.0,0.0,0.0,0.0,0.0,0.0,0.0,0.0,0.0,0.0,0.0,0.0,0.0,0.0,0.0,0.0,0.0,0.0,0.0,0.0,0.0,0.0,0.0,0.0,0.0,0.0,0.0,0.0,0.0,0.0,0.0,0.0,0.0,0.0,0.0,0.0,0.0,0.0,0.0,0.0,0.0,0.0,0.0,0.0,0.0,0.0,0.0,0.0,0.0,0.0,0.0,0.0,0.0,0.0,0.0,0.0,0.0,0.0,0.0,0.0,0.0,0.0,0.0,0.0,0.0,0.0,0.0,0.0,0.0,0.0,0.0,0.0,0.0,0.0,0.0,0.0,0.0,0.0,0.0,0.0,0.0,0.0,0.0,0.0,0.0,0.0,0.0,0.0,0.0,0.0,0.0,0.0,0.0,0.0,0.0,0.0,0.0,0.0,0.0,0.0,0.0,0.0,0.0,0.0,0.0,0.0,0.0,0.0,0.0,0.0,0.0,0.0,0.0,0.0,0.0,0.0,0.0,0.0,0.0,0.0,0.0,0.0,0.0,0.0,0.0,0.0,0.0,0.0,0.0,0.0,0.0,0.0,0.0,0.0,0.0,0.0,0.0,0.0,0.0,0.0,0.0,0.0,0.0,0.0,0.0,0.0,0.0,0.0,0.0,0.0,0.0,0.0,0.0,0.0,0.0,0.0,0.0,0.0,0.0,0.0,0.0,0.0,0.0,0.0,0.0,0.0,0.0,0.0,0.0,0.0,0.0,0.0,0.0,0.0,0.0,0.0,0.0,0.0,0.0,0.0,0.0,0.0,0.0,0.0,0.0,0.0,0.0,0.0,0.0,0.0,0.0,0.0,0.0,0.0,0.0,0.0,0.0,0.0,0.0,0.0,0.0,0.0,0.0,0.0,0.0,0.0,0.0,0.0,0.0,0.0,0.0,0.0,0.0,0.0,0.0,0.0,0.0,0.0,0.0,0.0,0.0,0.0,0.0,0.0,0.0,0.0,0.0,0.0,0.0,0.0,0.0,0.0,0.0,0.0,0.0,0.0,0.0,0.0,0.0,0.0,0.0,0.0,0.0,0.0,0.0,0.0,0.0,0.0,0.0,0.0,0.0,0.0,0.0,-2.431,0.0,0.0,0.0,0.0,0.0,0.0,0.0,0.0,0.0,0.0,0.0,0.0,0.0,0.0,0.0,0.0,0.0,0.0,0.0,0.0,0.0,0.0,0.0,0.0,0.0,0.0,0.0,0.0,0.0,0.0,0.0,0.0,0.0,0.0,0.0,0.0,0.0,0.0,0.0,0.0,0.0,0.0,0.0,0.0,0.0,0.0,0.0,0.0,0.0,0.0,0.0,0.0,0.0,0.0,0.0,0.0,0.0,0.0,0.0,0.0,0.0,0.0,0.0,0.0,0.0,0.0,0.0,0.0,0.0,0.0,0.0,0.0,0.0,0.0,0.0,0.0,0.0,0.0,0.0,0.0,0.0,0.0,0.0,0.0,0.0,0.0,0.0,0.0,0.0,0.0,0.0,0.0,0.0,0.0,0.0,0.0,0.0,0.0,0.0,0.0,0.0,0.0,0.0,0.0,0.0,0.0,0.0,0.0,0.0,0.0,-2.4239,-2.3437,-2.3871,-2.3753,-2.3007,0.0,0.0,0.0,0.0,0.0,0.0,0.0,0.0,0.0,0.0,0.0,0.0,0.0,0.0,0.0,0.0,0.0,0.0,0.0,0.0,0.0,0.0,0.0,0.0,0.0,0.0,0.0,0.0,0.0,0.0,0.0,0.0,0.0,0.0,0.0,0.0,0.0,0.0,0.0,0.0,0.0,0.0,0.0,0.0,0.0,0.0,0.0,0.0,0.0,0.0,0.0,0.0,0.0,0.0,0.0,0.0,0.0,0.0,0.0,0.0,0.0,0.0,0.0,0.0,0.0,0.0,0.0,0.0,0.0,0.0,0.0,0.0,0.0,0.0,0.0,0.0,0.0,0.0,0.0,0.0,0.0,0.0,0.0,0.0,0.0,0.0,0.0,0.0,0.0,0.0,0.0,0.0,0.0,0.0,0.0,0.0,0.0,0.0,0.0,0.0,0.0,0.0,0.0,0.0,0.0,0.0,0.0,0.0,0.0,0.0,0.0,0.0,-2.4985,-2.4911,-2.3827,0.0,0.0,0.0,0.0,0.0,0.0,0.0,0.0,0.0,0.0,0.0,0.0,0.0,0.0,0.0,0.0,0.0,0.0,0.0,0.0,0.0,0.0,0.0,0.0,0.0,0.0,0.0,0.0,0.0,0.0,0.0,0.0,0.0,0.0,0.0,0.0,0.0,0.0,0.0,0.0,0.0,0.0,0.0,0.0,0.0,0.0,0.0,0.0,0.0,0.0,0.0,0.0,0.0,0.0,0.0,0.0,0.0,0.0,0.0,0.0,0.0,0.0,0.0,0.0,0.0,0.0,0.0,0.0,0.0,0.0,0.0,0.0,0.0,0.0,0.0,0.0,0.0,0.0,0.0,0.0,0.0,0.0,0.0,0.0,0.0,0.0,0.0,0.0,0.0,0.0,0.0,0.0,0.0,0.0,0.0,0.0,0.0,0.0,0.0,0.0,0.0,0.0,0.0,0.0,0.0,0.0,0.0,0.0,0.0,0.0,-2.5386,-2.8077,-2.9041,0.0,-2.9521,0.0,0.0,0.0,0.0,0.0,0.0,0.0,0.0,0.0,0.0,0.0,0.0,0.0,0.0,0.0,0.0,0.0,0.0,0.0,0.0,0.0,0.0,0.0,0.0,0.0,0.0,0.0,0.0,0.0,0.0,0.0,0.0,0.0,0.0,0.0,0.0,0.0,0.0,0.0,0.0,0.0,0.0,0.0,0.0,0.0,0.0,0.0,0.0,0.0,0.0,0.0,0.0,0.0,0.0,0.0,0.0,0.0,0.0,0.0,0.0,0.0,0.0,0.0,0.0,0.0,0.0,0.0,0.0,0.0,0.0,0.0,0.0,0.0,0.0,0.0,0.0,0.0,0.0,0.0,0.0,0.0,0.0,0.0,0.0,0.0,0.0,0.0,0.0,0.0,0.0,0.0,0.0,0.0,0.0,0.0,0.0,0.0,0.0,0.0,0.0,0.0,0.0,0.0,0.0,0.0,0.0,0.0,0.0,0.0,0.0,-2.784,-2.8612,-2.8632,-2.8831,0.0,0.0,0.0,0.0,0.0,0.0,0.0,0.0,0.0,0.0,0.0,0.0,0.0,0.0,0.0,0.0,0.0,0.0,0.0,0.0,0.0,0.0,0.0,0.0,0.0,0.0,0.0,0.0,0.0,0.0,0.0,0.0,0.0,0.0,0.0,0.0,0.0,0.0,0.0,0.0,0.0,0.0,0.0,0.0,0.0,0.0,0.0,0.0,0.0,0.0,0.0,0.0,0.0,0.0,0.0,0.0,0.0,0.0,0.0,0.0,0.0,0.0,0.0,0.0,0.0,0.0,0.0,0.0,0.0,0.0,0.0,0.0,0.0,0.0,0.0,0.0,0.0,0.0,0.0,0.0,0.0,0.0,0.0,0.0,0.0,0.0,0.0,0.0,0.0,0.0,0.0,0.0,0.0,0.0,0.0,0.0,0.0,0.0,0.0,0.0,0.0,0.0,0.0,0.0,0.0,0.0,0.0,0.0,0.0,0.0,-2.8198,-2.9826,-3.0517,-3.0153,-2.9598,-2.8812,0.0,0.0,0.0,0.0,0.0,0.0,0.0,0.0,0.0,0.0,0.0,0.0,0.0,0.0,0.0,0.0,0.0,0.0,0.0,0.0,0.0,0.0,0.0,0.0,0.0,0.0,0.0,0.0,0.0,0.0,0.0,0.0,0.0,0.0,0.0,0.0,0.0,0.0,0.0,0.0,0.0,0.0,0.0,0.0,0.0,0.0,0.0,0.0,0.0,0.0,0.0,0.0,0.0,0.0,0.0,0.0,0.0,0.0,0.0,0.0,0.0,0.0,0.0,0.0,0.0,0.0,0.0,0.0,0.0,0.0,0.0,0.0,0.0,0.0,0.0,0.0,0.0,0.0,0.0,0.0,0.0,0.0,0.0,0.0,0.0,0.0,0.0,0.0,0.0,0.0,0.0,0.0,0.0,0.0,0.0,0.0,0.0,0.0,0.0,0.0,0.0,0.0,0.0,0.0,0.0,0.0,0.0,0.0,0.0,-3.039,-3.087,-3.5402,-3.5584,-3.3478,0.0,0.0,0.0,0.0,0.0,0.0,0.0,0.0,0.0,0.0,0.0,0.0,0.0,0.0,0.0,0.0,0.0,0.0,0.0,0.0,0.0,0.0,0.0,0.0,0.0,0.0,0.0,0.0,0.0,0.0,0.0,0.0,0.0,0.0,0.0,0.0,0.0,0.0,0.0,0.0,0.0,0.0,0.0,0.0,0.0,0.0,0.0,0.0,0.0,0.0,0.0,0.0,0.0,0.0,0.0,0.0,0.0,0.0,0.0,0.0,0.0,0.0,0.0,0.0,0.0,0.0,0.0,0.0,0.0,0.0,0.0,0.0,0.0,0.0,0.0,0.0,0.0,0.0,0.0,0.0,0.0,0.0,0.0,0.0,0.0,0.0,0.0,0.0,0.0,0.0,0.0,0.0,0.0,0.0,0.0,0.0,0.0,0.0,0.0,0.0,0.0,0.0,0.0,0.0,0.0,0.0,0.0,0.0,0.0,-2.5227,-2.7519,-3.2503,-3.992,-3.4674,-3.1798,0.0,0.0,0.0,0.0,0.0,0.0,0.0,0.0,0.0,0.0,0.0,0.0,0.0,0.0,0.0,0.0,0.0,0.0,0.0,0.0,0.0,0.0,0.0,0.0,0.0,0.0,0.0,0.0,0.0,0.0,0.0,0.0,0.0,0.0,0.0,0.0,0.0,0.0,0.0,0.0,0.0,0.0,0.0,0.0,0.0,0.0,0.0,0.0,0.0,0.0,0.0,0.0,0.0,0.0,0.0,0.0,0.0,0.0,0.0,0.0,0.0,0.0,0.0,0.0,0.0,0.0,0.0,0.0,0.0,0.0,0.0,0.0,0.0,0.0,0.0,0.0,0.0,0.0,0.0,0.0,0.0,0.0,0.0,0.0,0.0,0.0,0.0,0.0,0.0,0.0,0.0,0.0,0.0,0.0,0.0,0.0,0.0,0.0,0.0,0.0,0.0,0.0,0.0,0.0,0.0,0.0,0.0,0.0,0.0,-2.4829,0.0,-3.582,0.0,-3.4545,-3.0952,0.0,0.0,0.0,0.0,0.0,0.0,0.0,0.0,0.0,0.0,0.0,0.0,0.0,0.0,0.0,0.0,0.0,0.0,0.0,0.0,0.0,0.0,0.0,0.0,0.0,0.0,0.0,0.0,0.0,0.0,0.0,0.0,0.0,0.0,0.0,0.0,0.0,0.0,0.0,0.0,0.0,0.0,0.0,0.0,0.0,0.0,0.0,0.0,0.0,0.0,0.0,0.0,0.0,0.0,0.0,0.0,0.0,0.0,0.0,0.0,0.0,0.0,0.0,0.0,0.0,0.0,0.0,0.0,0.0,0.0,0.0,0.0,0.0,0.0,0.0,0.0,0.0,0.0,0.0,0.0,0.0,0.0,0.0,0.0,0.0,0.0,0.0,0.0,0.0,0.0,0.0,0.0,0.0,0.0,0.0,0.0,0.0,0.0,0.0,0.0,0.0,0.0,0.0,0.0,0.0,0.0,0.0,0.0,-2.4001,-3.394,-3.9589,-4.0257,-3.626,-3.5732,-3.1318,0.0,0.0,0.0,0.0,0.0,0.0,0.0,0.0,0.0,0.0,0.0,0.0,0.0,0.0,0.0,0.0,0.0,0.0,0.0,0.0,0.0,0.0,0.0,0.0,0.0,0.0,0.0,0.0,0.0,0.0,0.0,0.0,0.0,0.0,0.0,0.0,0.0,0.0,0.0,0.0,0.0,0.0,0.0,0.0,0.0,0.0,0.0,0.0,0.0,0.0,0.0,0.0,0.0,0.0,0.0,0.0,0.0,0.0,0.0,0.0,0.0,0.0,0.0,0.0,0.0,0.0,0.0,0.0,0.0,0.0,0.0,0.0,0.0,0.0,0.0,0.0,0.0,0.0,0.0,0.0,0.0,0.0,0.0,0.0,0.0,0.0,0.0,0.0,0.0,0.0,0.0,0.0,0.0,0.0,0.0,0.0,0.0,0.0,0.0,0.0,0.0,0.0,0.0,0.0,0.0,0.0,0.0,0.0,0.0,-3.1499,-3.4892,-3.7965,-4.0302,-3.4367,-3.0766,0.0,0.0,0.0,0.0,0.0,0.0,0.0,0.0,0.0,0.0,0.0,0.0,0.0,0.0,0.0,0.0,0.0,0.0,0.0,0.0,0.0,0.0,0.0,0.0,0.0,0.0,0.0,0.0,0.0,0.0,0.0,0.0,0.0,0.0,0.0,0.0,0.0,0.0,0.0,0.0,0.0,0.0,0.0,0.0,0.0,0.0,0.0,0.0,0.0,0.0,0.0,0.0,0.0,0.0,0.0,0.0,0.0,0.0,0.0,0.0,0.0,0.0,0.0,0.0,0.0,0.0,0.0,0.0,0.0,0.0,0.0,0.0,0.0,0.0,0.0,0.0,0.0,0.0,0.0,0.0,0.0,0.0,0.0,0.0,0.0,0.0,0.0,0.0,0.0,0.0,0.0,0.0,0.0,0.0,0.0,0.0,0.0,0.0,0.0,0.0,0.0,0.0,0.0,0.0,0.0,0.0,0.0,0.0,0.0,-3.4169,-3.6956,-3.9539,-4.187,-3.4577,-3.0555,-3.0358,0.0,0.0,0.0,0.0,0.0,0.0,0.0,0.0,0.0,0.0,0.0,0.0,0.0,0.0,0.0,0.0,0.0,0.0,0.0,0.0,0.0,0.0,0.0,0.0,0.0,0.0,0.0,0.0,0.0,0.0,0.0,0.0,0.0,0.0,0.0,0.0,0.0,0.0,0.0,0.0,0.0,0.0,0.0,0.0,0.0,0.0,0.0,0.0,0.0,0.0,0.0,0.0,0.0,0.0,0.0,0.0,0.0,0.0,0.0,0.0,0.0,0.0,0.0,0.0,0.0,0.0,0.0,0.0,0.0,0.0,0.0,0.0,0.0,0.0,0.0,0.0,0.0,0.0,0.0,0.0,0.0,0.0,0.0,0.0,0.0,0.0,0.0,0.0,0.0,0.0,0.0,0.0,0.0,0.0,0.0,0.0,0.0,0.0,0.0,0.0,0.0,0.0,0.0,0.0,0.0,0.0,0.0,0.0,-4.0703,-4.4407,-4.4453,-4.082,-3.6127,-3.0858,0.0,0.0,0.0,0.0,0.0,0.0,0.0,0.0,0.0,0.0,0.0,0.0,0.0,0.0,0.0,0.0,0.0,0.0,0.0,0.0,0.0,0.0,0.0,0.0,0.0,0.0,0.0,0.0,0.0,0.0,0.0,0.0,0.0,0.0,0.0,0.0,0.0,0.0,0.0,0.0,0.0,0.0,0.0,0.0,0.0,0.0,0.0,0.0,0.0,0.0,0.0,0.0,0.0,0.0,0.0,0.0,0.0,0.0,0.0,0.0,0.0,0.0,0.0,0.0,0.0,0.0,0.0,0.0,0.0,0.0,0.0,0.0,0.0,0.0,0.0,0.0,0.0,0.0,0.0,0.0,0.0,0.0,0.0,0.0,0.0,0.0,0.0,0.0,0.0,0.0,0.0,0.0,0.0,0.0,0.0,0.0,0.0,0.0,0.0,0.0,0.0,0.0,0.0,0.0,0.0,0.0,0.0,0.0,0.0,-4.2551,-4.465,-4.515,-4.3907,-3.7155,-3.2138,0.0,0.0,0.0,0.0,0.0,0.0,0.0,0.0,0.0,0.0,0.0,0.0,0.0,0.0,0.0,0.0,0.0,0.0,0.0,0.0,0.0,0.0,0.0,0.0,0.0,0.0,0.0,0.0,0.0,0.0,0.0,0.0,0.0,0.0,0.0,0.0,0.0,0.0,0.0,0.0,0.0,0.0,0.0,0.0,0.0,0.0,0.0,0.0,0.0,0.0,0.0,0.0,0.0,0.0,0.0,0.0,0.0,0.0,0.0,0.0,0.0,0.0,0.0,0.0,0.0,0.0,0.0,0.0,0.0,0.0,0.0,0.0,0.0,0.0,0.0,0.0,0.0,0.0,0.0,0.0,0.0,0.0,0.0,0.0,0.0,0.0,0.0,0.0,0.0,0.0,0.0,0.0,0.0,0.0,0.0,0.0,0.0,0.0,0.0,0.0,0.0,0.0,0.0,0.0,0.0,0.0,0.0,0.0,-3.854,-4.3152,-4.4389,-4.4592,-4.376,-3.8294,-3.3693,0.0,0.0,0.0,0.0,0.0,0.0,0.0,0.0,0.0,0.0,0.0,0.0,0.0,0.0,0.0,0.0,0.0,0.0,0.0,0.0,0.0,0.0,0.0,0.0,0.0,0.0,0.0,0.0,0.0,0.0,0.0,0.0,0.0,0.0,0.0,0.0,0.0,0.0,0.0,0.0,0.0,0.0,0.0,0.0,0.0,0.0,0.0,0.0,0.0,0.0,0.0,0.0,0.0,0.0,0.0,0.0,0.0,0.0,0.0,0.0,0.0,0.0,0.0,0.0,0.0,0.0,0.0,0.0,0.0,0.0,0.0,0.0,0.0,0.0,0.0,0.0,0.0,0.0,0.0,0.0,0.0,0.0,0.0,0.0,0.0,0.0,0.0,0.0,0.0,0.0,0.0,0.0,0.0,0.0,0.0,0.0,0.0,0.0,0.0,0.0,0.0,0.0,0.0,0.0,0.0,0.0,0.0,0.0,-3.9107,-4.2681,-4.3864,-4.3514,-4.163,-3.8986,-3.4948,0.0,0.0,0.0,0.0,0.0,0.0,0.0,0.0,0.0,0.0,0.0,0.0,0.0,0.0,0.0,0.0,0.0,0.0,0.0,0.0,0.0,0.0,0.0,0.0,0.0,0.0,0.0,0.0,0.0,0.0,0.0,0.0,0.0,0.0,0.0,0.0,0.0,0.0,0.0,0.0,0.0,0.0,0.0,0.0,0.0,0.0,0.0,0.0,0.0,0.0,0.0,0.0,0.0,0.0,0.0,0.0,0.0,0.0,0.0,0.0,0.0,0.0,0.0,0.0,0.0,0.0,0.0,0.0,0.0,0.0,0.0,0.0,0.0,0.0,0.0,0.0,0.0,0.0,0.0,0.0,0.0,0.0,0.0,0.0,0.0,0.0,0.0,0.0,0.0,0.0,0.0,0.0,0.0,0.0,0.0,0.0,0.0,0.0,0.0,0.0,0.0,0.0,0.0,0.0,0.0,0.0,0.0,0.0,-4.0113,-4.1782,-4.3617,-4.3707,-4.196,-3.7146,-3.29,0.0,0.0,0.0,0.0,0.0,0.0,0.0,0.0,0.0,0.0,0.0,0.0,0.0,0.0,0.0,0.0,0.0,0.0,0.0,0.0,0.0,0.0,0.0,0.0,0.0,0.0,0.0,0.0,0.0,0.0,0.0,0.0,0.0,0.0,0.0,0.0,0.0,0.0,0.0,0.0,0.0,0.0,0.0,0.0,0.0,0.0,0.0,0.0,-2.0449,0.0,0.0,0.0,0.0,0.0,0.0,0.0,0.0,0.0,0.0,0.0,0.0,0.0,0.0,0.0,0.0,0.0,0.0,0.0,0.0,0.0,0.0,0.0,0.0,0.0,0.0,0.0,0.0,0.0,0.0,0.0,0.0,0.0,0.0,0.0,0.0,0.0,0.0,0.0,0.0,0.0,0.0,0.0,0.0,0.0,0.0,0.0,0.0,0.0,0.0,0.0,0.0,0.0,0.0,0.0,0.0,0.0,0.0,0.0,-4.0137,-4.1243,-4.2597,-4.262,-4.1087,-3.6752,-3.3128,0.0,0.0,0.0,0.0,0.0,0.0,0.0,0.0,0.0,0.0,0.0,0.0,0.0,0.0,0.0,0.0,0.0,0.0,0.0,0.0,0.0,0.0,0.0,0.0,0.0,0.0,0.0,0.0,0.0,0.0,0.0,0.0,0.0,0.0,0.0,0.0,0.0,0.0,0.0,0.0,0.0,0.0,0.0,0.0,0.0,0.0,0.0,0.0,0.0,0.0,0.0,0.0,0.0,0.0,0.0,0.0,0.0,0.0,0.0,0.0,0.0,0.0,0.0,0.0,0.0,0.0,0.0,0.0,0.0,0.0,0.0,0.0,0.0,0.0,0.0,0.0,0.0,0.0,0.0,0.0,0.0,0.0,0.0,0.0,0.0,0.0,0.0,0.0,0.0,0.0,0.0,0.0,0.0,0.0,0.0,0.0,0.0,0.0,0.0,0.0,0.0,0.0,0.0,0.0,0.0,0.0,0.0,-3.6501,-3.939,-4.0767,-4.1317,-4.1069,-3.9968,-3.686,-3.3861,-3.1189,0.0,0.0,0.0,0.0,0.0,0.0,0.0,0.0,0.0,0.0,0.0,0.0,0.0,0.0,0.0,0.0,0.0,0.0,0.0,0.0,0.0,0.0,0.0,0.0,0.0,0.0,0.0,0.0,0.0,0.0,0.0,0.0,0.0,0.0,0.0,0.0,0.0,0.0,-2.2269,-2.3531,0.0,0.0,0.0,0.0,0.0,0.0,0.0,0.0,-1.9623,0.0,0.0,0.0,0.0,0.0,0.0,0.0,0.0,0.0,0.0,0.0,0.0,0.0,0.0,0.0,0.0,0.0,0.0,0.0,0.0,0.0,0.0,0.0,0.0,0.0,0.0,0.0,0.0,0.0,0.0,0.0,0.0,0.0,0.0,0.0,0.0,0.0,0.0,0.0,0.0,0.0,0.0,0.0,0.0,0.0,0.0,0.0,0.0,0.0,0.0,0.0,0.0,0.0,0.0,0.0,0.0,-3.4767,-3.5849,-3.7581,-4.002,-4.0407,-3.9987,-3.8535,-3.6206,-3.2928,-2.8702,0.0,0.0,0.0,0.0,0.0,0.0,0.0,0.0,0.0,0.0,0.0,0.0,0.0,0.0,0.0,0.0,0.0,0.0,0.0,0.0,0.0,0.0,0.0,0.0,0.0,0.0,0.0,0.0,0.0,0.0,0.0,0.0,0.0,0.0,0.0,0.0,0.0,0.0,0.0,-2.6185,-2.7007,0.0,0.0,0.0,0.0,0.0,0.0,0.0,0.0,-1.819,0.0,0.0,0.0,0.0,0.0,0.0,0.0,0.0,0.0,0.0,0.0,0.0,0.0,0.0,0.0,0.0,0.0,0.0,0.0,0.0,0.0,0.0,0.0,0.0,0.0,0.0,0.0,0.0,0.0,0.0,0.0,0.0,0.0,0.0,0.0,0.0,0.0,0.0,0.0,0.0,0.0,0.0,0.0,0.0,0.0,0.0,0.0,0.0,0.0,0.0,0.0,0.0,0.0,0.0,0.0,-3.3091,-3.609,-3.8169,-3.9473,-3.9276,-3.8784,-3.7939,-3.4314,-3.0805,0.0,0.0,0.0,0.0,0.0,0.0,0.0,0.0,0.0,0.0,0.0,0.0,0.0,0.0,0.0,0.0,0.0,0.0,0.0,0.0,0.0,0.0,0.0,0.0,0.0,0.0,0.0,0.0,0.0,0.0,0.0,0.0,0.0,0.0,0.0,0.0,0.0,0.0,0.0,0.0,-2.6777,-2.7272,-2.7238,0.0,0.0,0.0,0.0,0.0,0.0,-1.9861,-1.8204,0.0,0.0,0.0,0.0,0.0,0.0,0.0,0.0,0.0,0.0,0.0,0.0,0.0,0.0,0.0,0.0,0.0,0.0,0.0,0.0,0.0,0.0,0.0,0.0,0.0,0.0,0.0,0.0,0.0,0.0,0.0,0.0,0.0,0.0,0.0,0.0,0.0,0.0,0.0,0.0,0.0,0.0,0.0,0.0,0.0,0.0,0.0,0.0,0.0,0.0,0.0,0.0,0.0,0.0,0.0,-3.1206,-3.5566,-3.8196,-3.8848,-3.8122,-3.7496,-3.7004,-3.2642,-2.9016,0.0,0.0,0.0,0.0,0.0,0.0,0.0,0.0,0.0,0.0,0.0,0.0,0.0,0.0,0.0,0.0,0.0,0.0,0.0,0.0,0.0,0.0,0.0,0.0,0.0,0.0,0.0,0.0,0.0,0.0,0.0,0.0,0.0,0.0,0.0,0.0,0.0,0.0,0.0,0.0,0.0,-2.7345,-2.7808,-2.6776,0.0,0.0,0.0,0.0,-2.2174,-2.0504,0.0,0.0,0.0,0.0,0.0,0.0,0.0,0.0,0.0,0.0,0.0,0.0,0.0,0.0,0.0,0.0,0.0,0.0,0.0,0.0,0.0,0.0,0.0,0.0,0.0,0.0,0.0,0.0,0.0,0.0,0.0,0.0,0.0,0.0,0.0,0.0,0.0,0.0,0.0,0.0,0.0,0.0,0.0,0.0,0.0,0.0,0.0,0.0,0.0,0.0,0.0,0.0,0.0,0.0,0.0,0.0,-3.067,-3.2679,-3.5072,-3.7833,-3.721,-3.6055,-3.4541,-3.2499,-2.8752,0.0,0.0,0.0,0.0,0.0,0.0,0.0,0.0,0.0,0.0,0.0,0.0,0.0,0.0,0.0,0.0,0.0,0.0,0.0,0.0,0.0,0.0,0.0,0.0,0.0,0.0,0.0,0.0,0.0,0.0,0.0,0.0,0.0,0.0,0.0,0.0,0.0,0.0,0.0,0.0,0.0,-2.8599,-2.7993,-2.7734,-2.7113,0.0,0.0,-2.3833,-2.2985,-2.1399,0.0,0.0,0.0,0.0,0.0,0.0,0.0,0.0,0.0,0.0,0.0,0.0,0.0,0.0,0.0,0.0,0.0,0.0,0.0,0.0,0.0,0.0,0.0,0.0,0.0,0.0,0.0,0.0,0.0,0.0,0.0,0.0,0.0,0.0,0.0,0.0,0.0,0.0,0.0,0.0,0.0,0.0,0.0,0.0,0.0,0.0,0.0,0.0,0.0,0.0,0.0,0.0,0.0,0.0,0.0,-2.5776,-3.0018,-3.3258,-3.5535,-3.6838,-3.5543,-3.4254,-3.3094,-2.9608,-2.5914,0.0,0.0,0.0,0.0,0.0,0.0,0.0,0.0,0.0,0.0,0.0,0.0,0.0,0.0,0.0,0.0,0.0,0.0,0.0,0.0,0.0,0.0,0.0,0.0,0.0,0.0,0.0,0.0,0.0,0.0,0.0,0.0,0.0,0.0,0.0,0.0,0.0,0.0,0.0,0.0,0.0,0.0,-2.9278,-2.856,0.0,0.0,0.0,-2.4519,-2.3215,0.0,0.0,0.0,0.0,0.0,0.0,0.0,0.0,0.0,0.0,0.0,0.0,0.0,0.0,0.0,0.0,0.0,0.0,0.0,0.0,0.0,0.0,0.0,0.0,0.0,0.0,0.0,0.0,0.0,0.0,0.0,0.0,0.0,0.0,0.0,0.0,0.0,0.0,0.0,0.0,0.0,0.0,0.0,0.0,0.0,0.0,0.0,0.0,0.0,0.0,0.0,0.0,0.0,0.0,0.0,0.0,0.0,-2.9262,-3.3643,-3.584,-3.5667,-3.42,-3.2808,-3.1604,-2.7579,0.0,0.0,0.0,0.0,0.0,0.0,0.0,0.0,0.0,0.0,0.0,0.0,0.0,0.0,0.0,0.0,0.0,0.0,0.0,0.0,0.0,0.0,0.0,0.0,0.0,0.0,0.0,-1.2013,0.0,0.0,0.0,0.0,0.0,0.0,0.0,0.0,0.0,0.0,0.0,0.0,0.0,0.0,-2.9005,-3.0249,-2.9399,-2.8439,0.0,0.0,-2.5179,-2.329,-2.1861,-2.0054,0.0,0.0,0.0,0.0,0.0,0.0,0.0,0.0,0.0,0.0,0.0,0.0,0.0,0.0,0.0,0.0,0.0,0.0,0.0,0.0,0.0,0.0,0.0,0.0,0.0,0.0,0.0,0.0,0.0,0.0,0.0,0.0,0.0,0.0,0.0,0.0,0.0,0.0,0.0,0.0,0.0,0.0,0.0,0.0,0.0,0.0,0.0,0.0,0.0,0.0,0.0,0.0,0.0,0.0,0.0,-2.837,-3.2434,-3.4454,-3.4321,-3.3724,-3.2258,-2.9842,-2.8116,-2.464,0.0,0.0,0.0,0.0,0.0,0.0,0.0,0.0,0.0,0.0,0.0,0.0,0.0,0.0,0.0,0.0,0.0,0.0,0.0,0.0,0.0,0.0,0.0,0.0,0.0,0.0,0.0,0.0,0.0,0.0,0.0,0.0,0.0,0.0,0.0,0.0,0.0,0.0,0.0,0.0,0.0,-3.0018,-3.0206,-3.0241,-2.9677,0.0,0.0,-2.5858,-2.3388,-2.2928,-2.1864,-1.9085,0.0,0.0,0.0,0.0,0.0,0.0,0.0,0.0,0.0,0.0,0.0,0.0,0.0,0.0,0.0,0.0,0.0,0.0,0.0,0.0,0.0,0.0,0.0,0.0,0.0,0.0,0.0,0.0,0.0,0.0,0.0,0.0,0.0,0.0,0.0,0.0,0.0,0.0,0.0,0.0,0.0,0.0,0.0,0.0,0.0,0.0,0.0,0.0,0.0,0.0,0.0,0.0,0.0,-2.387,-2.8021,-3.1274,-3.3152,-3.3413,-3.2097,-3.0681,-2.9199,-2.7366,-2.4255,0.0,0.0,0.0,0.0,0.0,0.0,0.0,0.0,0.0,0.0,0.0,0.0,0.0,0.0,0.0,0.0,0.0,0.0,0.0,0.0,0.0,0.0,0.0,0.0,0.0,0.0,0.0,0.0,-1.3575,-1.3759,-1.4766,0.0,0.0,0.0,0.0,0.0,0.0,0.0,0.0,0.0,0.0,-2.9677,-3.0775,-3.0152,0.0,0.0,-2.8049,-2.6847,-2.4926,-2.4133,-2.2854,-2.0243,-1.947,0.0,0.0,0.0,0.0,0.0,0.0,0.0,0.0,0.0,0.0,0.0,0.0,0.0,0.0,0.0,0.0,0.0,0.0,0.0,0.0,0.0,0.0,0.0,0.0,0.0,0.0,0.0,0.0,0.0,0.0,0.0,0.0,0.0,0.0,0.0,0.0,0.0,0.0,0.0,0.0,0.0,0.0,0.0,0.0,0.0,0.0,0.0,0.0,0.0,0.0,0.0,0.0,-2.3254,-2.7205,-3.0416,-3.2079,-3.2261,-3.0953,-2.9692,-2.8542,-2.6717,-2.4121,0.0,0.0,0.0,0.0,0.0,0.0,0.0,0.0,0.0,0.0,0.0,0.0,0.0,0.0,0.0,0.0,0.0,0.0,0.0,0.0,0.0,0.0,0.0,0.0,0.0,0.0,0.0,0.0,-1.4831,-1.5167,-1.6254,0.0,0.0,0.0,0.0,0.0,0.0,0.0,0.0,0.0,0.0,-2.9839,-3.1096,-3.0424,-2.9636,-2.9198,-2.8728,-2.7732,-2.5851,-2.5251,-2.4224,-2.1926,0.0,0.0,0.0,0.0,0.0,0.0,0.0,0.0,0.0,0.0,0.0,0.0,0.0,0.0,0.0,0.0,0.0,0.0,0.0,0.0,0.0,0.0,0.0,0.0,0.0,0.0,0.0,-1.3243,0.0,0.0,-1.0635,0.0,0.0,0.0,0.0,0.0,0.0,0.0,0.0,0.0,0.0,0.0,0.0,0.0,0.0,0.0,0.0,0.0,0.0,0.0,0.0,0.0,0.0,-2.2697,-2.5752,-2.9754,-3.1404,-3.0704,-3.0612,-2.9644,-2.7795,-2.6541,-2.441,-2.1223,0.0,0.0,0.0,0.0,0.0,0.0,0.0,0.0,0.0,0.0,0.0,0.0,0.0,0.0,0.0,0.0,0.0,0.0,0.0,0.0,0.0,0.0,0.0,0.0,0.0,0.0,-1.4951,-1.5049,-1.5506,0.0,0.0,0.0,0.0,0.0,0.0,0.0,0.0,0.0,0.0,-3.0692,-3.0761,-3.1069,-3.1248,-3.0689,-2.9187,-2.9173,-2.8456,-2.589,-2.6259,-2.6218,0.0,0.0,0.0,0.0,0.0,0.0,0.0,0.0,0.0,0.0,0.0,0.0,0.0,0.0,0.0,0.0,0.0,0.0,0.0,0.0,0.0,0.0,0.0,0.0,0.0,0.0,0.0,-1.8408,-1.6724,0.0,0.0,0.0,0.0,0.0,0.0,0.0,0.0,0.0,0.0,0.0,-2.3959,-2.4364,0.0,0.0,0.0,0.0,0.0,0.0,0.0,0.0,0.0,0.0,0.0,0.0,-2.2834,-2.5781,-2.9088,-3.0566,-3.0067,-2.9545,-2.8908,-2.8115,-2.6892,-2.4412,-2.058,0.0,0.0,0.0,0.0,0.0,0.0,0.0,0.0,0.0,0.0,0.0,0.0,0.0,0.0,0.0,0.0,0.0,0.0,0.0,0.0,0.0,0.0,0.0,0.0,0.0,-1.4863,0.0,0.0,0.0,0.0,0.0,0.0,0.0,0.0,0.0,0.0,0.0,-2.9435,-3.1795,-3.0804,-3.0248,-3.1454,-3.09,-3.0388,0.0,0.0,0.0,0.0,0.0,0.0,0.0,0.0,0.0,0.0,0.0,0.0,0.0,0.0,-2.2129,-1.9015,-1.8254,-1.8527,-1.9988,0.0,0.0,0.0,0.0,0.0,0.0,0.0,0.0,0.0,0.0,0.0,0.0,0.0,0.0,-2.2374,0.0,-2.0264,0.0,0.0,0.0,0.0,0.0,0.0,0.0,0.0,-2.6502,-2.762,-2.7216,-2.7278,-2.6016,0.0,-2.2552,-1.9556,0.0,0.0,0.0,0.0,0.0,0.0,0.0,0.0,-2.2894,-2.5356,-2.8266,-2.9394,-2.8627,-2.8174,-2.7723,-2.7285,-2.6272,-2.4059,-2.0576,-1.897,-1.736,0.0,0.0,0.0,0.0,0.0,0.0,0.0,0.0,0.0,0.0,0.0,0.0,0.0,0.0,0.0,0.0,0.0,0.0,0.0,0.0,0.0,0.0,0.0,-1.601,0.0,0.0,0.0,0.0,0.0,0.0,0.0,0.0,0.0,-2.9812,-2.9819,-3.0493,-3.2232,-3.1066,-3.0365,-3.118,0.0,0.0,0.0,0.0,0.0,0.0,0.0,-2.8691,-2.7817,-2.7813,-2.7806,-2.7355,-2.7013,-2.663,-2.6315,0.0,0.0,-2.1694,-2.0853,-2.1186,-2.2911,-2.3671,-2.4412,-2.5678,-2.6933,-2.8084,0.0,0.0,0.0,0.0,0.0,0.0,0.0,0.0,-2.7109,-2.6089,0.0,-2.3958,0.0,0.0,0.0,0.0,0.0,-2.4014,0.0,0.0,-2.9992,-3.0804,-2.9504,-2.8595,-2.767,-2.6696,-2.6424,-2.469,-2.1442,-1.691,0.0,0.0,0.0,0.0,0.0,0.0,-2.2887,-2.4622,-2.7325,-2.7991,-2.6492,-2.657,-2.6245,-2.5409,-2.4815,-2.3443,-2.1268,-2.0807,-1.9621,-1.7393,-1.5141,0.0,0.0,0.0,0.0,0.0,0.0,0.0,0.0,0.0,0.0,0.0,0.0,0.0,0.0,0.0,0.0,0.0,0.0,0.0,0.0,-1.684,0.0,0.0,0.0,0.0,0.0,0.0,0.0,0.0,0.0,0.0,-3.0395,-3.1056,-3.1673,-3.1835,0.0,0.0,0.0,0.0,-3.063,-3.0195,-3.0248,-3.0111,-2.927,-2.9926,-3.0221,-2.9437,0.0,0.0,-2.9022,-2.7723,-2.6774,-2.6533,-2.6164,-2.5709,-2.5441,-2.458,-2.4545,-2.6149,-2.6533,-2.7186,-2.888,-3.0305,-3.1675,-3.4949,0.0,0.0,0.0,0.0,-3.1387,-3.232,-3.4543,-3.2536,-3.0651,-2.8922,-2.8111,0.0,0.0,0.0,0.0,0.0,0.0,-2.7077,-2.8573,-2.9678,-3.0263,-3.0379,-3.01,-2.9417,-2.8453,-2.7494,-2.6344,-2.4915,-2.2317,-1.9094,-1.5439,0.0,0.0,0.0,0.0,-2.4214,-2.5371,-2.6874,-2.7051,-2.5876,-2.5785,-2.5302,-2.4296,-2.4336,-2.3675,-2.2262,-2.2147,-2.1227,-1.9397,-1.7302,0.0,0.0,0.0,0.0,0.0,0.0,0.0,0.0,0.0,0.0,0.0,0.0,0.0,0.0,0.0,0.0,0.0,0.0,0.0,-1.7243,-1.7892,-1.8728,0.0,0.0,0.0,0.0,0.0,0.0,0.0,0.0,0.0,-3.1049,-3.1707,-3.2268,0.0,0.0,-3.0242,-3.0819,-3.0164,-3.0058,-3.1243,-3.0715,0.0,-3.0029,-2.9835,-2.9816,-3.0172,-3.0364,-3.0241,-2.961,-2.9045,-2.8501,-2.8168,-2.7925,-2.7905,-2.821,-2.7323,-2.6919,-2.7972,-2.9081,-3.0251,-3.1453,-3.266,-3.3729,-3.9083,-3.657,-3.5489,-3.5537,-3.6193,-3.5065,-3.5615,-3.7177,-3.5397,-3.3788,-3.2378,-3.142,-2.9402,-2.6721,-2.5549,0.0,0.0,0.0,-2.8465,-3.0032,-2.9951,-3.021,-3.0635,-3.0059,-2.9441,-2.8863,-2.7779,-2.6869,-2.6081,-2.5285,-2.2805,-1.8887,0.0,0.0,-2.0759,-2.2985,-2.454,-2.5286,-2.5978,-2.5787,-2.4688,-2.4051,-2.3619,-2.3393,-2.3465,-2.3254,-2.2812,-2.2809,-2.2225,-2.0916,-1.9001,-1.7055,0.0,0.0,0.0,0.0,0.0,0.0,0.0,0.0,0.0,0.0,0.0,-1.2813,-1.1726,0.0,0.0,0.0,-1.6287,-1.7755,-1.9016,-1.9979,0.0,0.0,0.0,0.0,0.0,0.0,0.0,-2.9923,-3.1263,-3.2023,-3.1879,-3.2085,-3.2298,-3.237,-3.1193,-3.0442,-3.0742,0.0,-2.9806,-3.0744,-3.0389,-3.0066,-3.026,-3.0011,-2.9955,-3.0423,-3.0408,-3.0215,-2.9913,-2.9654,-2.9478,-2.9565,-2.9367,-2.944,-3.0215,-2.9983,-2.9885,-3.0452,-3.1253,-3.2262,-3.3547,-3.4569,-3.5434,-4.1303,-4.1175,-3.8808,-3.8129,-3.8596,-3.8371,-3.8037,-3.7488,-3.6213,-3.5587,-3.5356,-3.3823,-3.2475,-3.1232,-2.8967,0.0,-2.9342,-2.9416,-3.0026,-3.1198,-3.0634,-3.0419,-3.0405,-2.9074,-2.8407,-2.8333,-2.7529,-2.6633,-2.5772,-2.6239,-2.5328,-2.3078,-2.2352,-2.231,-2.2898,-2.3648,-2.4253,-2.4794,-2.4905,-2.4353,-2.3052,-2.1776,-2.1536,-2.2366,-2.2152,-2.2213,-2.2664,-2.2761,-2.2528,-2.1829,-2.0119,-1.8387,-1.6666,0.0,0.0,0.0,0.0,0.0,0.0,0.0,0.0,0.0,0.0,0.0,0.0,0.0,0.0,0.0,-1.987,0.0,-2.1187,-2.2661,0.0,0.0,0.0,-2.6745,-2.8607,-3.0043,-3.0955,-3.1216,0.0,0.0,-3.2485,-3.2138,-3.18,-3.1549,-3.1497,-3.1166,-3.0243,-3.0002,-2.9783,-2.945,-2.957,-2.9883,-3.0161,-3.0385,-3.0656,-3.0754,-3.051,-3.048,-3.0342,-3.0036,-3.0113,-3.074,-3.0561,-3.0638,-3.1556,-3.2529,-3.3478,-3.3517,-3.3243,-3.3577,-3.5153,-3.6065,-3.6672,-4.0812,-4.0978,-3.9582,-3.9244,-3.9538,-3.85,-3.8257,-3.8345,-3.6244,-3.5333,-3.5273,-3.402,-3.2835,-3.1717,-3.0985,-3.0618,-3.0556,-3.0418,-3.0451,-3.057,-3.0292,-2.9681,-2.8885,-2.9057,-2.879,-2.8065,-2.7,-2.6538,-2.6521,-2.5525,-2.4707,-2.4132,-2.3944,-2.3824,-2.376,-2.4574,-2.5178,-2.5595,-2.4446,-2.3107,-2.1472,-2.0623,-2.0213,-2.0178,-2.0268,-2.0446,-2.0742,-2.1102,-2.134,-2.1386,-1.977,-1.8685,-1.8358,-1.4858,0.0,0.0,0.0,0.0,0.0,0.0,0.0,0.0,0.0,-1.7202,-1.4702,0.0,-1.939,0.0,-2.1237,-2.2786,-2.3721,-2.4566,0.0,0.0,-2.7384,-2.839,-3.0563,-3.0596,-3.0512,-3.067,-3.0834,-3.0759,-3.0374,-3.0435,-3.0528,-3.0601,-3.0708,-3.0577,-3.0104,-2.9797,-2.9725,-2.9829,-2.9777,-2.9741,-3.0129,-3.0855,-3.163,-3.2205,-3.2269,-3.2189,-3.2004,-3.1812,-3.1694,-3.1814,-3.2098,-3.2562,-3.329,-3.4094,-3.5322,-3.6609,-3.5989,-3.5235,-3.6209,-3.6638,-3.696,-4.0247,-4.025,-3.9461,-3.9158,-3.9143,-3.8862,-3.853,-3.8022,-3.6671,-3.5638,-3.4824,-3.3788,-3.2803,-3.189,-3.1596,-3.1261,-3.0887,-3.066,-3.0444,-3.0254,-2.9947,-2.9526,-2.8958,-2.8504,-2.7965,-2.7358,-2.6226,-2.5625,-2.5503,-2.4769,-2.4273,-2.4127,-2.4091,-2.4013,-2.3847,-2.4483,-2.4826,-2.4874,-2.3407,-2.2015,-2.0809,-1.991,-1.9569,-1.9778,-1.9454,-1.9454,-1.9856,-2.0155,-2.038,-2.0507,-1.946,-1.883,-1.8784,-1.6241,-1.4854,0.0,0.0,0.0,0.0,0.0,0.0,0.0,0.0,0.0,0.0,0.0,-2.1305,-2.139,-2.3257,-2.4797,-2.5626,-2.6747,-2.7797,-2.877,-2.8999,-2.9636,-3.1042,-3.0922,-3.0765,-3.0846,-3.0509,-3.0252,-3.0109,-2.9799,-2.975,-3.0118,-3.0255,-3.0247,-3.0041,-2.964,-2.941,-2.9764,-3.0212,-3.0678,-3.1112,-3.1763,-3.2513,-3.325,-3.3422,-3.3506,-3.3683,-3.3597,-3.3526,-3.3812,-3.4312,-3.4933,-3.5689,-3.6588,-3.7676,-3.8455,-3.8445,-3.8099,-3.8395,-3.8452,-3.8527,-3.9652,-3.9437,-3.8913,-3.8479,-3.8186,-3.914,-3.8661,-3.7159,-3.6912,-3.5884,-3.4243,-3.3431,-3.2645,-3.1924,-3.1554,-3.1127,-3.066,-3.0406,-3.0216,-2.9985,-2.9535,-2.938,-2.9404,-2.7758,-2.6855,-2.6591,-2.5483,-2.4602,-2.3963,-2.3968,-2.3835,-2.3519,-2.3409,-2.3409,-2.3409,-2.374,-2.3717,-2.3334,-2.2147,-2.1169,-2.0464,-1.943,-1.9261,-1.9895,-1.9103,-1.885,-1.9333,-1.9489,-1.9553,-1.9577,-1.9221,-1.8977,-1.8848,-1.7751,-1.6919,0.0,-1.5895,0.0,0.0,0.0,0.0,0.0,0.0,0.0,0.0,-2.2714,-2.3392,-2.3635,-2.5406,-2.6724,-2.7151,-2.8602,-2.9679,-2.9993,-3.0174,-3.0417,-3.0746,-3.0925,-3.1013,-3.1011,-3.0437,-3.0094,-3.0154,-2.9539,-2.9257,-2.9739,-2.9891,-2.9972,-3.0085,-2.9677,-2.944,-2.9625,-3.0869,-3.2002,-3.2762,-3.3185,-3.3716,-3.4438,-3.4853,-3.4948,-3.559,-3.5647,-3.5788,-3.6384,-3.6939,-3.7529,-3.8251,-3.9297,-4.0,-4.0141,-4.0487,-4.07,-4.0489,-4.0311,-4.0438,-3.9416,-3.9208,-3.8606,-3.8227,-3.8214,-3.8554,-3.806,-3.6862,-3.535,-3.4368,-3.3759,-3.3591,-3.2943,-3.2061,-3.1794,-3.1265,-3.047,-3.0088,-2.9779,-2.9535,-2.9106,-2.8554,-2.7955,-2.794,-2.7275,-2.6092,-2.5529,-2.4952,-2.4288,-2.3273,-2.2852,-2.3075,-2.2456,-2.2231,-2.2365,0.0,0.0,0.0,-2.1453,-2.0655,-1.9757,-1.919,-1.8711,-1.8364,-1.8195,0.0,-1.8074,-1.8533,-1.9028,-1.9477,-1.9182,0.0,0.0,0.0,0.0,0.0,0.0,0.0,0.0,0.0,0.0,0.0,-2.1529,-2.1982,-2.249,-2.4299,-2.5486,-2.5523,-2.658,-2.7503,-2.8002,-2.8725,-2.9334,-2.9651,-2.9988,-3.0266,-3.0568,-3.0013,-2.958,-2.951,-2.8939,-2.8495,-2.8425,-2.8473,-2.8772,-2.9203,-2.9199,-2.9496,-3.0327,-3.0409,-3.0391,-3.0389,-3.175,-3.3163,-3.4235,-3.5145,-3.602,-3.6972,-3.7755,-3.8145,-3.8355,-3.8718,-3.8904,-3.912,-3.9502,-3.9842,-3.9942,-4.0578,-4.1372,-4.1732,-4.1855,-4.1573,-4.0673,-4.0492,-4.0402,-3.8416,0.0,-3.8121,-3.7639,0.0,-3.7482,-3.7012,-3.5822,-3.5299,-3.4376,-3.3125,-3.2741,-3.2371,-3.2032,-3.1434,-3.0904,-3.0312,-2.9749,-2.9248,-2.8973,-2.8633,-2.8195,-2.7649,-2.6959,-2.6313,-2.5628,-2.4575,-2.3857,-2.3388,-2.253,-2.2101,-2.2101,-2.1721,-2.1568,-2.1665,-2.153,-2.1456,-2.1408,-2.0839,-2.0275,-1.9742,-1.9113,-1.8552,-1.82,-1.8178,0.0,0.0,0.0,0.0,0.0,0.0,0.0,0.0,0.0,0.0,-2.069,-2.028,-2.022,-2.0797,-2.0934,-2.1403,-2.236,-2.2973,-2.3591,-2.4331,-2.5723,-2.6514,-2.6518,-2.721,-2.7789,-2.8124,-2.8771,-2.9136,-2.9072,-2.9513,-2.97,-2.9311,-2.9049,-2.8852,-2.8597,-2.8209,-2.7951,-2.7973,-2.8091,-2.8477,-2.8912,-2.9093,-2.9599,-3.0817,-3.0874,-3.1008,-3.2194,-3.3012,-3.4353,-3.6174,-3.7042,-3.806,-3.9362,-4.0345,-4.0968,-4.138,-4.1639,-4.1931,-4.2131,-4.2434,-4.2496,-4.2307,-4.2773,-4.316,-4.291,-4.3082,-4.3051,-4.2243,-4.1806,-4.1501,-3.7501,-3.7394,-3.7672,-3.7109,-3.6082,-3.6593,-3.5988,-3.4674,0.0,0.0,0.0,-3.1954,-3.1729,-3.1654,-3.0903,-3.0373,-3.005,-2.9352,-2.8776,-2.8419,-2.8099,-2.7834,-2.7441,-2.5848,-2.5043,-2.491,-2.3356,-2.2391,-2.2138,-2.1606,-2.1262,-2.1051,-2.0915,-2.0896,-2.0974,-2.0974,-2.0948,-2.0846,-2.0337,-2.0017,-1.9837,-1.9081,-1.8649,-1.8533,-1.8533,-1.846,-1.824,-1.8902,-1.9169,-1.8822,-1.9193,-1.9704,-2.025,-2.0297,-2.0811,-2.183,-2.2111,-2.2297,-2.2482,-2.2903,-2.3189,-2.3223,-2.3701,-2.4525,-2.583,-2.6391,-2.6697,-2.6662,-2.7193,-2.7571,-2.7663,-2.8415,-2.8785,-2.8401,-2.8979,-2.8965,-2.8127,-2.821,-2.8355,-2.8053,-2.7818,-2.7766,-2.7959,-2.803,-2.8235,-2.8779,-2.9293,-3.0267,-3.1804,-3.1933,-3.2422,-3.4455,-3.5133,-3.5988,-3.811,-3.9358,-4.011,-4.1569,-4.2677,-4.3562,-4.407,-4.4361,-4.4611,-4.4939,-4.5084,-4.48,-4.4602,-4.483,-4.4878,-4.3994,-4.4345,-4.4674,-4.416,-4.3552,-4.312,-3.758,-3.7548,-3.7471,-3.7357,-3.7272,-3.6703,-3.5517,-3.4104,-3.464,-3.3975,-3.2436,-3.2444,-3.1716,-3.0523,-3.0368,-2.9935,-2.9253,-2.8761,-2.8459,-2.8219,-2.747,-2.6857,-2.64,-2.5398,-2.4433,-2.3484,-2.2465,-2.1722,-2.1051,-2.0157,-1.9883,-2.0235,-1.9805,-1.9766,-2.0059,-2.0059,-2.006,-2.0081,-2.0004,-1.9729,-1.9341,-1.9131,-1.8885,-1.8606,-1.8892,-1.8958,-1.8663,-1.9632,-2.0367,-2.0665,-2.119,-2.1701,-2.2157,-2.1799,-2.1789,-2.2142,-2.2297,-2.2512,-2.2818,-2.2989,-2.3385,-2.396,-2.4048,-2.433,-2.5173,-2.541,-2.5494,-2.5427,-2.6163,-2.6578,-2.6535,-2.7109,-2.7781,-2.8238,-2.8373,-2.8413,-2.8463,-2.8007,-2.7757,-2.791,-2.7334,-2.714,-2.7713,-2.8004,-2.8332,-2.8849,-3.0058,-3.1536,-3.3684,-3.4314,-3.4871,-3.6403,-3.7519,-3.8654,-4.0109,-4.1745,-4.2735,-4.3357,-4.4832,-4.5795,-4.5925,-4.6328,-4.6668,-4.6801,-4.659,-4.633,-4.6211,-4.6162,-4.5941,-4.5601,-4.5644,-4.5534,-4.519,-4.4963,-4.4807,-3.7063,-3.7183,-3.6834,-3.6457,-3.6052,-3.5022,-3.4387,-3.4006,-3.3818,-3.3257,-3.2465,-3.2156,-3.1588,-3.0827,-3.0384,-2.9893,-2.9193,-2.836,-2.7877,-2.7658,-2.6911,-2.6196,-2.5588,-2.4734,-2.3858,-2.298,-2.1986,-2.125,-2.0683,-1.9981,-1.9784,-2.002,-1.9784,-1.9706,-1.9902,-1.9902,-1.9766,-1.9569,-1.954,-1.9423,-1.9202,-1.8923,-1.8696,-1.8578,-1.884,-1.8996,-1.9009,-1.9758,-2.029,-2.0566,-2.1019,-2.1419,-2.1648,-2.1632,-2.1808,-2.2197,-2.242,-2.2665,-2.2878,-2.2878,-2.3099,-2.3563,-2.3404,-2.3504,-2.3971,-2.465,-2.5018,-2.4955,-2.5668,-2.6181,-2.6191,-2.681,-2.7307,-2.7643,-2.7903,-2.7864,-2.7522,-2.7466,-2.7417,-2.7456,-2.7046,-2.6997,-2.7717,-2.8081,-2.8638,-2.9437,-3.1426,-3.384,-3.553,-3.6571,-3.7369,-3.813,-3.9084,-4.0462,-4.2092,-4.3482,-4.4608,-4.5406,-4.6606,-4.7378,-4.7491,-4.7751,-4.8022,-4.8367,-4.8003,-4.7483,-4.7287,-4.7057,-4.672,-4.6138,-4.6213,-4.6149,-4.6061,-4.623,-4.592,-3.6413,-3.6532,-3.6161,-3.5366,-3.4398,-3.374,-3.3516,-3.3524,-3.3011,-3.2626,-3.2264,-3.1533,-3.0949,-3.0495,-2.9972,-2.9558,-2.9103,-2.8004,-2.7409,-2.7222,-2.6356,-2.5611,-2.4999,-2.4073,-2.3205,-2.2514,-2.1431,-2.0664,-2.0196,-1.9706,-1.9469,-1.9429,-1.9469,-1.9508,-1.9587,-1.9627,-1.9432,-1.9049,-1.8976,-1.8929,-1.8874,-1.8472,-1.8279,-1.8347,-1.8596,-1.8898,-1.9273,-1.9805,-2.0194,-2.0424,-2.0809,-2.1129,-2.1289,-2.1501,-2.1839,-2.229,-2.2598,-2.2818,-2.3,-2.2909,-2.2939,-2.315,-2.2969,-2.2909,-2.314,-2.3898,-2.4399,-2.4506,-2.5224,-2.576,-2.5644,-2.6297,-2.6791,-2.6791,-2.7238,-2.7206,-2.6567,-2.6874,-2.7273,-2.7258,-2.6987,-2.7164,-2.8101,-2.856,-2.9425,-3.1254,-3.3637,-3.569,-3.7128,-3.8724,-3.9594,-4.0256,-4.0817,-4.1937,-4.3956,-4.5115,-4.6047,-4.7087,-4.7897,-4.837,-4.8512,-4.8549,-4.8761,-4.9213,-4.8874,-4.8365,-4.8058,-4.7893,-4.7425,-4.6783,-4.6812,-4.6964,-4.6876,-4.6871,-4.6506,-3.5797,-3.5315,-3.5532,-3.4547,-3.3214,-3.4087,-3.3491,-3.2143,-3.2287,-3.219,-3.1651,-3.0676,-2.9511,-2.8397,-2.8669,-2.8774,-2.8626,-2.7752,-2.7307,-2.7073,-2.57,-2.4871,-2.4488,-2.3422,-2.2562,-2.1858,-2.0677,-1.9721,-1.8993,-1.8514,-1.8112,-1.7934,-1.8072,-1.8353,-1.8554,-1.8732,-1.8593,-1.8219,-1.8226,-1.8119,-1.7934,-1.7666,-1.7579,-1.7784,-1.8273,-1.871,-1.9085,-1.9927,-2.0648,-2.1241,-2.1539,-2.1989,-2.2406,-2.2351,-2.242,-2.2629,-2.2812,-2.303,-2.33,-2.333,-2.3356,-2.336,-2.333,-2.3241,-2.3095,-2.3221,-2.3271,-2.3572,-2.4596,-2.4995,-2.414,-2.4957,-2.5607,-2.5748,-2.6174,-2.6351,-2.6337,-2.6903,-2.7587,-2.7881,-2.7384,-2.7674,-2.9326,-2.9842,-3.1029,-3.3541,-3.5152,-3.6978,-3.9306,-4.0481,-4.16,-4.2886,-4.3089,-4.3445,-4.5151,-4.6396,-4.707,-4.7673,-4.8397,-4.8888,-4.9011,-4.908,-4.9283,-4.9193,-4.9204,-4.887,-4.8739,-4.8658,-4.8384,-4.7752,-4.7709,-4.7985,-4.7725,-4.7036,-4.5974,-3.616,-3.6002,-3.5643,-3.4699,-3.3515,-3.3394,-3.2895,-3.2162,-3.181,-3.1279,-3.0575,-2.9957,-2.9449,-2.9032,-2.9114,-2.883,-2.8208,-2.7444,-2.6798,-2.6239,-2.5295,-2.4487,-2.3671,-2.308,-2.2223,-2.1131,-2.0406,-1.9593,-1.8825,-1.8491,-1.8371,-1.8273,-1.8129,-1.8031,-1.8152,-1.8031,-1.7826,-1.77,-1.7488,-1.7377,-1.7314,-1.7394,-1.7495,-1.7598,-1.7784,-1.8056,-1.8448,-1.8981,-1.9603,-2.027,-2.0676,-2.1229,-2.2076,-2.2318,-2.2561,-2.2787,-2.2939,-2.309,-2.321,-2.333,-2.333,-2.3215,-2.333,-2.33,-2.315,-2.3095,-2.3251,-2.3801,-2.4595,-2.5001,-2.4705,-2.5115,-2.5518,-2.5749,-2.6102,-2.6267,-2.6231,-2.7296,-2.8013,-2.7881,-2.8066,-2.8645,-2.9994,-3.1441,-3.304,-3.5096,-3.6706,-3.8899,-4.0504,-4.1595,-4.2912,-4.4155,-4.4337,-4.4757,-4.5969,-4.6954,-4.7625,-4.8034,-4.8473,-4.8836,-4.887,-4.901,-4.9061,-4.911,-4.9061,-4.8976,-4.889,-4.8697,-4.8494,-4.8207,-4.7875,-4.7777,-4.7057,-4.657,-4.5744,-3.6175,-3.5995,-3.5398,-3.4497,-3.338,-3.2817,-3.2382,-3.2037,-3.1409,-3.0636,-2.9931,-2.9688,-2.9643,-2.9642,-2.9417,-2.8877,-2.8142,-2.7303,-2.6607,-2.5888,-2.5058,-2.41,-2.3236,-2.2832,-2.2016,-2.0856,-2.0366,-1.9539,-1.8463,-1.817,-1.8089,-1.7968,-1.7708,-1.7546,-1.7546,-1.7367,-1.7216,-1.7002,-1.6945,-1.6902,-1.683,-1.7195,-1.7392,-1.7358,-1.7495,-1.7701,-1.7974,-1.8361,-1.8877,-1.9561,-1.9922,-2.061,-2.1683,-2.2221,-2.2727,-2.3174,-2.3165,-2.3276,-2.3613,-2.3538,-2.3436,-2.3382,-2.3432,-2.333,-2.3155,-2.3095,-2.3513,-2.4354,-2.4684,-2.4847,-2.507,-2.5076,-2.5205,-2.5505,-2.5803,-2.6085,-2.6068,-2.7247,-2.8081,-2.81,-2.8594,-2.9669,-3.1041,-3.3233,-3.5267,-3.6546,-3.8581,-4.0585,-4.1332,-4.2526,-4.3648,-4.4788,-4.5131,-4.5623,-4.6435,-4.7093,-4.7756,-4.8072,-4.8269,-4.8421,-4.8476,-4.8642,-4.8732,-4.8695,-4.8767,-4.875,-4.8661,-4.8494,-4.84,-4.8168,-4.785,-4.7434,-4.6945,-4.6383,-4.5456,-3.5304,-3.4646,-3.4393,-3.3661,-3.2536,-3.2827,-3.2308,-3.1423,-3.108,-3.0689,-3.017,-2.9943,-2.976,-2.9487,-2.8992,-2.8701,-2.85,-2.7413,-2.6821,-2.6492,-2.4815,-2.3711,-2.347,-2.2775,-2.1958,-2.1034,-2.0474,-1.927,-1.7629,-1.7098,-1.6566,-1.6294,-1.6484,-1.6509,-1.655,-1.6878,-1.6741,-1.6234,-1.6691,-1.6837,-1.6475,-1.6908,-1.7097,-1.7012,-1.7407,-1.775,-1.8008,-1.8462,-1.9019,-1.9583,-1.989,-2.0615,-2.1784,-2.2279,-2.2991,-2.3876,-2.3462,-2.3664,-2.4608,-2.4121,-2.3704,-2.3871,-2.372,-2.345,-2.315,-2.3201,-2.3689,-2.4919,-2.4381,-2.4249,-2.4514,-2.4431,-2.4255,-2.4362,-2.5101,-2.5466,-2.538,-2.6863,-2.7848,-2.8607,-2.9195,-3.0592,-3.3137,-3.5312,-3.7091,-3.8579,-4.006,-4.1331,-4.2658,-4.3362,-4.4053,-4.4852,-4.5407,-4.5875,-4.673,-4.7057,-4.7371,-4.7642,-4.787,-4.8052,-4.8207,-4.8285,-4.8306,-4.8382,-4.8513,-4.8495,-4.8362,-4.8265,-4.8265,-4.8012,-4.7663,-4.7263,-4.6866,-4.5852,-4.4977,-3.5682,-3.5251,-3.505,-3.4389,-3.3519,-3.3318,-3.2729,-3.1958,-3.1767,-3.1203,-3.0467,-3.0072,-2.9566,-2.9024,-2.8479,-2.8111,-2.7811,-2.6778,-2.5911,-2.5201,-2.4372,-2.3711,-2.3013,-2.2441,-2.1732,-2.0927,-2.0374,-1.9401,-1.807,-1.7434,-1.7017,-1.673,-1.6484,-1.6263,-1.6031,-1.6098,-1.5978,-1.5645,-1.6218,-1.6414,-1.6246,-1.6577,-1.6786,-1.6751,-1.7289,-1.7495,-1.7289,-1.794,-1.8596,-1.9231,-1.9584,-2.0408,-2.1784,-2.2549,-2.326,-2.4019,-2.3518,-2.3689,-2.4786,-2.4416,-2.3994,-2.4016,-2.4014,-2.369,-2.3306,-2.3513,-2.3983,-2.4255,-2.4136,-2.411,-2.4474,-2.4343,-2.4354,-2.489,-2.5301,-2.5749,-2.6354,-2.7655,-2.8821,-2.9152,-3.0479,-3.2809,-3.4723,-3.6799,-3.8307,-3.9208,-4.0707,-4.2094,-4.3026,-4.3614,-4.4187,-4.4858,-4.531,-4.5624,-4.5945,-4.6531,-4.6939,-4.7187,-4.7407,-4.7578,-4.7726,-4.7911,-4.7975,-4.8131,-4.8267,-4.8306,-4.8187,-4.8032,-4.8032,-4.7968,-4.7593,-4.7205,-4.6715,-4.5752,-4.4856,-3.5978,-3.5588,-3.5494,-3.4986,-3.422,-3.3579,-3.3049,-3.2568,-3.1921,-3.1206,-3.0484,-2.9833,-2.9239,-2.8678,-2.7772,-2.7232,-2.6993,-2.623,-2.5367,-2.441,-2.3964,-2.3406,-2.2794,-2.215,-2.1514,-2.0809,-2.0035,-1.9033,-1.7854,-1.7228,-1.6812,-1.6509,-1.6098,-1.5726,-1.5436,-1.545,-1.5331,-1.5187,-1.572,-1.6059,-1.598,-1.6278,-1.6466,-1.6499,-1.6917,-1.7162,-1.7097,-1.7735,-1.8428,-1.9098,-1.9561,-2.0549,-2.2125,-2.2823,-2.3437,-2.4019,-2.3694,-2.3966,-2.5014,-2.4659,-2.421,-2.4262,-2.4028,-2.368,-2.3201,-2.3781,-2.4064,-2.4047,-2.4072,-2.4305,-2.4792,-2.4719,-2.4695,-2.5344,-2.5688,-2.615,-2.6806,-2.8223,-2.9381,-3.046,-3.252,-3.469,-3.6369,-3.8038,-3.9224,-3.9907,-4.1555,-4.2712,-4.3256,-4.3643,-4.4097,-4.4609,-4.4852,-4.5035,-4.5354,-4.5794,-4.6363,-4.6649,-4.7053,-4.7209,-4.7341,-4.75,-4.7669,-4.785,-4.7988,-4.8032,-4.7992,-4.787,-4.7809,-4.7824,-4.7578,-4.7198,-4.6507,-4.5652,-4.4936,-3.6018,-3.5453,-3.5413,-3.5099,-3.4451,-3.3651,-3.3186,-3.2905,-3.1437,-3.0668,-3.0225,-2.9264,-2.8787,-2.8364,-2.6894,-2.6139,-2.6104,-2.5841,-2.5303,-2.4564,-2.3477,-2.2882,-2.2706,-2.182,-2.1239,-2.0774,-1.9477,-1.8159,-1.6988,-1.6505,-1.6046,-1.5506,-1.5159,-1.4964,-1.4755,-1.5033,-1.4897,-1.4747,-1.5412,-1.5744,-1.5591,-1.6015,-1.6211,-1.6035,-1.6337,-1.6815,-1.7366,-1.7915,-1.8502,-1.918,-1.9781,-2.1009,-2.2616,-2.306,-2.3432,-2.412,-2.4047,-2.4602,-2.5539,-2.4887,-2.4432,-2.4463,-2.3927,-2.3397,-2.3251,-2.375,-2.4115,-2.4047,-2.4258,-2.4741,-2.5283,-2.5261,-2.5127,-2.5233,-2.6083,-2.6805,-2.734,-2.8081,-2.9656,-3.2377,-3.4573,-3.6238,-3.783,-3.9149,-4.0228,-4.1298,-4.2304,-4.3139,-4.3535,-4.3727,-4.3813,-4.4173,-4.4586,-4.493,-4.496,-4.5042,-4.5615,-4.6168,-4.6613,-4.6893,-4.703,-4.7151,-4.7284,-4.7493,-4.7699,-4.7726,-4.7731,-4.7627,-4.7663,-4.7657,-4.7428,-4.7262,-4.6729,-4.6018,-4.5265,-3.5978,-3.5507,-3.587,-3.5358,-3.4361,-3.4254,-3.3805,-3.291,-3.1831,-3.0941,-2.9964,-2.8981,-2.8194,-2.7454,-2.6501,-2.5655,-2.4881,-2.4751,-2.4331,-2.3687,-2.3203,-2.2794,-2.2397,-2.1553,-2.0744,-1.9946,-1.8924,-1.8073,-1.744,-1.6677,-1.6095,-1.5714,-1.5343,-1.5078,-1.4821,-1.5091,-1.4964,-1.4413,-1.5181,-1.5423,-1.5,-1.5563,-1.5825,-1.5664,-1.6075,-1.6454,-1.6646,-1.7402,-1.8099,-1.8686,-1.9609,-2.0887,-2.2334,-2.2787,-2.3449,-2.4576,-2.4274,-2.4551,-2.5565,-2.5088,-2.4437,-2.4255,-2.3816,-2.3429,-2.3099,-2.3591,-2.3898,-2.3891,-2.414,-2.4648,-2.5397,-2.573,-2.594,-2.6364,-2.696,-2.7626,-2.8479,-3.0128,-3.2324,-3.4628,-3.6391,-3.7719,-3.8769,-3.9973,-4.1059,-4.1578,-4.232,-4.3028,-4.3732,-4.3922,-4.4377,-4.5014,-4.505,-4.5009,-4.5149,-4.5168,-4.5383,-4.5814,-4.6175,-4.6495,-4.6637,-4.6847,-4.6985,-4.712,-4.7298,-4.7407,-4.7414,-4.7493,-4.7472,-4.7486,-4.7298,-4.7173,-4.708,-4.6431,-4.5454,-3.6138,-3.5643,-3.5775,-3.5378,-3.4546,-3.4195,-3.3649,-3.2865,-3.1759,-3.0658,-2.9679,-2.8556,-2.771,-2.694,-2.609,-2.5243,-2.4405,-2.4067,-2.3499,-2.2872,-2.2612,-2.2397,-2.2043,-2.1266,-2.0324,-1.945,-1.8786,-1.8104,-1.7427,-1.6753,-1.6166,-1.5747,-1.539,-1.5007,-1.4683,-1.4836,-1.4559,-1.4022,-1.456,-1.482,-1.4651,-1.5143,-1.5566,-1.5596,-1.599,-1.6248,-1.6364,-1.7161,-1.7898,-1.8604,-1.9802,-2.1101,-2.2149,-2.2708,-2.3424,-2.406,-2.44,-2.462,-2.5159,-2.4753,-2.4381,-2.4023,-2.3679,-2.3343,-2.3149,-2.356,-2.3904,-2.3734,-2.4254,-2.4869,-2.5667,-2.6268,-2.6864,-2.7626,-2.7954,-2.874,-3.0073,-3.2511,-3.4647,-3.6466,-3.7796,-3.8794,-3.9775,-4.0411,-4.1464,-4.1752,-4.2233,-4.2683,-4.3486,-4.3872,-4.4519,-4.5069,-4.5185,-4.5263,-4.5477,-4.5399,-4.5258,-4.5466,-4.5727,-4.5974,-4.6204,-4.6471,-4.6649,-4.6824,-4.6985,-4.7098,-4.7143,-4.7232,-4.7232,-4.7187,-4.7143,-4.712,-4.6945,-4.6193,-4.5382,-3.6377,-3.5911,-3.5358,-3.5172,-3.4927,-3.3572,-3.3021,-3.2816,-3.1101,-2.9964,-2.9219,-2.7957,-2.7186,-2.6609,-2.5482,-2.4736,-2.4546,-2.3815,-2.3059,-2.239,-2.1988,-2.167,-2.1463,-2.0925,-2.0155,-1.9273,-1.8945,-1.8201,-1.713,-1.6548,-1.6035,-1.5548,-1.5104,-1.4669,-1.4365,-1.4235,-1.3931,-1.348,-1.3817,-1.4083,-1.4124,-1.4784,-1.536,-1.568,-1.6006,-1.6287,-1.6574,-1.7258,-1.7983,-1.885,-2.0348,-2.1336,-2.1934,-2.2844,-2.3195,-2.336,-2.4199,-2.4394,-2.4286,-2.4224,-2.4035,-2.3884,-2.3446,-2.3095,-2.3165,-2.3527,-2.3826,-2.3695,-2.446,-2.5406,-2.6122,-2.6969,-2.7938,-2.8983,-2.928,-3.0279,-3.2676,-3.4942,-3.6384,-3.7655,-3.8779,-3.9629,-4.0452,-4.0801,-4.1342,-4.1885,-4.2269,-4.2557,-4.2975,-4.3555,-4.4005,-4.4489,-4.5006,-4.5028,-4.5047,-4.4816,-4.4697,-4.5156,-4.5337,-4.5432,-4.5778,-4.607,-4.6315,-4.6495,-4.6637,-4.6731,-4.6801,-4.687,-4.6962,-4.6985,-4.6985,-4.6998,-4.6656,-4.6046,-4.5658,-3.6178,-3.5399,-3.558,-3.5141,-3.4264,-3.3549,-3.2861,-3.2037,-3.0446,-2.9296,-2.8451,-2.6998,-2.6233,-2.5849,-2.5019,-2.4258,-2.3847,-2.3464,-2.2825,-2.2079,-2.1557,-2.1081,-2.0752,-2.0518,-2.0059,-1.9397,-1.8791,-1.8081,-1.7348,-1.6614,-1.6007,-1.549,-1.4906,-1.455,-1.4382,-1.4021,-1.3647,-1.3307,-1.3634,-1.383,-1.3975,-1.4462,-1.5063,-1.568,-1.606,-1.6384,-1.6689,-1.7419,-1.834,-1.9305,-2.0149,-2.0987,-2.1643,-2.2162,-2.2729,-2.3387,-2.3885,-2.4243,-2.4185,-2.4047,-2.3865,-2.3578,-2.3215,-2.2969,-2.2939,-2.3033,-2.3446,-2.3964,-2.4641,-2.5476,-2.6814,-2.8033,-2.9575,-3.1521,-3.1297,-3.193,-3.433,-3.5673,-3.6749,-3.7981,-3.9142,-3.9905,-4.0447,-4.1053,-4.1628,-4.2013,-4.2302,-4.2655,-4.3138,-4.359,-4.4172,-4.4399,-4.4722,-4.4587,-4.4445,-4.4191,-4.4231,-4.4804,-4.4918,-4.4831,-4.5249,-4.5692,-4.592,-4.6119,-4.6301,-4.6398,-4.6398,-4.6423,-4.6566,-4.6695,-4.6519,-4.6413,-4.6602,-4.6236,-4.6022,-3.5938,-3.529,-3.5099,-3.4563,-3.3736,-3.2771,-3.1902,-3.0965,-2.9569,-2.8537,-2.7741,-2.6662,-2.592,-2.549,-2.494,-2.4291,-2.3634,-2.3514,-2.296,-2.2064,-2.1217,-2.0572,-2.0235,-2.011,-1.9837,-1.9288,-1.8758,-1.811,-1.7412,-1.6831,-1.6287,-1.5661,-1.5173,-1.4786,-1.4322,-1.3875,-1.35,-1.3278,-1.3306,-1.3466,-1.4043,-1.4413,-1.515,-1.5931,-1.6446,-1.6816,-1.7278,-1.783,-1.8619,-1.9453,-2.0009,-2.0529,-2.1201,-2.1768,-2.2289,-2.2969,-2.3455,-2.3779,-2.3678,-2.3627,-2.3507,-2.3286,-2.306,-2.3,-2.303,-2.303,-2.3558,-2.4407,-2.4814,-2.5787,-2.7265,-2.8884,-3.1019,-3.3107,-3.325,-3.3898,-3.622,-3.6902,-3.774,-3.8825,-3.9613,-4.0228,-4.0462,-4.1102,-4.1649,-4.21,-4.2392,-4.2939,-4.3517,-4.3973,-4.4331,-4.4559,-4.4949,-4.5081,-4.4853,-4.455,-4.4103,-4.4517,-4.4586,-4.449,-4.4852,-4.5302,-4.5563,-4.5743,-4.593,-4.603,-4.603,-4.6055,-4.6204,-4.6231,-4.6007,-4.5947,-4.6088,-4.6136,-4.5979,-3.5629,-3.5467,-3.423,-3.3647,-3.3261,-3.1487,-3.0583,-2.9949,-2.8679,-2.7736,-2.722,-2.6628,-2.5999,-2.5456,-2.5028,-2.4564,-2.3895,-2.374,-2.2985,-2.1931,-2.0876,-2.0081,-1.9853,-1.9791,-1.9517,-1.8966,-1.8827,-1.8087,-1.7372,-1.707,-1.6519,-1.5727,-1.5436,-1.5018,-1.4252,-1.3666,-1.337,-1.311,-1.2811,-1.3134,-1.3925,-1.4356,-1.5094,-1.6131,-1.6824,-1.7248,-1.7707,-1.8172,-1.863,-1.9363,-1.9681,-2.0085,-2.0616,-2.1518,-2.1978,-2.2162,-2.2872,-2.3232,-2.2994,-2.302,-2.3004,-2.2908,-2.2879,-2.2995,-2.2949,-2.3153,-2.3731,-2.4671,-2.5199,-2.6329,-2.8089,-2.9867,-3.2041,-3.4129,-3.4815,-3.5735,-3.7109,-3.8162,-3.9013,-3.9934,-4.006,-4.0335,-4.0578,-4.0845,-4.1137,-4.1767,-4.222,-4.2833,-4.3444,-4.3996,-4.4417,-4.4739,-4.5261,-4.5846,-4.5467,-4.5017,-4.449,-4.428,-4.4291,-4.4311,-4.4553,-4.4927,-4.5196,-4.5381,-4.5441,-4.5546,-4.5641,-4.5743,-4.5844,-4.581,-4.562,-4.5509,-4.5483,-4.554,-4.5455,-3.5304,-3.4605,-3.3979,-3.3189,-3.2274,-3.1127,-3.0124,-2.9284,-2.8189,-2.7384,-2.6894,-2.6107,-2.5622,-2.5429,-2.4832,-2.4287,-2.3862,-2.3541,-2.2712,-2.1323,-2.0235,-1.9658,-1.9396,-1.9366,-1.9242,-1.892,-1.8504,-1.7857,-1.7265,-1.6675,-1.5982,-1.5399,-1.4889,-1.4326,-1.4071,-1.3335,-1.2836,-1.2741,-1.2632,-1.2854,-1.3438,-1.4035,-1.4793,-1.5866,-1.6722,-1.7185,-1.7392,-1.7598,-1.7906,-1.8414,-1.9031,-1.9584,-2.0205,-2.0799,-2.1288,-2.1808,-2.2389,-2.2743,-2.2623,-2.2535,-2.2474,-2.228,-2.2195,-2.2163,-2.2472,-2.284,-2.3647,-2.4693,-2.5686,-2.7355,-2.9821,-3.1471,-3.3146,-3.4801,-3.561,-3.6244,-3.7434,-3.7922,-3.843,-3.9098,-3.9517,-3.9768,-4.0296,-4.0593,-4.0959,-4.1395,-4.2011,-4.2627,-4.3334,-4.4106,-4.4493,-4.4941,-4.5144,-4.5536,-4.5162,-4.4687,-4.4204,-4.3904,-4.389,-4.3734,-4.3992,-4.4435,-4.4625,-4.4797,-4.4913,-4.5042,-4.531,-4.5146,-4.5156,-4.5182,-4.5174,-4.5018,-4.488,-4.4924,-4.5062,-3.4853,-3.4189,-3.3428,-3.2542,-3.1582,-3.0422,-2.9481,-2.8628,-2.7413,-2.6764,-2.6388,-2.5593,-2.5247,-2.5179,-2.4764,-2.4377,-2.3852,-2.3166,-2.2221,-2.1077,-2.0307,-1.9919,-1.9398,-1.8973,-1.8722,-1.8582,-1.804,-1.7502,-1.7028,-1.6558,-1.5997,-1.5293,-1.4784,-1.4365,-1.3796,-1.3052,-1.2843,-1.2746,-1.2453,-1.2694,-1.36,-1.3767,-1.4587,-1.561,-1.6457,-1.6925,-1.7323,-1.7426,-1.7517,-1.7706,-1.8095,-1.8825,-1.9522,-1.983,-2.0231,-2.0912,-2.1494,-2.1741,-2.1712,-2.198,-2.213,-2.1909,-2.1773,-2.1992,-2.2448,-2.293,-2.3913,-2.5197,-2.6627,-2.846,-3.1249,-3.2296,-3.3691,-3.5102,-3.5931,-3.6568,-3.7395,-3.7734,-3.8062,-3.876,-3.9343,-3.9792,-4.0179,-4.0598,-4.1464,-4.2212,-4.2499,-4.3091,-4.4006,-4.4652,-4.4804,-4.5033,-4.5084,-4.5066,-4.4694,-4.4226,-4.3686,-4.349,-4.3451,-4.3141,-4.2973,-4.3502,-4.4006,-4.4231,-4.4507,-4.4776,-4.4961,-4.4736,-4.4456,-4.4331,-4.4255,-4.4297,-4.4243,-4.4209,-4.4421,-3.4397,-3.3937,-3.2828,-3.1869,-3.0982,-2.976,-2.8814,-2.7972,-2.6812,-2.6235,-2.5897,-2.5216,-2.5012,-2.4903,-2.4854,-2.4461,-2.366,-2.2652,-2.1542,-2.0884,-2.0265,-1.9926,-1.9414,-1.864,-1.8065,-1.7916,-1.7481,-1.703,-1.6702,-1.6438,-1.5676,-1.5152,-1.4968,-1.434,-1.3463,-1.2954,-1.2723,-1.2824,-1.2403,-1.2575,-1.3652,-1.3699,-1.4366,-1.5323,-1.5929,-1.6385,-1.6837,-1.6989,-1.7026,-1.6888,-1.6952,-1.7737,-1.8544,-1.89,-1.8951,-1.9784,-2.0482,-2.0831,-2.1026,-2.1368,-2.1728,-2.1705,-2.1676,-2.1929,-2.247,-2.3364,-2.4498,-2.5997,-2.7594,-2.9692,-3.1841,-3.28,-3.3864,-3.5113,-3.5921,-3.6533,-3.708,-3.7558,-3.791,-3.8485,-3.9156,-3.9787,-4.042,-4.0962,-4.2008,-4.2863,-4.3159,-4.3554,-4.4384,-4.4955,-4.4923,-4.482,-4.4777,-4.424,-4.3778,-4.3729,-4.323,-4.3073,-4.3006,-4.2769,-4.2365,-4.2936,-4.3562,-4.3896,-4.4176,-4.4418,-4.4421,-4.4136,-4.3858,-4.3518,-4.3464,-4.3634,-4.3593,-4.3455,-4.3888,-3.4021,-3.3683,-3.2544,-3.1403,-3.0397,-2.9669,-2.856,-2.7289,-2.686,-2.6235,-2.5479,-2.5284,-2.5039,-2.4892,-2.4627,-2.4035,-2.3082,-2.2043,-2.128,-2.0669,-1.9989,-1.9381,-1.9205,-1.8243,-1.7581,-1.7308,-1.6904,-1.6386,-1.5866,-1.5399,-1.5105,-1.4254,-1.4005,-1.3673,-1.3311,-1.2826,-1.2572,-1.2752,-1.2457,-1.265,-1.3035,-1.34,-1.3829,-1.4712,-1.5188,-1.5596,-1.5808,-1.5894,-1.5803,-1.5746,-1.55,-1.619,-1.7283,-1.8072,-1.8607,-1.9239,-1.9901,-2.0334,-2.0456,-2.0817,-2.0963,-2.0966,-2.1251,-2.1742,-2.2472,-2.3548,-2.5052,-2.6982,-2.9074,-3.1202,-3.2206,-3.3154,-3.415,-3.5141,-3.5823,-3.6245,-3.6682,-3.7084,-3.7538,-3.8225,-3.9002,-3.9812,-4.0478,-4.1197,-4.2054,-4.2773,-4.3077,-4.3313,-4.3784,-4.4349,-4.4662,-4.4496,-4.4291,-4.3555,-4.2868,-4.2913,-4.2803,-4.2654,-4.2622,-4.2714,-4.2512,-4.2767,-4.3139,-4.3344,-4.3662,-4.391,-4.3816,-4.3578,-4.3227,-4.2922,-4.2976,-4.313,-4.3216,-4.3334,-4.3804,-3.3598,-3.3086,-3.2089,-3.1003,-2.9966,-2.9048,-2.8139,-2.7098,-2.6524,-2.5974,-2.5509,-2.5088,-2.4745,-2.448,-2.4233,-2.3587,-2.265,-2.1862,-2.126,-2.0694,-2.0022,-1.9552,-1.9315,-1.8222,-1.7688,-1.7207,-1.6532,-1.5913,-1.5594,-1.5309,-1.4641,-1.4201,-1.3911,-1.3614,-1.3107,-1.2728,-1.2535,-1.2524,-1.2457,-1.2565,-1.2858,-1.3185,-1.3624,-1.4204,-1.4581,-1.4964,-1.5445,-1.5515,-1.5386,-1.5213,-1.4998,-1.5475,-1.6258,-1.7012,-1.7798,-1.871,-1.9373,-1.9779,-1.997,-2.0318,-2.0656,-2.0856,-2.13,-2.1878,-2.272,-2.3989,-2.5932,-2.8252,-2.9956,-3.1845,-3.2773,-3.3606,-3.431,-3.5002,-3.5636,-3.6085,-3.6373,-3.6626,-3.7275,-3.8045,-3.8937,-3.9751,-4.0527,-4.127,-4.2106,-4.2599,-4.2982,-4.3196,-4.3372,-4.3769,-4.4228,-4.425,-4.4093,-4.364,-4.2903,-4.2708,-4.2534,-4.2328,-4.2302,-4.2396,-4.2456,-4.2613,-4.2626,-4.2679,-4.3016,-4.3398,-4.3332,-4.3071,-4.2684,-4.2456,-4.2778,-4.3004,-4.3126,-4.337,-4.3776,-3.3011,-3.2247,-3.1468,-3.0554,-2.9486,-2.8445,-2.762,-2.686,-2.6022,-2.5538,-2.5294,-2.4677,-2.4233,-2.3985,-2.3687,-2.3188,-2.2333,-2.181,-2.1234,-2.0641,-2.0056,-1.98,-1.9284,-1.849,-1.7422,-1.6683,-1.5949,-1.5404,-1.5248,-1.4867,-1.4432,-1.3859,-1.379,-1.3447,-1.2661,-1.2342,-1.2345,-1.2299,-1.2198,-1.2431,-1.2762,-1.3037,-1.3344,-1.3915,-1.4021,-1.4403,-1.4931,-1.4951,-1.486,-1.4684,-1.4635,-1.4932,-1.5574,-1.5949,-1.6926,-1.8325,-1.8825,-1.909,-1.9647,-1.999,-2.0603,-2.1264,-2.1844,-2.2431,-2.3603,-2.5311,-2.7429,-2.9935,-3.1262,-3.2345,-3.3445,-3.399,-3.4458,-3.4923,-3.5518,-3.5978,-3.6151,-3.6445,-3.7018,-3.7862,-3.8854,-3.9671,-4.0488,-4.1341,-4.2128,-4.2406,-4.2793,-4.2912,-4.3129,-4.3386,-4.3741,-4.3945,-4.3867,-4.3729,-4.3278,-4.2817,-4.2491,-4.2064,-4.2107,-4.2206,-4.2299,-4.2359,-4.2341,-4.2419,-4.2506,-4.2818,-4.2725,-4.265,-4.2323,-4.2305,-4.2652,-4.2841,-4.2894,-4.3144,-4.3584,-3.2124,-3.1019,-3.0793,-2.9966,-2.8863,-2.8233,-2.7173,-2.5974,-2.5538,-2.4903,-2.443,-2.3985,-2.3836,-2.3687,-2.3288,-2.2585,-2.1979,-2.142,-2.0909,-2.0313,-1.9653,-1.9021,-1.8267,-1.7309,-1.6654,-1.6069,-1.5281,-1.4688,-1.458,-1.4148,-1.3504,-1.3072,-1.2747,-1.2242,-1.2279,-1.1947,-1.1572,-1.1651,-1.1565,-1.1694,-1.2079,-1.2576,-1.2841,-1.2949,-1.3215,-1.3594,-1.4061,-1.4075,-1.3983,-1.4018,-1.3816,-1.4422,-1.5444,-1.557,-1.6749,-1.8016,-1.8815,-1.9138,-2.0015,-2.0267,-2.081,-2.1819,-2.2639,-2.3555,-2.5093,-2.7037,-2.9281,-3.1361,-3.2159,-3.2987,-3.407,-3.4453,-3.4793,-3.5023,-3.5386,-3.5764,-3.5925,-3.6373,-3.6924,-3.7774,-3.8761,-3.9596,-4.0416,-4.136,-4.214,-4.2363,-4.2514,-4.2677,-4.279,-4.3011,-4.3099,-4.3249,-4.316,-4.2995,-4.2828,-4.2501,-4.225,-4.1765,-4.1878,-4.2013,-4.2109,-4.2172,-4.2329,-4.2385,-4.2344,-4.2225,-4.2253,-4.2152,-4.1955,-4.2211,-4.2689,-4.2675,-4.2593,-4.2973,-4.3386,-3.1616,-3.1029,-3.0305,-2.9509,-2.8631,-2.762,-2.6716,-2.5897,-2.5167,-2.4677,-2.4282,-2.3886,-2.3587,-2.3288,-2.2736,-2.2283,-2.1827,-2.1181,-2.0617,-2.0034,-1.9354,-1.8671,-1.7974,-1.7155,-1.6406,-1.5794,-1.5139,-1.4592,-1.4244,-1.3908,-1.3454,-1.2944,-1.2574,-1.2418,-1.2092,-1.1879,-1.1698,-1.1616,-1.1565,-1.1595,-1.1816,-1.2157,-1.2479,-1.2442,-1.2739,-1.3053,-1.329,-1.3662,-1.3672,-1.3797,-1.3901,-1.4754,-1.568,-1.6064,-1.6758,-1.8913,-1.8932,-1.9436,-2.0499,-2.0618,-2.1407,-2.2485,-2.3636,-2.5101,-2.6948,-2.8903,-3.0502,-3.1729,-3.2761,-3.3781,-3.4522,-3.4578,-3.4835,-3.5076,-3.5235,-3.5531,-3.5885,-3.6375,-3.6907,-3.7799,-3.8602,-3.941,-4.018,-4.0983,-4.1632,-4.191,-4.2117,-4.2392,-4.2431,-4.2446,-4.2465,-4.2462,-4.2289,-4.2075,-4.1876,-4.1612,-4.1651,-4.1398,-4.1582,-4.1753,-4.1916,-4.2045,-4.2173,-4.1879,-4.1482,-4.149,-4.1687,-4.1923,-4.1996,-4.2356,-4.275,-4.2771,-4.2789,-4.2747,-4.3023,-3.0758,-3.0668,-2.9806,-2.9002,-2.8258,-2.6976,-2.6159,-2.5654,-2.4824,-2.4332,-2.4084,-2.3637,-2.3138,-2.2736,-2.2283,-2.1928,-2.1674,-2.0806,-2.0256,-1.9739,-1.9153,-1.8404,-1.7767,-1.7069,-1.6526,-1.6095,-1.4998,-1.4449,-1.4124,-1.3823,-1.3389,-1.3001,-1.231,-1.2178,-1.201,-1.1542,-1.1237,-1.1069,-1.1228,-1.1301,-1.1416,-1.1846,-1.2067,-1.2225,-1.2384,-1.2605,-1.2908,-1.3418,-1.3606,-1.3734,-1.4153,-1.4927,-1.5761,-1.5875,-1.6848,-1.8554,-1.8874,-1.9726,-2.0868,-2.1571,-2.2027,-2.3307,-2.5007,-2.6945,-2.8795,-3.057,-3.1963,-3.2771,-3.3495,-3.4445,-3.4996,-3.5049,-3.4979,-3.5042,-3.5012,-3.5387,-3.5763,-3.6231,-3.6864,-3.773,-3.8462,-3.9029,-3.9786,-4.0533,-4.1043,-4.1409,-4.1702,-4.2063,-4.2158,-4.2118,-4.2268,-4.2277,-4.2111,-4.1874,-4.1485,-4.126,-4.1111,-4.0993,-4.1216,-4.1489,-4.1654,-4.1851,-4.1981,-4.1467,-4.0945,-4.1292,-4.1859,-4.1999,-4.21,-4.236,-4.2653,-4.2996,-4.3078,-4.2899,-4.2492,-2.9255,-2.9255,-2.9141,-2.8445,-2.7336,-2.6476,-2.5703,-2.5039,-2.4381,-2.3886,-2.3438,-2.2887,-2.2485,-2.2131,-2.1827,-2.142,-2.096,-2.0395,-1.9828,-1.9257,-1.867,-1.7984,-1.7353,-1.6806,-1.6328,-1.5556,-1.474,-1.4205,-1.3821,-1.3389,-1.3098,-1.2748,-1.2017,-1.1502,-1.1124,-1.0782,-1.038,-1.0274,-1.047,-1.0583,-1.0849,-1.1307,-1.1766,-1.1752,-1.1831,-1.2032,-1.2439,-1.3129,-1.3555,-1.3654,-1.4236,-1.4804,-1.5547,-1.5574,-1.6686,-1.8249,-1.8849,-2.0069,-2.1831,-2.2347,-2.2966,-2.4753,-2.6823,-2.8729,-3.0199,-3.0901,-3.2284,-3.4126,-3.4553,-3.5178,-3.5732,-3.5907,-3.5321,-3.5131,-3.5021,-3.5283,-3.5647,-3.6061,-3.6753,-3.7667,-3.837,-3.8961,-3.931,-4.0031,-4.0559,-4.0901,-4.1325,-4.1689,-4.2017,-4.207,-4.2294,-4.2357,-4.2216,-4.1948,-4.1498,-4.1182,-4.0741,-4.065,-4.0746,-4.1122,-4.1423,-4.1558,-4.1723,-4.1502,-4.1117,-4.1563,-4.1848,-4.1703,-4.1746,-4.216,-4.252,-4.2764,-4.2649,-4.2302,-4.1883,-2.8699,-2.842,-2.807,-2.76,-2.7003,-2.6187,-2.5509,-2.4824,-2.4183,-2.3488,-2.2837,-2.2283,-2.1979,-2.1776,-2.1369,-2.1011,-2.0601,-1.9879,-1.9309,-1.8803,-1.8251,-1.7568,-1.6912,-1.6316,-1.5806,-1.5068,-1.4389,-1.3932,-1.3605,-1.3001,-1.2565,-1.2127,-1.159,-1.1287,-1.0812,-1.0027,-0.9588,-0.9555,-0.9571,-0.9606,-0.9947,-1.0646,-1.1072,-1.0816,-1.1758,-1.1979,-1.2381,-1.3336,-1.3628,-1.3917,-1.4543,-1.505,-1.5442,-1.5456,-1.6585,-1.8396,-1.8797,-2.0563,-2.2743,-2.3201,-2.402,-2.6569,-2.8539,-3.0095,-3.1193,-3.2178,-3.337,-3.4576,-3.5209,-3.5775,-3.5732,-3.5588,-3.5234,-3.508,-3.5098,-3.5219,-3.5609,-3.6079,-3.6752,-3.7739,-3.8324,-3.8905,-3.919,-3.9492,-4.0012,-4.0457,-4.0887,-4.1212,-4.1558,-4.1668,-4.1708,-4.1586,-4.139,-4.0991,-4.0554,-4.0341,-4.0248,-4.0309,-4.0335,-4.0681,-4.1021,-4.1323,-4.1396,-4.1244,-4.1087,-4.1119,-4.1149,-4.1171,-4.145,-4.1994,-4.229,-4.249,-4.2206,-4.1752,-4.1323,-2.8139,-2.762,-2.7194,-2.6941,-2.6754,-2.5977,-2.5385,-2.4952,-2.4317,-2.3452,-2.2537,-2.1893,-2.1573,-2.142,-2.0909,-2.0601,-2.0189,-1.9517,-1.8893,-1.8318,-1.7793,-1.716,-1.6514,-1.5996,-1.5503,-1.4781,-1.4217,-1.3788,-1.3497,-1.2662,-1.2078,-1.1639,-1.1296,-1.0806,-1.0267,-0.9331,-0.8753,-0.8852,-0.8901,-0.8803,-0.9137,-0.9958,-1.0509,-1.0315,-1.1056,-1.1691,-1.2165,-1.2972,-1.3504,-1.3914,-1.4463,-1.514,-1.5387,-1.5806,-1.6726,-1.8048,-1.9488,-2.0941,-2.2952,-2.4659,-2.5734,-2.796,-2.9548,-3.0819,-3.2028,-3.3278,-3.4047,-3.492,-3.5512,-3.5852,-3.5774,-3.5657,-3.5579,-3.5473,-3.5051,-3.5161,-3.5852,-3.6385,-3.7026,-3.7787,-3.8217,-3.8585,-3.8988,-3.9237,-3.9706,-4.0087,-4.0308,-4.059,-4.0728,-4.0756,-4.0607,-4.04,-4.0169,-3.9774,-3.9306,-3.9526,-3.9703,-3.9888,-3.998,-4.0226,-4.0543,-4.0851,-4.1024,-4.0872,-4.0692,-4.0544,-4.0673,-4.0927,-4.1342,-4.1819,-4.1981,-4.198,-4.1687,-4.1288,-4.0885,-2.7336,-2.6907,-2.664,-2.6592,-2.6586,-2.581,-2.5413,-2.5057,-2.4523,-2.367,-2.2602,-2.1769,-2.1283,-2.1078,-2.0447,-2.0086,-1.9724,-1.8945,-1.837,-1.8055,-1.7371,-1.6842,-1.6352,-1.583,-1.5217,-1.4954,-1.4247,-1.3679,-1.3337,-1.2381,-1.1639,-1.0806,-1.0216,-0.9715,-0.9477,-0.8306,-0.7785,-0.7923,-0.8274,-0.8287,-0.8595,-0.939,-0.9793,-1.0127,-1.0538,-1.1194,-1.197,-1.268,-1.3135,-1.348,-1.4263,-1.476,-1.4831,-1.5512,-1.6677,-1.8248,-1.9802,-2.1667,-2.3928,-2.6282,-2.7918,-2.8993,-3.0381,-3.1668,-3.3022,-3.382,-3.429,-3.5234,-3.5628,-3.6034,-3.6079,-3.6008,-3.5862,-3.5633,-3.5167,-3.5243,-3.5958,-3.6422,-3.7011,-3.754,-3.7821,-3.8122,-3.8575,-3.9024,-3.9469,-3.9715,-3.9801,-3.9943,-4.0166,-4.0117,-4.0043,-3.965,-3.9421,-3.9226,-3.8977,-3.9077,-3.9222,-3.9373,-3.9589,-3.9874,-4.0086,-4.0335,-4.0443,-4.042,-4.0532,-4.0522,-4.0642,-4.0823,-4.1102,-4.1338,-4.1365,-4.1323,-4.1055,-4.0848,-4.0539,-2.6928,-2.6592,-2.6139,-2.6113,-2.6205,-2.5743,-2.5215,-2.463,-2.3807,-2.3003,-2.2372,-2.1655,-2.0996,-2.0509,-2.005,-1.9532,-1.8945,-1.8541,-1.8069,-1.7543,-1.6895,-1.6365,-1.5939,-1.5423,-1.4847,-1.4313,-1.3762,-1.333,-1.2649,-1.1934,-1.111,-1.0216,-0.9023,-0.8131,-0.7885,-0.7288,-0.7037,-0.7088,-0.7156,-0.7296,-0.7932,-0.8711,-0.9311,-0.9663,-1.0327,-1.1046,-1.1798,-1.2452,-1.2877,-1.3186,-1.4015,-1.4603,-1.497,-1.5763,-1.7307,-1.8863,-2.0427,-2.2647,-2.5231,-2.7662,-2.9303,-3.0201,-3.1254,-3.2544,-3.3534,-3.3871,-3.4634,-3.5314,-3.5567,-3.5801,-3.5701,-3.5676,-3.5546,-3.5433,-3.5215,-3.5465,-3.5909,-3.6269,-3.668,-3.7196,-3.7572,-3.8122,-3.8621,-3.88,-3.9203,-3.9557,-3.9707,-3.9802,-3.9956,-3.9952,-3.9886,-3.9258,-3.8909,-3.8775,-3.8713,-3.8722,-3.8863,-3.9053,-3.9301,-3.9517,-3.9732,-3.9879,-4.0034,-4.0147,-4.0378,-4.0608,-4.0427,-4.0337,-4.0594,-4.0761,-4.0724,-4.0786,-4.0646,-4.0505,-4.0296,-2.691,-2.633,-2.5829,-2.5805,-2.5989,-2.574,-2.5252,-2.4437,-2.3386,-2.2666,-2.2257,-2.165,-2.1012,-2.0398,-1.968,-1.9211,-1.8489,-1.8069,-1.7543,-1.7014,-1.6577,-1.5992,-1.5405,-1.4911,-1.4456,-1.3888,-1.3611,-1.3233,-1.2384,-1.1657,-1.0623,-0.9286,-0.7882,-0.7241,-0.679,-0.648,-0.6345,-0.6491,-0.6659,-0.6907,-0.7598,-0.8299,-0.8878,-0.9448,-1.0107,-1.0838,-1.1616,-1.2254,-1.2755,-1.3142,-1.3897,-1.4759,-1.5427,-1.6729,-1.8317,-1.9862,-2.2242,-2.4621,-2.7315,-2.8737,-3.0211,-3.1211,-3.2453,-3.3308,-3.393,-3.4382,-3.4836,-3.5282,-3.5447,-3.5431,-3.5409,-3.5431,-3.536,-3.5244,-3.5365,-3.5588,-3.5852,-3.6188,-3.6449,-3.6968,-3.7387,-3.7959,-3.8504,-3.8711,-3.889,-3.922,-3.959,-3.9615,-3.955,-3.945,-3.9276,-3.8666,-3.8282,-3.8179,-3.8198,-3.8356,-3.8501,-3.873,-3.9017,-3.9265,-3.9445,-3.9661,-3.9788,-3.9747,-3.9625,-3.9603,-3.9692,-3.9763,-3.991,-3.999,-4.0043,-4.0104,-4.0196,-4.0086,-3.9839,-2.7125,-2.6096,-2.5667,-2.5732,-2.5908,-2.5774,-2.5308,-2.4654,-2.3453,-2.2757,-2.2434,-2.1542,-2.0979,-2.0635,-1.9512,-1.8876,-1.8478,-1.7872,-1.7265,-1.663,-1.6152,-1.5512,-1.5041,-1.4504,-1.4233,-1.3975,-1.3645,-1.3184,-1.2304,-1.1188,-0.9954,-0.8706,-0.7441,-0.6675,-0.6153,-0.5746,-0.5831,-0.6112,-0.6297,-0.6747,-0.7537,-0.8016,-0.8696,-0.9279,-0.983,-1.0522,-1.1236,-1.1865,-1.2265,-1.297,-1.4011,-1.4962,-1.6208,-1.7895,-1.9654,-2.192,-2.4777,-2.7047,-2.8837,-2.9831,-3.0877,-3.1928,-3.2975,-3.3774,-3.4331,-3.471,-3.4981,-3.512,-3.5227,-3.5233,-3.5186,-3.5282,-3.5354,-3.5354,-3.5474,-3.5667,-3.5835,-3.6098,-3.6263,-3.664,-3.7015,-3.7453,-3.7959,-3.8258,-3.8522,-3.8577,-3.8725,-3.853,-3.8504,-3.8449,-3.8193,-3.7715,-3.7487,-3.7518,-3.7634,-3.8005,-3.824,-3.8501,-3.887,-3.9119,-3.9265,-3.9349,-3.939,-3.9219,-3.8712,-3.8667,-3.9043,-3.91,-3.9048,-3.9159,-3.9521,-3.954,-3.9666,-3.9451,-3.9235,-2.6788,-2.6083,-2.5802,-2.5804,-2.5896,-2.5361,-2.4827,-2.4373,-2.3398,-2.2808,-2.2427,-2.1781,-2.1097,-2.0362,-1.9374,-1.8695,-1.8063,-1.7383,-1.6868,-1.6258,-1.5684,-1.5148,-1.4719,-1.4342,-1.418,-1.404,-1.3784,-1.3205,-1.1853,-1.0676,-0.9548,-0.8336,-0.7235,-0.6448,-0.5806,-0.5202,-0.5536,-0.5873,-0.6009,-0.6655,-0.733,-0.782,-0.8564,-0.9165,-0.9679,-1.0381,-1.1179,-1.1698,-1.2178,-1.2991,-1.3572,-1.4617,-1.6988,-1.934,-2.1651,-2.4717,-2.676,-2.8261,-2.9283,-3.0497,-3.1539,-3.2352,-3.3289,-3.4185,-3.4601,-3.473,-3.4864,-3.5014,-3.4993,-3.4969,-3.509,-3.5187,-3.5187,-3.5235,-3.5332,-3.5476,-3.5668,-3.586,-3.6098,-3.6593,-3.6922,-3.7155,-3.7618,-3.7893,-3.8088,-3.797,-3.7882,-3.772,-3.76,-3.7621,-3.7519,-3.7086,-3.7017,-3.7201,-3.7471,-3.7777,-3.8014,-3.8277,-3.8649,-3.8943,-3.9053,-3.9079,-3.902,-3.8762,-3.8302,-3.8347,-3.8646,-3.8627,-3.859,-3.8883,-3.9211,-3.9133,-3.9053,-3.887,-3.876,-2.6841,-2.6278,-2.5971,-2.5853,-2.5684,-2.5119,-2.4629,-2.4256,-2.3416,-2.2823,-2.2481,-2.1739,-2.1056,-2.0317,-1.9401,-1.8605,-1.7996,-1.7326,-1.6662,-1.5832,-1.5321,-1.4826,-1.4504,-1.4299,-1.418,-1.4126,-1.3912,-1.3383,-1.1948,-1.0331,-0.908,-0.8187,-0.7135,-0.6415,-0.5776,-0.5293,-0.5355,-0.5681,-0.6003,-0.6549,-0.7176,-0.7794,-0.8474,-0.9223,-0.9729,-1.0432,-1.1303,-1.1774,-1.2515,-1.331,-1.3865,-1.551,-1.8177,-2.0997,-2.391,-2.6663,-2.8,-2.9114,-3.0087,-3.0919,-3.1733,-3.2488,-3.3356,-3.3933,-3.4389,-3.4606,-3.4824,-3.5065,-3.4824,-3.4726,-3.4872,-3.5042,-3.5042,-3.5042,-3.5138,-3.5211,-3.5428,-3.5572,-3.6026,-3.6593,-3.6875,-3.7062,-3.7294,-3.7572,-3.7691,-3.7524,-3.7414,-3.7327,-3.7211,-3.7112,-3.7123,-3.6872,-3.6917,-3.7007,-3.7317,-3.7663,-3.7967,-3.8202,-3.8464,-3.8723,-3.8841,-3.8661,-3.8484,-3.8197,-3.7898,-3.7933,-3.8023,-3.8264,-3.8316,-3.8604,-3.8664,-3.8538,-3.8427,-3.8389,-3.8277,-2.7043,-2.6572,-2.6223,-2.5862,-2.5469,-2.4989,-2.4629,-2.4256,-2.336,-2.2837,-2.2425,-2.1631,-2.0998,-2.0357,-1.9387,-1.8613,-1.7974,-1.73,-1.6446,-1.5505,-1.5067,-1.4678,-1.4364,-1.4137,-1.4137,-1.4137,-1.3944,-1.3307,-1.2319,-1.0768,-0.9183,-0.8045,-0.7434,-0.6613,-0.5693,-0.5375,-0.542,-0.5694,-0.5913,-0.6323,-0.7432,-0.8014,-0.8405,-0.9331,-0.9893,-1.0439,-1.1361,-1.2205,-1.31,-1.4138,-1.5052,-1.6536,-2.0265,-2.3096,-2.608,-2.7697,-2.8969,-2.9893,-3.0685,-3.1452,-3.2141,-3.2767,-3.3291,-3.3692,-3.4049,-3.4388,-3.4678,-3.4799,-3.458,-3.458,-3.4677,-3.4943,-3.5015,-3.5016,-3.5016,-3.5211,-3.5476,-3.5764,-3.6168,-3.664,-3.6756,-3.6968,-3.7015,-3.7268,-3.7091,-3.7,-3.6875,-3.6821,-3.6619,-3.6495,-3.6687,-3.6658,-3.6906,-3.7046,-3.7394,-3.7701,-3.7967,-3.8231,-3.8456,-3.8604,-3.876,-3.8368,-3.789,-3.7771,-3.7712,-3.7334,-3.7287,-3.7703,-3.8033,-3.7952,-3.7999,-3.7834,-3.7787,-3.7825,-3.7997,-2.6899,-2.6573,-2.6481,-2.6155,-2.5609,-2.502,-2.4518,-2.3977,-2.3304,-2.2683,-2.2157,-2.1517,-2.0916,-2.0359,-1.9423,-1.8629,-1.7948,-1.7247,-1.6318,-1.547,-1.491,-1.457,-1.4213,-1.3975,-1.3975,-1.3975,-1.3685,-1.3136,-1.2138,-1.0713,-0.9446,-0.835,-0.769,-0.6816,-0.5787,-0.5531,-0.5531,-0.5777,-0.5886,-0.6355,-0.7453,-0.8022,-0.8504,-0.9262,-0.9816,-1.0868,-1.1832,-1.2839,-1.4032,-1.5165,-1.4944,-1.8187,-2.37,-2.6022,-2.7633,-2.8795,-2.9772,-3.0511,-3.1177,-3.1788,-3.244,-3.2864,-3.3305,-3.356,-3.3819,-3.4113,-3.431,-3.4359,-3.4408,-3.4433,-3.4577,-3.4841,-3.5033,-3.5011,-3.4989,-3.526,-3.5573,-3.5955,-3.6358,-3.6546,-3.6662,-3.6803,-3.6875,-3.6739,-3.6565,-3.6361,-3.6178,-3.5966,-3.5759,-3.5667,-3.6293,-3.6445,-3.685,-3.7095,-3.7471,-3.7739,-3.7967,-3.8194,-3.8381,-3.8501,-3.8612,-3.8311,-3.7978,-3.7758,-3.7605,-3.7367,-3.7332,-3.7651,-3.7792,-3.7725,-3.7604,-3.7567,-3.7433,-3.7404,-3.7717,-2.6736,-2.6591,-2.6427,-2.619,-2.5806,-2.4962,-2.4406,-2.4033,-2.336,-2.2683,-2.2044,-2.146,-2.0945,-2.0385,-1.9516,-1.8555,-1.7906,-1.722,-1.6219,-1.5343,-1.4801,-1.4483,-1.4114,-1.3867,-1.3867,-1.3802,-1.3505,-1.2939,-1.203,-1.1438,-1.0484,-0.9009,-0.8113,-0.7291,-0.6283,-0.5873,-0.567,-0.5817,-0.5847,-0.6468,-0.7374,-0.785,-0.8536,-0.9262,-1.0346,-1.1426,-1.277,-1.3844,-1.5299,-1.6916,-1.7696,-2.1437,-2.5647,-2.7481,-2.8467,-2.9412,-3.0218,-3.0869,-3.1455,-3.1993,-3.2581,-3.2973,-3.3241,-3.3496,-3.3519,-3.3767,-3.3965,-3.4064,-3.4211,-3.4261,-3.4641,-3.4952,-3.5075,-3.5127,-3.5105,-3.528,-3.5648,-3.6026,-3.631,-3.6452,-3.664,-3.6875,-3.6773,-3.6375,-3.6177,-3.5795,-3.5569,-3.5513,-3.522,-3.5208,-3.5737,-3.6218,-3.6654,-3.7095,-3.751,-3.7777,-3.7967,-3.8156,-3.8277,-3.8214,-3.8142,-3.8194,-3.8084,-3.777,-3.7623,-3.7643,-3.7688,-3.7748,-3.7729,-3.7634,-3.7539,-3.7433,-3.7278,-3.7084,-3.7394,-2.6591,-2.6482,-2.619,-2.6008,-2.5844,-2.4923,-2.4423,-2.4217,-2.34,-2.2724,-2.223,-2.1531,-2.1002,-2.0429,-1.9795,-1.8698,-1.7893,-1.7395,-1.6329,-1.5389,-1.4799,-1.4437,-1.4123,-1.3834,-1.365,-1.3545,-1.3388,-1.2956,-1.2341,-1.1917,-1.1138,-0.9796,-0.8867,-0.8062,-0.6997,-0.6356,-0.6134,-0.5996,-0.6098,-0.6499,-0.7063,-0.763,-0.8515,-0.9646,-1.095,-1.2222,-1.3601,-1.5164,-1.6632,-1.8786,-2.0865,-2.4454,-2.6993,-2.8521,-2.9176,-2.9978,-3.0644,-3.1201,-3.1675,-3.2229,-3.2626,-3.2969,-3.3212,-3.3319,-3.3319,-3.3442,-3.3641,-3.379,-3.3988,-3.4252,-3.4631,-3.5038,-3.5138,-3.5123,-3.5125,-3.5129,-3.5551,-3.6026,-3.6216,-3.6358,-3.6593,-3.6828,-3.665,-3.6252,-3.5862,-3.5456,-3.5244,-3.5146,-3.5092,-3.5289,-3.5616,-3.6058,-3.6457,-3.6968,-3.7433,-3.7701,-3.7853,-3.8043,-3.8098,-3.7891,-3.7791,-3.7936,-3.7891,-3.7568,-3.7506,-3.7633,-3.7634,-3.7606,-3.7558,-3.7586,-3.7394,-3.724,-3.7162,-3.7063,-3.7186,-2.6409,-2.619,-2.5898,-2.5624,-2.5331,-2.4889,-2.4573,-2.4256,-2.3416,-2.2909,-2.257,-2.166,-2.0917,-2.0385,-1.9924,-1.9034,-1.7952,-1.7475,-1.6646,-1.5656,-1.4961,-1.4487,-1.4064,-1.3593,-1.3271,-1.3166,-1.317,-1.31,-1.2583,-1.2264,-1.1535,-1.0155,-0.9328,-0.8376,-0.7123,-0.6614,-0.6359,-0.6206,-0.6315,-0.6662,-0.7254,-0.7883,-0.8515,-0.9712,-1.1115,-1.2551,-1.4159,-1.6165,-1.7935,-2.0271,-2.3215,-2.6201,-2.807,-2.9267,-2.9857,-3.0429,-3.1093,-3.1693,-3.2226,-3.2535,-3.2951,-3.3244,-3.3419,-3.3269,-3.3292,-3.3292,-3.3492,-3.3542,-3.3761,-3.4193,-3.4621,-3.5145,-3.5341,-3.502,-3.4906,-3.489,-3.5114,-3.5644,-3.6073,-3.6263,-3.6452,-3.664,-3.673,-3.6354,-3.5973,-3.5686,-3.5484,-3.5365,-3.5122,-3.5303,-3.5534,-3.5938,-3.6365,-3.6772,-3.7211,-3.7471,-3.7663,-3.7853,-3.7938,-3.7803,-3.7745,-3.7861,-3.7757,-3.75,-3.7491,-3.7615,-3.7558,-3.751,-3.7433,-3.7404,-3.7173,-3.7056,-3.6978,-3.6985,-3.7023]},{"header":{"parameterUnit":"m.s-1","parameterCategory":1,"la1":31.0,"la2":29.5877,"lo1":-88.7671,"lo2":-86.6584,"dy":0.0162,"dx":0.0185,"nx":115,"ny":88,"refTime":"2026-04-14T00:00:00:Z","depth":0,"parameterNumber":3,"parameterNumberName":"V-component_of_WINDS"},"data":[0.0,0.0,0.0,0.0,0.0,0.0,0.0,0.0,0.0,0.0,0.0,0.0,0.0,0.0,0.0,0.0,0.0,0.0,0.0,0.0,0.0,0.0,0.0,0.0,0.0,0.0,0.0,0.0,0.0,0.0,0.0,0.0,0.0,0.0,0.0,0.0,0.0,0.0,0.0,0.0,0.0,0.0,0.0,0.0,0.0,0.0,0.0,0.0,0.0,0.0,0.0,0.0,0.0,0.0,0.0,0.0,0.0,0.0,0.0,0.0,0.0,0.0,0.0,0.0,0.0,0.0,0.0,0.0,0.0,0.0,0.0,0.0,0.0,0.0,0.0,0.0,0.0,0.0,0.0,0.0,0.0,0.0,0.0,0.0,0.0,0.0,0.0,0.0,0.0,0.0,0.0,0.0,0.0,0.0,0.0,0.0,0.0,0.0,0.0,0.0,0.0,0.0,0.0,0.0,0.0,0.0,0.0,0.0,0.0,0.0,0.0,0.0,0.0,0.0,0.0,0.0,0.0,0.0,0.0,0.0,0.0,0.0,0.0,0.0,0.0,0.0,0.0,0.0,0.0,0.0,0.0,0.0,0.0,0.0,0.0,0.0,0.0,0.0,0.0,0.0,0.0,0.0,0.0,0.0,0.0,0.0,0.0,0.0,0.0,0.0,0.0,0.0,0.0,0.0,0.0,0.0,0.0,0.0,0.0,0.0,0.0,0.0,0.0,0.0,0.0,0.0,0.0,0.0,0.0,0.0,0.0,0.0,0.0,0.0,0.0,0.0,0.0,0.0,0.0,0.0,0.0,0.0,0.0,0.0,0.0,0.0,0.0,0.0,0.0,0.0,0.0,0.0,0.0,0.0,0.0,0.0,0.0,0.0,0.0,0.0,0.0,0.0,0.0,0.0,0.0,0.0,0.0,0.0,0.0,0.0,0.0,0.0,0.0,0.0,0.0,0.0,0.0,0.0,0.0,0.0,0.0,0.0,0.0,0.0,0.0,0.0,0.0,0.0,0.0,0.0,0.0,0.0,0.0,0.0,0.0,0.0,0.0,0.0,0.0,0.0,0.0,0.0,0.0,0.0,0.0,0.0,0.0,0.0,0.0,0.0,0.0,0.0,0.0,0.0,0.0,0.0,0.0,0.0,0.0,0.0,0.0,0.0,0.0,0.0,0.0,0.0,0.0,0.0,0.0,0.0,0.0,0.0,0.0,0.0,0.0,0.0,0.0,0.0,0.0,0.0,0.0,0.0,0.0,0.0,0.0,0.0,0.0,0.0,0.0,0.0,0.0,0.0,0.0,0.0,0.0,0.0,0.0,0.0,0.0,0.0,0.0,0.0,0.0,0.0,0.0,0.0,0.0,0.0,0.0,0.0,0.0,0.0,0.0,0.0,0.0,0.0,0.0,0.0,0.0,0.0,0.0,0.0,0.0,0.0,0.0,0.0,0.0,0.0,0.0,0.0,0.0,0.0,0.0,0.0,0.0,0.0,0.0,0.0,0.0,0.0,0.0,0.0,0.0,0.0,0.0,0.0,0.0,0.0,0.0,0.0,0.0,0.0,0.0,0.0,0.0,0.0,0.0,0.0,0.0,0.0,0.0,0.0,0.0,0.0,0.0,0.0,0.0,0.0,0.0,0.0,0.0,0.0,0.0,0.0,0.0,0.0,0.0,0.0,0.0,0.0,0.0,0.0,0.0,0.0,0.0,0.0,0.0,0.0,0.0,0.0,0.0,0.0,0.0,0.0,0.0,0.0,0.0,0.0,0.0,0.0,0.0,0.0,0.0,0.0,0.0,0.0,0.0,0.0,0.0,0.0,0.0,0.0,0.0,0.0,0.0,0.0,0.0,0.0,0.0,0.0,0.0,0.0,0.0,0.0,0.0,0.0,0.0,0.0,0.0,0.0,0.0,0.0,0.0,0.0,0.0,0.0,0.0,0.0,0.0,0.0,0.0,0.0,0.0,0.0,0.0,0.0,0.0,0.0,0.0,0.0,0.0,0.0,0.0,0.0,0.0,0.0,0.0,0.0,0.0,0.0,0.0,0.0,0.0,0.0,0.0,0.0,0.0,0.0,0.0,0.0,0.0,0.0,0.0,0.0,0.0,0.0,0.0,0.0,0.0,0.0,0.0,0.0,0.0,0.0,0.0,0.0,0.0,0.0,0.0,0.0,0.0,0.0,0.0,0.0,0.0,0.0,0.0,0.0,0.0,0.0,0.0,0.0,0.0,0.0,0.0,0.0,0.0,0.0,0.0,0.0,0.0,0.0,0.0,0.0,0.0,0.0,0.0,0.0,0.0,0.0,0.0,0.0,0.0,0.0,0.0,0.0,0.0,0.0,0.0,0.0,0.0,0.0,0.0,0.0,0.0,0.0,0.0,0.0,0.0,0.0,0.0,0.0,0.0,0.0,0.0,0.0,0.0,0.0,0.0,0.0,0.0,0.0,0.0,0.0,0.0,0.0,0.0,0.0,0.0,0.0,0.0,0.0,0.0,0.0,0.0,0.0,0.0,0.0,0.0,0.0,0.0,0.0,0.0,0.0,0.0,0.0,0.0,0.0,0.0,0.0,0.0,0.0,0.0,0.0,0.0,0.0,0.0,0.0,0.0,0.0,0.0,0.0,0.0,0.0,0.0,0.0,0.0,0.0,0.0,0.0,0.0,0.0,0.0,0.0,0.0,0.0,0.0,0.0,0.0,0.0,0.0,0.0,0.0,0.0,0.0,0.0,0.0,0.0,0.0,0.0,0.0,0.0,0.0,0.0,0.0,0.0,0.0,0.0,0.0,0.0,0.0,0.0,0.0,0.0,0.0,0.0,0.0,0.0,0.0,0.0,0.0,0.0,0.0,0.0,0.0,0.0,0.0,0.0,0.0,0.0,0.0,0.0,0.0,0.0,0.0,0.0,0.0,0.0,0.0,0.0,0.0,0.0,0.0,0.0,0.0,0.0,0.0,0.0,0.0,0.0,0.0,0.0,0.0,0.0,0.0,0.0,0.0,0.0,0.0,0.0,0.0,0.0,0.0,0.0,0.0,0.0,0.0,0.0,0.0,0.0,0.0,0.0,0.0,0.0,0.0,0.0,0.0,0.0,0.0,0.0,0.0,0.0,0.0,0.0,0.0,0.0,0.0,0.0,0.0,0.0,0.0,0.0,0.0,0.0,0.0,0.0,0.0,0.0,0.0,0.0,0.0,0.0,0.0,0.0,0.0,0.0,0.0,0.0,0.0,0.0,0.0,0.0,0.0,0.0,0.0,0.0,0.0,0.0,0.0,0.0,0.0,0.0,0.0,0.0,0.0,0.0,0.0,0.0,0.0,0.0,0.0,0.0,0.0,0.0,0.0,0.0,0.0,0.0,0.0,0.0,0.0,0.0,0.0,0.0,0.0,0.0,0.0,0.0,0.0,0.0,0.0,0.0,0.0,0.0,0.0,0.0,0.0,0.0,0.0,0.0,0.0,0.0,0.0,0.0,0.0,0.0,0.0,0.0,0.0,0.0,0.0,0.0,0.0,0.0,0.0,0.0,0.0,0.0,0.0,0.0,0.0,0.0,0.0,0.0,0.0,0.0,0.0,0.0,0.0,0.0,0.0,0.0,0.0,0.0,0.0,0.0,0.0,0.0,0.0,0.0,0.0,0.0,0.0,0.0,0.0,0.0,0.0,0.0,0.0,0.0,0.0,0.0,0.0,0.0,0.0,0.0,0.0,0.0,0.0,0.0,0.0,0.0,0.0,0.0,0.0,0.0,0.0,0.0,0.0,0.0,0.0,0.0,0.0,0.0,0.0,0.0,0.0,0.0,0.0,0.0,0.0,0.0,0.0,0.0,0.0,0.0,0.0,0.0,0.0,0.0,0.0,0.0,0.0,0.0,0.0,0.0,0.0,0.0,0.0,0.0,0.0,0.0,0.0,0.0,0.0,0.0,0.0,0.0,0.0,0.0,0.0,0.0,0.0,0.0,0.0,0.0,0.0,0.0,0.0,0.0,0.0,0.0,0.0,0.0,0.0,0.0,0.0,0.0,0.0,0.0,0.0,0.0,0.0,0.0,0.0,0.0,0.0,0.0,0.0,0.0,0.0,0.0,0.0,0.0,0.0,0.0,0.0,0.0,0.0,0.0,0.0,0.0,0.0,0.0,0.0,0.0,0.0,0.0,0.0,0.0,0.0,0.0,0.0,0.0,0.0,0.0,0.0,0.0,0.0,0.0,0.0,0.0,0.0,0.0,0.0,0.0,0.0,0.0,0.0,0.0,0.0,0.0,0.0,0.0,0.0,0.0,-0.178,0.0,0.0,0.0,0.0,0.0,0.0,0.0,0.0,0.0,0.0,0.0,0.0,0.0,0.0,0.0,0.0,0.0,0.0,0.0,0.0,0.0,0.0,0.0,0.0,0.0,0.0,0.0,0.0,0.0,0.0,0.0,0.0,0.0,0.0,0.0,0.0,0.0,0.0,0.0,0.0,0.0,0.0,0.0,0.0,0.0,0.0,0.0,0.0,0.0,0.0,0.0,0.0,0.0,0.0,0.0,0.0,0.0,0.0,0.0,0.0,0.0,0.0,0.0,0.0,0.0,0.0,0.0,0.0,0.0,0.0,0.0,0.0,0.0,0.0,0.0,0.0,0.0,0.0,0.0,0.0,0.0,0.0,0.0,0.0,0.0,0.0,0.0,0.0,0.0,0.0,0.0,0.0,0.0,0.0,0.0,0.0,0.0,0.0,0.0,0.0,0.0,0.0,0.0,0.0,0.0,0.0,0.0,0.0,0.0,0.0,-0.4684,-0.408,-0.3594,-0.2706,-0.1357,0.0,0.0,0.0,0.0,0.0,0.0,0.0,0.0,0.0,0.0,0.0,0.0,0.0,0.0,0.0,0.0,0.0,0.0,0.0,0.0,0.0,0.0,0.0,0.0,0.0,0.0,0.0,0.0,0.0,0.0,0.0,0.0,0.0,0.0,0.0,0.0,0.0,0.0,0.0,0.0,0.0,0.0,0.0,0.0,0.0,0.0,0.0,0.0,0.0,0.0,0.0,0.0,0.0,0.0,0.0,0.0,0.0,0.0,0.0,0.0,0.0,0.0,0.0,0.0,0.0,0.0,0.0,0.0,0.0,0.0,0.0,0.0,0.0,0.0,0.0,0.0,0.0,0.0,0.0,0.0,0.0,0.0,0.0,0.0,0.0,0.0,0.0,0.0,0.0,0.0,0.0,0.0,0.0,0.0,0.0,0.0,0.0,0.0,0.0,0.0,0.0,0.0,0.0,0.0,0.0,0.0,0.0,0.0,0.0,0.0,0.0,0.0,-0.2571,-0.1578,0.0234,0.0,0.0,0.0,0.0,0.0,0.0,0.0,0.0,0.0,0.0,0.0,0.0,0.0,0.0,0.0,0.0,0.0,0.0,0.0,0.0,0.0,0.0,0.0,0.0,0.0,0.0,0.0,0.0,0.0,0.0,0.0,0.0,0.0,0.0,0.0,0.0,0.0,0.0,0.0,0.0,0.0,0.0,0.0,0.0,0.0,0.0,0.0,0.0,0.0,0.0,0.0,0.0,0.0,0.0,0.0,0.0,0.0,0.0,0.0,0.0,0.0,0.0,0.0,0.0,0.0,0.0,0.0,0.0,0.0,0.0,0.0,0.0,0.0,0.0,0.0,0.0,0.0,0.0,0.0,0.0,0.0,0.0,0.0,0.0,0.0,0.0,0.0,0.0,0.0,0.0,0.0,0.0,0.0,0.0,0.0,0.0,0.0,0.0,0.0,0.0,0.0,0.0,0.0,0.0,0.0,0.0,0.0,0.0,0.0,0.0,-0.2864,0.0705,0.1109,0.0,0.4379,0.0,0.0,0.0,0.0,0.0,0.0,0.0,0.0,0.0,0.0,0.0,0.0,0.0,0.0,0.0,0.0,0.0,0.0,0.0,0.0,0.0,0.0,0.0,0.0,0.0,0.0,0.0,0.0,0.0,0.0,0.0,0.0,0.0,0.0,0.0,0.0,0.0,0.0,0.0,0.0,0.0,0.0,0.0,0.0,0.0,0.0,0.0,0.0,0.0,0.0,0.0,0.0,0.0,0.0,0.0,0.0,0.0,0.0,0.0,0.0,0.0,0.0,0.0,0.0,0.0,0.0,0.0,0.0,0.0,0.0,0.0,0.0,0.0,0.0,0.0,0.0,0.0,0.0,0.0,0.0,0.0,0.0,0.0,0.0,0.0,0.0,0.0,0.0,0.0,0.0,0.0,0.0,0.0,0.0,0.0,0.0,0.0,0.0,0.0,0.0,0.0,0.0,0.0,0.0,0.0,0.0,0.0,0.0,0.0,0.0,-0.079,0.1093,0.2599,0.3956,0.0,0.0,0.0,0.0,0.0,0.0,0.0,0.0,0.0,0.0,0.0,0.0,0.0,0.0,0.0,0.0,0.0,0.0,0.0,0.0,0.0,0.0,0.0,0.0,0.0,0.0,0.0,0.0,0.0,0.0,0.0,0.0,0.0,0.0,0.0,0.0,0.0,0.0,0.0,0.0,0.0,0.0,0.0,0.0,0.0,0.0,0.0,0.0,0.0,0.0,0.0,0.0,0.0,0.0,0.0,0.0,0.0,0.0,0.0,0.0,0.0,0.0,0.0,0.0,0.0,0.0,0.0,0.0,0.0,0.0,0.0,0.0,0.0,0.0,0.0,0.0,0.0,0.0,0.0,0.0,0.0,0.0,0.0,0.0,0.0,0.0,0.0,0.0,0.0,0.0,0.0,0.0,0.0,0.0,0.0,0.0,0.0,0.0,0.0,0.0,0.0,0.0,0.0,0.0,0.0,0.0,0.0,0.0,0.0,0.0,-0.0554,0.1042,0.2569,0.4372,0.5352,0.5307,0.0,0.0,0.0,0.0,0.0,0.0,0.0,0.0,0.0,0.0,0.0,0.0,0.0,0.0,0.0,0.0,0.0,0.0,0.0,0.0,0.0,0.0,0.0,0.0,0.0,0.0,0.0,0.0,0.0,0.0,0.0,0.0,0.0,0.0,0.0,0.0,0.0,0.0,0.0,0.0,0.0,0.0,0.0,0.0,0.0,0.0,0.0,0.0,0.0,0.0,0.0,0.0,0.0,0.0,0.0,0.0,0.0,0.0,0.0,0.0,0.0,0.0,0.0,0.0,0.0,0.0,0.0,0.0,0.0,0.0,0.0,0.0,0.0,0.0,0.0,0.0,0.0,0.0,0.0,0.0,0.0,0.0,0.0,0.0,0.0,0.0,0.0,0.0,0.0,0.0,0.0,0.0,0.0,0.0,0.0,0.0,0.0,0.0,0.0,0.0,0.0,0.0,0.0,0.0,0.0,0.0,0.0,0.0,0.0,0.2192,0.2565,0.6402,0.7118,0.6887,0.0,0.0,0.0,0.0,0.0,0.0,0.0,0.0,0.0,0.0,0.0,0.0,0.0,0.0,0.0,0.0,0.0,0.0,0.0,0.0,0.0,0.0,0.0,0.0,0.0,0.0,0.0,0.0,0.0,0.0,0.0,0.0,0.0,0.0,0.0,0.0,0.0,0.0,0.0,0.0,0.0,0.0,0.0,0.0,0.0,0.0,0.0,0.0,0.0,0.0,0.0,0.0,0.0,0.0,0.0,0.0,0.0,0.0,0.0,0.0,0.0,0.0,0.0,0.0,0.0,0.0,0.0,0.0,0.0,0.0,0.0,0.0,0.0,0.0,0.0,0.0,0.0,0.0,0.0,0.0,0.0,0.0,0.0,0.0,0.0,0.0,0.0,0.0,0.0,0.0,0.0,0.0,0.0,0.0,0.0,0.0,0.0,0.0,0.0,0.0,0.0,0.0,0.0,0.0,0.0,0.0,0.0,0.0,0.0,-0.0606,0.1051,0.4496,0.9584,0.7647,0.6904,0.0,0.0,0.0,0.0,0.0,0.0,0.0,0.0,0.0,0.0,0.0,0.0,0.0,0.0,0.0,0.0,0.0,0.0,0.0,0.0,0.0,0.0,0.0,0.0,0.0,0.0,0.0,0.0,0.0,0.0,0.0,0.0,0.0,0.0,0.0,0.0,0.0,0.0,0.0,0.0,0.0,0.0,0.0,0.0,0.0,0.0,0.0,0.0,0.0,0.0,0.0,0.0,0.0,0.0,0.0,0.0,0.0,0.0,0.0,0.0,0.0,0.0,0.0,0.0,0.0,0.0,0.0,0.0,0.0,0.0,0.0,0.0,0.0,0.0,0.0,0.0,0.0,0.0,0.0,0.0,0.0,0.0,0.0,0.0,0.0,0.0,0.0,0.0,0.0,0.0,0.0,0.0,0.0,0.0,0.0,0.0,0.0,0.0,0.0,0.0,0.0,0.0,0.0,0.0,0.0,0.0,0.0,0.0,0.0,-0.0867,0.0,0.7328,0.0,0.8214,0.6933,0.0,0.0,0.0,0.0,0.0,0.0,0.0,0.0,0.0,0.0,0.0,0.0,0.0,0.0,0.0,0.0,0.0,0.0,0.0,0.0,0.0,0.0,0.0,0.0,0.0,0.0,0.0,0.0,0.0,0.0,0.0,0.0,0.0,0.0,0.0,0.0,0.0,0.0,0.0,0.0,0.0,0.0,0.0,0.0,0.0,0.0,0.0,0.0,0.0,0.0,0.0,0.0,0.0,0.0,0.0,0.0,0.0,0.0,0.0,0.0,0.0,0.0,0.0,0.0,0.0,0.0,0.0,0.0,0.0,0.0,0.0,0.0,0.0,0.0,0.0,0.0,0.0,0.0,0.0,0.0,0.0,0.0,0.0,0.0,0.0,0.0,0.0,0.0,0.0,0.0,0.0,0.0,0.0,0.0,0.0,0.0,0.0,0.0,0.0,0.0,0.0,0.0,0.0,0.0,0.0,0.0,0.0,0.0,-0.1048,0.5451,0.9459,1.0646,0.9251,0.895,0.7086,0.0,0.0,0.0,0.0,0.0,0.0,0.0,0.0,0.0,0.0,0.0,0.0,0.0,0.0,0.0,0.0,0.0,0.0,0.0,0.0,0.0,0.0,0.0,0.0,0.0,0.0,0.0,0.0,0.0,0.0,0.0,0.0,0.0,0.0,0.0,0.0,0.0,0.0,0.0,0.0,0.0,0.0,0.0,0.0,0.0,0.0,0.0,0.0,0.0,0.0,0.0,0.0,0.0,0.0,0.0,0.0,0.0,0.0,0.0,0.0,0.0,0.0,0.0,0.0,0.0,0.0,0.0,0.0,0.0,0.0,0.0,0.0,0.0,0.0,0.0,0.0,0.0,0.0,0.0,0.0,0.0,0.0,0.0,0.0,0.0,0.0,0.0,0.0,0.0,0.0,0.0,0.0,0.0,0.0,0.0,0.0,0.0,0.0,0.0,0.0,0.0,0.0,0.0,0.0,0.0,0.0,0.0,0.0,0.0,0.4042,0.6585,0.9027,1.1224,0.8449,0.7386,0.0,0.0,0.0,0.0,0.0,0.0,0.0,0.0,0.0,0.0,0.0,0.0,0.0,0.0,0.0,0.0,0.0,0.0,0.0,0.0,0.0,0.0,0.0,0.0,0.0,0.0,0.0,0.0,0.0,0.0,0.0,0.0,0.0,0.0,0.0,0.0,0.0,0.0,0.0,0.0,0.0,0.0,0.0,0.0,0.0,0.0,0.0,0.0,0.0,0.0,0.0,0.0,0.0,0.0,0.0,0.0,0.0,0.0,0.0,0.0,0.0,0.0,0.0,0.0,0.0,0.0,0.0,0.0,0.0,0.0,0.0,0.0,0.0,0.0,0.0,0.0,0.0,0.0,0.0,0.0,0.0,0.0,0.0,0.0,0.0,0.0,0.0,0.0,0.0,0.0,0.0,0.0,0.0,0.0,0.0,0.0,0.0,0.0,0.0,0.0,0.0,0.0,0.0,0.0,0.0,0.0,0.0,0.0,0.0,0.641,0.8362,1.0456,1.2552,0.9793,0.8798,0.9718,0.0,0.0,0.0,0.0,0.0,0.0,0.0,0.0,0.0,0.0,0.0,0.0,0.0,0.0,0.0,0.0,0.0,0.0,0.0,0.0,0.0,0.0,0.0,0.0,0.0,0.0,0.0,0.0,0.0,0.0,0.0,0.0,0.0,0.0,0.0,0.0,0.0,0.0,0.0,0.0,0.0,0.0,0.0,0.0,0.0,0.0,0.0,0.0,0.0,0.0,0.0,0.0,0.0,0.0,0.0,0.0,0.0,0.0,0.0,0.0,0.0,0.0,0.0,0.0,0.0,0.0,0.0,0.0,0.0,0.0,0.0,0.0,0.0,0.0,0.0,0.0,0.0,0.0,0.0,0.0,0.0,0.0,0.0,0.0,0.0,0.0,0.0,0.0,0.0,0.0,0.0,0.0,0.0,0.0,0.0,0.0,0.0,0.0,0.0,0.0,0.0,0.0,0.0,0.0,0.0,0.0,0.0,0.0,1.1671,1.4002,1.4497,1.3165,1.266,1.1041,0.0,0.0,0.0,0.0,0.0,0.0,0.0,0.0,0.0,0.0,0.0,0.0,0.0,0.0,0.0,0.0,0.0,0.0,0.0,0.0,0.0,0.0,0.0,0.0,0.0,0.0,0.0,0.0,0.0,0.0,0.0,0.0,0.0,0.0,0.0,0.0,0.0,0.0,0.0,0.0,0.0,0.0,0.0,0.0,0.0,0.0,0.0,0.0,0.0,0.0,0.0,0.0,0.0,0.0,0.0,0.0,0.0,0.0,0.0,0.0,0.0,0.0,0.0,0.0,0.0,0.0,0.0,0.0,0.0,0.0,0.0,0.0,0.0,0.0,0.0,0.0,0.0,0.0,0.0,0.0,0.0,0.0,0.0,0.0,0.0,0.0,0.0,0.0,0.0,0.0,0.0,0.0,0.0,0.0,0.0,0.0,0.0,0.0,0.0,0.0,0.0,0.0,0.0,0.0,0.0,0.0,0.0,0.0,0.0,1.4031,1.5976,1.6881,1.6635,1.417,1.2417,0.0,0.0,0.0,0.0,0.0,0.0,0.0,0.0,0.0,0.0,0.0,0.0,0.0,0.0,0.0,0.0,0.0,0.0,0.0,0.0,0.0,0.0,0.0,0.0,0.0,0.0,0.0,0.0,0.0,0.0,0.0,0.0,0.0,0.0,0.0,0.0,0.0,0.0,0.0,0.0,0.0,0.0,0.0,0.0,0.0,0.0,0.0,0.0,0.0,0.0,0.0,0.0,0.0,0.0,0.0,0.0,0.0,0.0,0.0,0.0,0.0,0.0,0.0,0.0,0.0,0.0,0.0,0.0,0.0,0.0,0.0,0.0,0.0,0.0,0.0,0.0,0.0,0.0,0.0,0.0,0.0,0.0,0.0,0.0,0.0,0.0,0.0,0.0,0.0,0.0,0.0,0.0,0.0,0.0,0.0,0.0,0.0,0.0,0.0,0.0,0.0,0.0,0.0,0.0,0.0,0.0,0.0,0.0,1.2848,1.5866,1.7766,1.8813,1.8971,1.6651,1.4694,0.0,0.0,0.0,0.0,0.0,0.0,0.0,0.0,0.0,0.0,0.0,0.0,0.0,0.0,0.0,0.0,0.0,0.0,0.0,0.0,0.0,0.0,0.0,0.0,0.0,0.0,0.0,0.0,0.0,0.0,0.0,0.0,0.0,0.0,0.0,0.0,0.0,0.0,0.0,0.0,0.0,0.0,0.0,0.0,0.0,0.0,0.0,0.0,0.0,0.0,0.0,0.0,0.0,0.0,0.0,0.0,0.0,0.0,0.0,0.0,0.0,0.0,0.0,0.0,0.0,0.0,0.0,0.0,0.0,0.0,0.0,0.0,0.0,0.0,0.0,0.0,0.0,0.0,0.0,0.0,0.0,0.0,0.0,0.0,0.0,0.0,0.0,0.0,0.0,0.0,0.0,0.0,0.0,0.0,0.0,0.0,0.0,0.0,0.0,0.0,0.0,0.0,0.0,0.0,0.0,0.0,0.0,0.0,1.5404,1.7407,1.9415,2.0464,2.0417,1.9332,1.7187,0.0,0.0,0.0,0.0,0.0,0.0,0.0,0.0,0.0,0.0,0.0,0.0,0.0,0.0,0.0,0.0,0.0,0.0,0.0,0.0,0.0,0.0,0.0,0.0,0.0,0.0,0.0,0.0,0.0,0.0,0.0,0.0,0.0,0.0,0.0,0.0,0.0,0.0,0.0,0.0,0.0,0.0,0.0,0.0,0.0,0.0,0.0,0.0,0.0,0.0,0.0,0.0,0.0,0.0,0.0,0.0,0.0,0.0,0.0,0.0,0.0,0.0,0.0,0.0,0.0,0.0,0.0,0.0,0.0,0.0,0.0,0.0,0.0,0.0,0.0,0.0,0.0,0.0,0.0,0.0,0.0,0.0,0.0,0.0,0.0,0.0,0.0,0.0,0.0,0.0,0.0,0.0,0.0,0.0,0.0,0.0,0.0,0.0,0.0,0.0,0.0,0.0,0.0,0.0,0.0,0.0,0.0,0.0,1.7755,1.965,2.1333,2.203,2.1843,1.9751,1.7585,0.0,0.0,0.0,0.0,0.0,0.0,0.0,0.0,0.0,0.0,0.0,0.0,0.0,0.0,0.0,0.0,0.0,0.0,0.0,0.0,0.0,0.0,0.0,0.0,0.0,0.0,0.0,0.0,0.0,0.0,0.0,0.0,0.0,0.0,0.0,0.0,0.0,0.0,0.0,0.0,0.0,0.0,0.0,0.0,0.0,0.0,0.0,0.0,0.0893,0.0,0.0,0.0,0.0,0.0,0.0,0.0,0.0,0.0,0.0,0.0,0.0,0.0,0.0,0.0,0.0,0.0,0.0,0.0,0.0,0.0,0.0,0.0,0.0,0.0,0.0,0.0,0.0,0.0,0.0,0.0,0.0,0.0,0.0,0.0,0.0,0.0,0.0,0.0,0.0,0.0,0.0,0.0,0.0,0.0,0.0,0.0,0.0,0.0,0.0,0.0,0.0,0.0,0.0,0.0,0.0,0.0,0.0,0.0,1.9198,2.0844,2.2057,2.2602,2.2483,2.0793,1.8791,0.0,0.0,0.0,0.0,0.0,0.0,0.0,0.0,0.0,0.0,0.0,0.0,0.0,0.0,0.0,0.0,0.0,0.0,0.0,0.0,0.0,0.0,0.0,0.0,0.0,0.0,0.0,0.0,0.0,0.0,0.0,0.0,0.0,0.0,0.0,0.0,0.0,0.0,0.0,0.0,0.0,0.0,0.0,0.0,0.0,0.0,0.0,0.0,0.0,0.0,0.0,0.0,0.0,0.0,0.0,0.0,0.0,0.0,0.0,0.0,0.0,0.0,0.0,0.0,0.0,0.0,0.0,0.0,0.0,0.0,0.0,0.0,0.0,0.0,0.0,0.0,0.0,0.0,0.0,0.0,0.0,0.0,0.0,0.0,0.0,0.0,0.0,0.0,0.0,0.0,0.0,0.0,0.0,0.0,0.0,0.0,0.0,0.0,0.0,0.0,0.0,0.0,0.0,0.0,0.0,0.0,0.0,1.7655,2.0179,2.1676,2.255,2.2999,2.296,2.193,2.0095,1.7377,0.0,0.0,0.0,0.0,0.0,0.0,0.0,0.0,0.0,0.0,0.0,0.0,0.0,0.0,0.0,0.0,0.0,0.0,0.0,0.0,0.0,0.0,0.0,0.0,0.0,0.0,0.0,0.0,0.0,0.0,0.0,0.0,0.0,0.0,0.0,0.0,0.0,0.0,0.2932,0.3991,0.0,0.0,0.0,0.0,0.0,0.0,0.0,0.0,0.2019,0.0,0.0,0.0,0.0,0.0,0.0,0.0,0.0,0.0,0.0,0.0,0.0,0.0,0.0,0.0,0.0,0.0,0.0,0.0,0.0,0.0,0.0,0.0,0.0,0.0,0.0,0.0,0.0,0.0,0.0,0.0,0.0,0.0,0.0,0.0,0.0,0.0,0.0,0.0,0.0,0.0,0.0,0.0,0.0,0.0,0.0,0.0,0.0,0.0,0.0,0.0,0.0,0.0,0.0,0.0,0.0,1.7287,1.9111,2.0993,2.3105,2.4219,2.4384,2.3614,2.2405,2.0576,1.8197,0.0,0.0,0.0,0.0,0.0,0.0,0.0,0.0,0.0,0.0,0.0,0.0,0.0,0.0,0.0,0.0,0.0,0.0,0.0,0.0,0.0,0.0,0.0,0.0,0.0,0.0,0.0,0.0,0.0,0.0,0.0,0.0,0.0,0.0,0.0,0.0,0.0,0.0,0.0,0.3972,0.4519,0.0,0.0,0.0,0.0,0.0,0.0,0.0,0.0,0.2759,0.0,0.0,0.0,0.0,0.0,0.0,0.0,0.0,0.0,0.0,0.0,0.0,0.0,0.0,0.0,0.0,0.0,0.0,0.0,0.0,0.0,0.0,0.0,0.0,0.0,0.0,0.0,0.0,0.0,0.0,0.0,0.0,0.0,0.0,0.0,0.0,0.0,0.0,0.0,0.0,0.0,0.0,0.0,0.0,0.0,0.0,0.0,0.0,0.0,0.0,0.0,0.0,0.0,0.0,0.0,1.7641,2.0057,2.2092,2.3953,2.4423,2.4471,2.4054,2.1966,2.0197,0.0,0.0,0.0,0.0,0.0,0.0,0.0,0.0,0.0,0.0,0.0,0.0,0.0,0.0,0.0,0.0,0.0,0.0,0.0,0.0,0.0,0.0,0.0,0.0,0.0,0.0,0.0,0.0,0.0,0.0,0.0,0.0,0.0,0.0,0.0,0.0,0.0,0.0,0.0,0.0,0.3972,0.435,0.4558,0.0,0.0,0.0,0.0,0.0,0.0,0.2351,0.2924,0.0,0.0,0.0,0.0,0.0,0.0,0.0,0.0,0.0,0.0,0.0,0.0,0.0,0.0,0.0,0.0,0.0,0.0,0.0,0.0,0.0,0.0,0.0,0.0,0.0,0.0,0.0,0.0,0.0,0.0,0.0,0.0,0.0,0.0,0.0,0.0,0.0,0.0,0.0,0.0,0.0,0.0,0.0,0.0,0.0,0.0,0.0,0.0,0.0,0.0,0.0,0.0,0.0,0.0,0.0,1.7745,2.0741,2.3121,2.4808,2.4638,2.4525,2.4492,2.181,1.9849,0.0,0.0,0.0,0.0,0.0,0.0,0.0,0.0,0.0,0.0,0.0,0.0,0.0,0.0,0.0,0.0,0.0,0.0,0.0,0.0,0.0,0.0,0.0,0.0,0.0,0.0,0.0,0.0,0.0,0.0,0.0,0.0,0.0,0.0,0.0,0.0,0.0,0.0,0.0,0.0,0.0,0.4392,0.4466,0.4241,0.0,0.0,0.0,0.0,0.2013,0.2563,0.0,0.0,0.0,0.0,0.0,0.0,0.0,0.0,0.0,0.0,0.0,0.0,0.0,0.0,0.0,0.0,0.0,0.0,0.0,0.0,0.0,0.0,0.0,0.0,0.0,0.0,0.0,0.0,0.0,0.0,0.0,0.0,0.0,0.0,0.0,0.0,0.0,0.0,0.0,0.0,0.0,0.0,0.0,0.0,0.0,0.0,0.0,0.0,0.0,0.0,0.0,0.0,0.0,0.0,0.0,0.0,1.8201,2.0969,2.3656,2.6124,2.5994,2.5599,2.5096,2.2915,2.0367,0.0,0.0,0.0,0.0,0.0,0.0,0.0,0.0,0.0,0.0,0.0,0.0,0.0,0.0,0.0,0.0,0.0,0.0,0.0,0.0,0.0,0.0,0.0,0.0,0.0,0.0,0.0,0.0,0.0,0.0,0.0,0.0,0.0,0.0,0.0,0.0,0.0,0.0,0.0,0.0,0.0,0.4946,0.4779,0.4672,0.4355,0.0,0.0,0.2689,0.2543,0.2651,0.0,0.0,0.0,0.0,0.0,0.0,0.0,0.0,0.0,0.0,0.0,0.0,0.0,0.0,0.0,0.0,0.0,0.0,0.0,0.0,0.0,0.0,0.0,0.0,0.0,0.0,0.0,0.0,0.0,0.0,0.0,0.0,0.0,0.0,0.0,0.0,0.0,0.0,0.0,0.0,0.0,0.0,0.0,0.0,0.0,0.0,0.0,0.0,0.0,0.0,0.0,0.0,0.0,0.0,0.0,1.4251,1.9401,2.2013,2.4365,2.6519,2.624,2.5812,2.5337,2.2565,2.0064,0.0,0.0,0.0,0.0,0.0,0.0,0.0,0.0,0.0,0.0,0.0,0.0,0.0,0.0,0.0,0.0,0.0,0.0,0.0,0.0,0.0,0.0,0.0,0.0,0.0,0.0,0.0,0.0,0.0,0.0,0.0,0.0,0.0,0.0,0.0,0.0,0.0,0.0,0.0,0.0,0.0,0.0,0.467,0.446,0.0,0.0,0.0,0.2875,0.2594,0.0,0.0,0.0,0.0,0.0,0.0,0.0,0.0,0.0,0.0,0.0,0.0,0.0,0.0,0.0,0.0,0.0,0.0,0.0,0.0,0.0,0.0,0.0,0.0,0.0,0.0,0.0,0.0,0.0,0.0,0.0,0.0,0.0,0.0,0.0,0.0,0.0,0.0,0.0,0.0,0.0,0.0,0.0,0.0,0.0,0.0,0.0,0.0,0.0,0.0,0.0,0.0,0.0,0.0,0.0,0.0,0.0,2.0728,2.3393,2.5564,2.7245,2.678,2.6273,2.565,2.2735,0.0,0.0,0.0,0.0,0.0,0.0,0.0,0.0,0.0,0.0,0.0,0.0,0.0,0.0,0.0,0.0,0.0,0.0,0.0,0.0,0.0,0.0,0.0,0.0,0.0,0.0,0.0,0.7895,0.0,0.0,0.0,0.0,0.0,0.0,0.0,0.0,0.0,0.0,0.0,0.0,0.0,0.0,0.4886,0.5028,0.4656,0.4218,0.0,0.0,0.2952,0.2628,0.2733,0.2975,0.0,0.0,0.0,0.0,0.0,0.0,0.0,0.0,0.0,0.0,0.0,0.0,0.0,0.0,0.0,0.0,0.0,0.0,0.0,0.0,0.0,0.0,0.0,0.0,0.0,0.0,0.0,0.0,0.0,0.0,0.0,0.0,0.0,0.0,0.0,0.0,0.0,0.0,0.0,0.0,0.0,0.0,0.0,0.0,0.0,0.0,0.0,0.0,0.0,0.0,0.0,0.0,0.0,0.0,0.0,2.1868,2.517,2.7467,2.8862,2.8298,2.749,2.6518,2.428,2.1372,0.0,0.0,0.0,0.0,0.0,0.0,0.0,0.0,0.0,0.0,0.0,0.0,0.0,0.0,0.0,0.0,0.0,0.0,0.0,0.0,0.0,0.0,0.0,0.0,0.0,0.0,0.0,0.0,0.0,0.0,0.0,0.0,0.0,0.0,0.0,0.0,0.0,0.0,0.0,0.0,0.0,0.6449,0.6317,0.5741,0.5133,0.0,0.0,0.286,0.2794,0.2334,0.237,0.3559,0.0,0.0,0.0,0.0,0.0,0.0,0.0,0.0,0.0,0.0,0.0,0.0,0.0,0.0,0.0,0.0,0.0,0.0,0.0,0.0,0.0,0.0,0.0,0.0,0.0,0.0,0.0,0.0,0.0,0.0,0.0,0.0,0.0,0.0,0.0,0.0,0.0,0.0,0.0,0.0,0.0,0.0,0.0,0.0,0.0,0.0,0.0,0.0,0.0,0.0,0.0,0.0,0.0,1.6987,2.2439,2.4876,2.6966,2.8664,2.8273,2.7747,2.711,2.5352,2.3017,0.0,0.0,0.0,0.0,0.0,0.0,0.0,0.0,0.0,0.0,0.0,0.0,0.0,0.0,0.0,0.0,0.0,0.0,0.0,0.0,0.0,0.0,0.0,0.0,0.0,0.0,0.0,0.0,0.9352,0.9634,0.9751,0.0,0.0,0.0,0.0,0.0,0.0,0.0,0.0,0.0,0.0,0.6545,0.6647,0.5793,0.0,0.0,0.3911,0.3148,0.2373,0.2457,0.2654,0.2755,0.3171,0.0,0.0,0.0,0.0,0.0,0.0,0.0,0.0,0.0,0.0,0.0,0.0,0.0,0.0,0.0,0.0,0.0,0.0,0.0,0.0,0.0,0.0,0.0,0.0,0.0,0.0,0.0,0.0,0.0,0.0,0.0,0.0,0.0,0.0,0.0,0.0,0.0,0.0,0.0,0.0,0.0,0.0,0.0,0.0,0.0,0.0,0.0,0.0,0.0,0.0,0.0,0.0,1.7563,2.2879,2.5128,2.7097,2.8794,2.855,2.8239,2.7744,2.637,2.4546,0.0,0.0,0.0,0.0,0.0,0.0,0.0,0.0,0.0,0.0,0.0,0.0,0.0,0.0,0.0,0.0,0.0,0.0,0.0,0.0,0.0,0.0,0.0,0.0,0.0,0.0,0.0,0.0,1.0145,1.0206,1.0181,0.0,0.0,0.0,0.0,0.0,0.0,0.0,0.0,0.0,0.0,0.7233,0.7179,0.6224,0.5359,0.4919,0.4133,0.3313,0.2546,0.2654,0.2706,0.2522,0.0,0.0,0.0,0.0,0.0,0.0,0.0,0.0,0.0,0.0,0.0,0.0,0.0,0.0,0.0,0.0,0.0,0.0,0.0,0.0,0.0,0.0,0.0,0.0,0.0,0.0,0.0,1.2029,0.0,0.0,0.9555,0.0,0.0,0.0,0.0,0.0,0.0,0.0,0.0,0.0,0.0,0.0,0.0,0.0,0.0,0.0,0.0,0.0,0.0,0.0,0.0,0.0,0.0,1.871,2.3239,2.6382,2.8462,2.9329,2.9369,2.9131,2.8657,2.7424,2.5948,2.4147,0.0,0.0,0.0,0.0,0.0,0.0,0.0,0.0,0.0,0.0,0.0,0.0,0.0,0.0,0.0,0.0,0.0,0.0,0.0,0.0,0.0,0.0,0.0,0.0,0.0,0.0,1.0037,0.989,0.9902,0.0,0.0,0.0,0.0,0.0,0.0,0.0,0.0,0.0,0.0,0.9164,0.893,0.8107,0.7214,0.6488,0.6038,0.4327,0.3179,0.3552,0.2789,0.2409,0.0,0.0,0.0,0.0,0.0,0.0,0.0,0.0,0.0,0.0,0.0,0.0,0.0,0.0,0.0,0.0,0.0,0.0,0.0,0.0,0.0,0.0,0.0,0.0,0.0,0.0,0.0,1.5618,1.4699,0.0,0.0,0.0,0.0,0.0,0.0,0.0,0.0,0.0,0.0,0.0,2.5083,2.5507,0.0,0.0,0.0,0.0,0.0,0.0,0.0,0.0,0.0,0.0,0.0,0.0,1.9937,2.4359,2.6712,2.8565,2.9871,2.9675,2.9481,2.9433,2.9028,2.7533,2.48,0.0,0.0,0.0,0.0,0.0,0.0,0.0,0.0,0.0,0.0,0.0,0.0,0.0,0.0,0.0,0.0,0.0,0.0,0.0,0.0,0.0,0.0,0.0,0.0,0.0,1.143,0.0,0.0,0.0,0.0,0.0,0.0,0.0,0.0,0.0,0.0,0.0,1.0496,1.06,0.986,0.9284,0.9205,0.8135,0.712,0.0,0.0,0.0,0.0,0.0,0.0,0.0,0.0,0.0,0.0,0.0,0.0,0.0,0.0,1.1033,1.0813,1.0726,1.0723,1.0994,0.0,0.0,0.0,0.0,0.0,0.0,0.0,0.0,0.0,0.0,0.0,0.0,0.0,0.0,1.8609,0.0,1.7654,0.0,0.0,0.0,0.0,0.0,0.0,0.0,0.0,2.7624,2.9041,2.8617,2.8934,2.8454,0.0,2.5943,2.2596,0.0,0.0,0.0,0.0,0.0,0.0,0.0,0.0,2.1442,2.5356,2.7356,2.8885,2.997,2.9754,2.9535,2.9516,2.9695,2.8356,2.5409,2.3743,2.1679,0.0,0.0,0.0,0.0,0.0,0.0,0.0,0.0,0.0,0.0,0.0,0.0,0.0,0.0,0.0,0.0,0.0,0.0,0.0,0.0,0.0,0.0,0.0,1.2565,0.0,0.0,0.0,0.0,0.0,0.0,0.0,0.0,0.0,1.3234,1.2428,1.2011,1.2171,1.1039,1.0197,1.0094,0.0,0.0,0.0,0.0,0.0,0.0,0.0,0.3523,0.3262,0.3909,0.4716,0.5441,0.7396,0.9169,1.0036,0.0,0.0,1.1535,1.1529,1.1653,1.1991,1.2224,1.2405,1.249,1.2488,1.2504,0.0,0.0,0.0,0.0,0.0,0.0,0.0,0.0,2.1515,2.1411,0.0,2.0965,0.0,0.0,0.0,0.0,0.0,2.4759,0.0,0.0,3.1744,3.3178,3.2198,3.1968,3.1691,3.1395,3.1421,3.0018,2.7017,2.0332,0.0,0.0,0.0,0.0,0.0,0.0,2.3239,2.6231,2.8296,2.9497,2.9813,2.9639,2.9405,2.9101,2.9507,2.8565,2.6205,2.6275,2.4722,2.1099,1.845,0.0,0.0,0.0,0.0,0.0,0.0,0.0,0.0,0.0,0.0,0.0,0.0,0.0,0.0,0.0,0.0,0.0,0.0,0.0,0.0,1.3216,0.0,0.0,0.0,0.0,0.0,0.0,0.0,0.0,0.0,0.0,1.4579,1.4276,1.4143,1.3677,0.0,0.0,0.0,0.0,0.8387,0.7423,0.5914,0.4904,0.4964,0.4306,0.3878,0.4137,0.0,0.0,0.6434,0.8048,0.935,0.9789,1.0838,1.1784,1.2443,1.2592,1.2743,1.3037,1.3229,1.3407,1.3582,1.4131,1.4519,3.0114,0.0,0.0,0.0,0.0,2.536,2.5882,2.7354,2.6113,2.5211,2.4539,2.4761,0.0,0.0,0.0,0.0,0.0,0.0,2.8533,2.9913,3.1825,3.2667,3.272,3.3503,3.3691,3.3388,3.3427,3.2751,3.1393,2.8119,2.3844,1.8812,0.0,0.0,0.0,0.0,2.6024,2.7932,2.9522,3.0309,3.0297,3.0324,3.022,2.9936,2.9853,2.9433,2.8559,2.7905,2.6389,2.39,2.1224,0.0,0.0,0.0,0.0,0.0,0.0,0.0,0.0,0.0,0.0,0.0,0.0,0.0,0.0,0.0,0.0,0.0,0.0,0.0,1.3901,1.4651,1.5233,0.0,0.0,0.0,0.0,0.0,0.0,0.0,0.0,0.0,1.6902,1.5809,1.5004,0.0,0.0,1.2219,1.1599,1.0423,0.9369,0.8664,0.7091,0.0,0.516,0.4392,0.3959,0.424,0.4809,0.5741,0.7348,0.8397,0.9364,1.0322,1.107,1.1737,1.2413,1.3216,1.3679,1.3756,1.4066,1.4429,1.4625,1.4712,1.4709,3.3454,3.0618,2.9779,2.9294,2.8983,2.8017,2.8329,2.944,2.86,2.7915,2.7349,2.7859,2.712,2.5468,2.5716,0.0,0.0,0.0,3.0659,3.2135,3.2901,3.3405,3.3652,3.4427,3.4701,3.4474,3.4304,3.3931,3.3457,3.2146,2.8928,2.3958,0.0,0.0,2.3619,2.5979,2.8045,2.9671,3.0416,3.0731,3.0624,2.9833,2.9428,2.9409,2.9302,2.917,2.8872,2.8675,2.7692,2.5887,2.3517,2.0921,0.0,0.0,0.0,0.0,0.0,0.0,0.0,0.0,0.0,0.0,0.0,1.1689,1.0148,0.0,0.0,0.0,1.419,1.5299,1.6169,1.7445,0.0,0.0,0.0,0.0,0.0,0.0,0.0,2.0183,2.0497,2.0254,1.8919,1.7694,1.6545,1.57,1.4257,1.3158,1.2852,0.0,1.0263,0.9399,0.793,0.6597,0.5642,0.4787,0.4377,0.4683,0.5259,0.6079,0.7423,0.8398,0.9259,1.0,1.0798,1.1486,1.1864,1.3037,1.4015,1.3998,1.4408,1.483,1.5024,1.5031,1.4995,3.5904,3.455,3.2204,3.0876,3.029,3.0385,3.0053,2.9487,2.9455,2.9663,2.9997,3.0388,2.9954,2.8997,2.9093,0.0,3.1123,3.2173,3.3202,3.4196,3.4702,3.4839,3.4747,3.4958,3.5001,3.491,3.4454,3.4166,3.3892,3.3284,3.1913,2.9805,2.829,2.7674,2.7901,2.8497,2.9618,3.124,3.1101,3.0891,3.066,2.8637,2.7689,2.793,2.81,2.8051,2.7739,2.8614,2.8449,2.6957,2.5124,2.2859,2.0128,0.0,0.0,0.0,0.0,0.0,0.0,0.0,0.0,0.0,0.0,0.0,0.0,0.0,0.0,0.0,1.8327,0.0,1.9202,2.0947,0.0,0.0,0.0,2.1657,2.22,2.2897,2.3115,2.2628,0.0,0.0,2.0546,1.955,1.8592,1.7533,1.5704,1.4409,1.4263,1.2697,1.1135,0.9854,0.8549,0.7381,0.6342,0.5392,0.4958,0.5319,0.5792,0.634,0.7145,0.8189,0.892,0.9142,1.0226,1.1189,1.1058,1.2487,1.3696,1.4012,1.4455,1.4862,1.5057,1.5309,1.5378,3.5634,3.4844,3.3287,3.235,3.1804,3.1038,3.0842,3.0982,3.0278,3.0445,3.1344,3.1447,3.1847,3.2416,3.258,3.2978,3.3566,3.4006,3.4343,3.4706,3.5001,3.5061,3.4963,3.5327,3.5394,3.5126,3.4871,3.4585,3.4253,3.3491,3.2788,3.2243,3.1847,3.0561,2.8505,3.0414,3.1583,3.1749,3.1858,3.1156,2.969,2.8713,2.7949,2.7394,2.7328,2.7195,2.697,2.6888,2.6649,2.6059,2.4252,2.2869,2.2024,1.8025,0.0,0.0,0.0,0.0,0.0,0.0,0.0,0.0,0.0,1.8569,1.4353,0.0,2.0211,0.0,2.0688,2.167,2.1641,2.2511,0.0,0.0,2.3752,2.414,2.5195,2.5278,2.4764,2.3427,2.3341,2.2657,2.0632,1.9907,1.9402,1.8844,1.7197,1.5706,1.4642,1.3267,1.1934,1.0783,0.9353,0.7934,0.6852,0.5858,0.5293,0.5642,0.5944,0.6366,0.7059,0.8042,0.879,0.9085,1.0044,1.0895,1.1422,1.2199,1.3163,1.4283,1.4678,1.4866,1.537,1.5458,1.5499,3.5686,3.4912,3.3852,3.3003,3.2411,3.1893,3.162,3.1622,3.1044,3.1048,3.1494,3.1924,3.266,3.3605,3.3882,3.4191,3.453,3.4731,3.4868,3.5034,3.5297,3.5344,3.5207,3.5675,3.5554,3.4938,3.4724,3.4394,3.3998,3.3473,3.3256,3.3361,3.3388,3.2526,3.0938,3.2124,3.2796,3.2711,3.2291,3.1222,2.9444,2.85,2.7689,2.6912,2.6714,2.6472,2.6172,2.6386,2.6262,2.5665,2.4301,2.3305,2.2787,1.9922,1.818,0.0,0.0,0.0,0.0,0.0,0.0,0.0,0.0,0.0,0.0,0.0,2.2648,2.1862,2.3257,2.4367,2.4747,2.5327,2.5864,2.6191,2.6054,2.622,2.6748,2.6468,2.5929,2.5034,2.4268,2.3266,2.1825,2.0914,2.0161,1.9606,1.8586,1.7375,1.5889,1.4257,1.2788,1.1837,1.0403,0.8797,0.7111,0.6102,0.5696,0.6013,0.6157,0.6551,0.7429,0.8144,0.8748,0.9337,1.0286,1.1182,1.1639,1.2643,1.3666,1.4378,1.4951,1.5296,1.5708,1.5878,1.6106,3.5939,3.4891,3.4126,3.3376,3.2759,3.2842,3.2441,3.1737,3.1665,3.1538,3.1378,3.2354,3.3147,3.3788,3.4134,3.4419,3.4731,3.4902,3.5067,3.5264,3.5591,3.572,3.575,3.6012,3.5718,3.4889,3.4596,3.4175,3.3672,3.3524,3.3571,3.3745,3.3822,3.3822,3.3822,3.3591,3.3559,3.3636,3.2603,3.1237,2.9637,2.8404,2.738,2.6582,2.6293,2.5945,2.5539,2.6398,2.6545,2.5746,2.4936,2.4235,2.359,2.2167,2.1081,0.0,1.985,0.0,0.0,0.0,0.0,0.0,0.0,0.0,0.0,2.5226,2.4921,2.4582,2.5966,2.7136,2.7811,2.8353,2.8536,2.8091,2.7954,2.7689,2.7382,2.7002,2.6722,2.6544,2.4979,2.3724,2.3138,2.2008,2.0869,2.0107,1.9597,1.882,1.7501,1.549,1.3767,1.2881,1.1465,0.9555,0.7601,0.6563,0.6287,0.646,0.6578,0.6912,0.7849,0.8476,0.9047,0.9706,1.0767,1.1653,1.1832,1.3292,1.4361,1.466,1.5188,1.5725,1.6051,1.6389,1.6698,3.6198,3.5148,3.4533,3.4194,3.4033,3.3885,3.3085,3.1902,3.1551,3.2049,3.3248,3.4407,3.4867,3.4836,3.5079,3.503,3.4898,3.5228,3.5489,3.5591,3.5943,3.6383,3.6846,3.666,3.6526,3.6327,3.5625,3.4981,3.4447,3.4341,3.4201,3.405,3.4415,3.4561,3.4521,0.0,0.0,0.0,3.2644,3.1579,3.0206,2.927,2.8135,2.672,2.6598,0.0,2.5397,2.5982,2.6492,2.6746,2.6042,0.0,0.0,0.0,0.0,0.0,0.0,0.0,0.0,0.0,0.0,0.0,2.5431,2.5455,2.61,2.7892,2.8617,2.7793,2.8944,2.9687,2.9379,2.9167,2.889,2.8509,2.821,2.7855,2.7523,2.7262,2.6751,2.5653,2.488,2.4016,2.3121,2.2246,2.1534,2.0878,1.9928,1.9201,1.8767,1.6769,1.4946,1.357,1.1674,0.9902,0.8655,0.7872,0.7328,0.7145,0.7211,0.7458,0.7803,0.8894,0.979,1.0208,1.1327,1.2371,1.2834,1.3528,1.4347,1.5086,1.5545,1.5959,1.6536,1.6566,1.6683,3.6297,0.0,3.4778,3.4263,0.0,3.3971,3.3326,3.2254,3.2133,3.2836,3.4153,3.5111,3.5716,3.5968,3.5923,3.5866,3.5806,3.5769,3.5878,3.61,3.6321,3.6662,3.7027,3.6517,3.6216,3.6179,3.5342,3.4794,3.4593,3.4693,3.4691,3.4691,3.493,3.5024,3.5011,3.5048,3.4589,3.3604,3.2947,3.2056,3.0914,2.9786,2.8567,2.7302,2.727,0.0,0.0,0.0,0.0,0.0,0.0,0.0,0.0,0.0,0.0,2.6069,2.5496,2.5194,2.5228,2.5621,2.6549,2.7984,2.8243,2.824,2.8175,2.9656,3.0366,2.9842,3.0219,3.0326,2.9962,2.9341,2.8757,2.832,2.8314,2.8061,2.7333,2.7327,2.7023,2.6033,2.5122,2.4351,2.3786,2.285,2.2049,2.1345,2.0561,1.9824,1.9163,1.7379,1.546,1.3831,1.1975,1.0421,0.9735,0.9021,0.8438,0.8142,0.8208,0.8475,0.8796,0.9613,1.0406,1.1043,1.1868,1.2638,1.339,1.4105,1.4914,1.5618,1.6054,1.6579,1.7444,1.7477,1.7296,3.6293,3.5331,3.4977,3.4378,3.3647,3.39,3.3633,3.2977,0.0,0.0,0.0,3.5723,3.634,3.6818,3.6585,3.652,3.6534,3.6246,3.6258,3.6538,3.6785,3.6937,3.7084,3.6405,3.6016,3.5824,3.5038,3.4644,3.4667,3.5001,3.5211,3.5383,3.5418,3.5475,3.5429,3.5429,3.5036,3.4184,3.3351,3.2585,3.1823,3.0315,2.9062,2.8066,2.8066,2.7692,2.6852,2.8289,2.8487,2.7258,2.7666,2.7881,2.7681,2.7306,2.7555,2.8449,2.8429,2.8284,2.8137,2.86,2.9022,2.9195,2.9663,2.9951,2.9977,3.0628,3.0983,3.0807,3.0601,3.0419,3.0123,2.9361,2.8722,2.8278,2.8415,2.8094,2.7162,2.7301,2.7263,2.6505,2.538,2.462,2.4519,2.3416,2.2359,2.1588,2.1088,2.0512,1.9347,1.7565,1.5682,1.4096,1.2657,1.1476,1.0793,1.0224,0.963,0.9216,0.9266,0.9608,1.0023,1.0497,1.1123,1.1884,1.2397,1.3111,1.3903,1.4728,1.5562,1.6067,1.647,1.7037,1.8123,1.8263,1.8082,3.6211,3.5168,3.5249,3.5142,3.4833,3.4527,3.4524,3.478,3.5404,3.5881,3.6341,3.7323,3.7382,3.67,3.6676,3.6476,3.6125,3.632,3.6507,3.6693,3.7208,3.7653,3.7879,3.7478,3.709,3.6774,3.6215,3.5709,3.5383,3.581,3.5963,3.5766,3.6006,3.6028,3.591,3.591,3.582,3.5674,3.396,3.3079,3.3081,3.1295,2.9931,2.9136,2.8952,2.844,2.7603,2.8834,2.9704,3.0068,2.9844,3.0006,3.0496,2.906,2.8332,2.8405,2.8284,2.8113,2.7865,2.7826,2.8055,2.8491,2.8723,2.8996,2.9409,3.0283,3.0518,2.9705,3.0566,3.0982,3.0191,2.9519,2.9211,2.9369,2.8747,2.8044,2.7546,2.7342,2.7039,2.6485,2.5157,2.4383,2.468,2.3446,2.2235,2.169,2.1292,2.0578,1.9155,1.7578,1.6076,1.48,1.3981,1.3121,1.2167,1.1577,1.1052,1.0159,1.0196,1.0362,1.0497,1.1336,1.2069,1.2485,1.325,1.3999,1.4515,1.5055,1.5595,1.598,1.6444,1.7081,1.7972,1.8223,1.8502,3.6184,3.544,3.5184,3.49,3.4588,3.4416,3.5377,3.6868,3.6987,3.7179,3.7511,3.8237,3.8405,3.8068,3.7773,3.7665,3.7619,3.7126,3.7247,3.7894,3.7902,3.8116,3.8386,3.7546,3.7091,3.7045,3.6143,3.5629,3.5554,3.5954,3.6062,3.5932,3.6062,3.6105,3.5997,3.5997,3.6028,3.6135,3.4274,3.3305,3.3343,3.1649,3.0508,3.0168,3.0005,2.9675,2.9202,3.0065,3.051,3.0277,3.044,3.0447,3.0141,2.9234,2.8614,2.8411,2.8186,2.7989,2.7815,2.7815,2.7836,2.7957,2.8141,2.8261,2.8379,2.9442,2.9948,2.9543,3.0321,3.0654,3.0129,2.958,2.9283,2.9449,2.8769,2.7986,2.7223,2.7168,2.6884,2.6055,2.4892,2.4308,2.4793,2.3354,2.2224,2.1882,2.1447,2.0585,1.9291,1.8483,1.7376,1.594,1.5248,1.4577,1.3676,1.3294,1.2791,1.1954,1.1836,1.1813,1.1841,1.2405,1.2755,1.313,1.3708,1.4234,1.474,1.546,1.5973,1.6338,1.7049,1.7773,1.8318,1.8737,1.908,3.6175,3.5665,3.515,3.4678,3.4323,3.4862,3.6257,3.8143,3.8227,3.8454,3.8707,3.8853,3.8821,3.8683,3.8448,3.8521,3.8621,3.7931,3.8074,3.8878,3.8527,3.8511,3.8772,3.7696,3.7227,3.7193,3.6293,3.5791,3.5878,3.6105,3.6233,3.6255,3.6233,3.6212,3.617,3.6148,3.6165,3.6015,3.4411,3.3543,3.3529,3.1914,3.1032,3.0992,3.0797,3.0613,3.0471,3.1013,3.0947,3.0138,3.049,3.0316,2.9437,2.8991,2.859,2.8339,2.8094,2.7865,2.7715,2.779,2.7765,2.759,2.774,2.779,2.77,2.8543,2.9142,2.9205,2.9928,3.0294,2.9827,2.9463,2.9174,2.9174,2.8703,2.7867,2.6742,2.6932,2.6919,2.5867,2.4783,2.4298,2.4535,2.3387,2.2224,2.2037,2.1429,2.0605,1.995,1.9678,1.8885,1.7818,1.6803,1.5993,1.5242,1.4986,1.4518,1.378,1.3508,1.3414,1.334,1.335,1.3465,1.3879,1.4072,1.4556,1.5153,1.5793,1.6445,1.697,1.7677,1.8263,1.8702,1.9235,1.9502,3.6348,3.5781,3.5455,3.5002,3.4772,3.6633,3.7441,3.7634,3.8993,3.9929,4.006,3.9087,3.8114,3.7344,3.7873,3.8185,3.8247,3.855,3.8818,3.8934,3.8921,3.904,3.9189,3.8789,3.8302,3.7763,3.7399,3.6896,3.6485,3.6731,3.693,3.6974,3.695,3.6811,3.671,3.6664,3.6296,3.5566,3.455,3.4076,3.3997,3.2368,3.1389,3.1274,3.0945,3.0683,3.0543,3.098,3.0975,3.0477,3.0267,2.999,2.9532,2.8737,2.8186,2.8069,2.792,2.769,2.7463,2.7437,2.7467,2.7412,2.7437,2.7514,2.7585,2.7735,2.7794,2.8154,2.9639,3.012,2.9155,2.9028,2.9135,2.9167,2.8627,2.7768,2.6859,2.6903,2.6933,2.6516,2.4928,2.443,2.5269,2.379,2.2286,2.1938,2.1436,2.1028,2.1342,2.1129,2.0741,2.0055,1.8848,1.7498,1.6769,1.6544,1.6035,1.5203,1.4854,1.4714,1.4576,1.448,1.4482,1.4513,1.475,1.5175,1.5719,1.634,1.6778,1.7617,1.7956,1.8,1.8679,1.9243,1.9456,3.6318,3.5924,3.5565,3.5619,3.6098,3.6845,3.7758,3.8843,3.9282,3.9856,4.03,3.9935,3.9437,3.8968,3.9345,3.9409,3.9184,3.9104,3.9266,3.9548,3.9232,3.9282,3.9688,3.9085,3.8589,3.8219,3.7681,3.7141,3.6748,3.6786,3.6846,3.6851,3.6965,3.697,3.6911,3.697,3.6549,3.5696,3.4885,3.4197,3.3528,3.2204,3.1481,3.1423,3.1274,3.1117,3.0932,3.0975,3.0771,3.0336,3.0013,2.9624,2.9097,2.8565,2.8174,2.789,2.7765,2.764,2.7539,2.7437,2.7437,2.7484,2.7437,2.7463,2.759,2.7585,2.7709,2.8114,2.9182,2.9861,2.9904,2.9406,2.9162,2.9426,2.8799,2.774,2.6635,2.7118,2.7111,2.5773,2.5105,2.4682,2.478,2.3639,2.2338,2.1824,2.173,2.2233,2.2164,2.2116,2.2042,2.1655,2.0734,1.9519,1.834,1.7965,1.7511,1.6833,1.6278,1.5927,1.582,1.5512,1.5351,1.519,1.5351,1.5618,1.5885,1.659,1.7173,1.7964,1.8617,1.876,1.9192,1.9349,1.9299,3.6413,3.6152,3.5864,3.6193,3.691,3.7256,3.8251,3.9651,3.9753,4.0106,4.0635,4.0862,4.0894,4.0798,4.0768,4.0578,4.0284,3.982,3.982,4.0151,3.9523,3.952,3.9944,3.9546,3.9112,3.8814,3.8102,3.7434,3.6931,3.6946,3.6985,3.7044,3.7126,3.7203,3.7203,3.7243,3.671,3.5645,3.4935,3.4086,3.2942,3.2001,3.1538,3.1557,3.1481,3.1366,3.121,3.0938,3.058,3.0194,2.9816,2.9297,2.8708,2.8442,2.8191,2.7926,2.773,2.7739,2.8017,2.762,2.7501,2.7803,2.7556,2.7437,2.7534,2.7585,2.7897,2.8515,2.8901,2.948,3.021,2.9491,2.9123,2.9535,2.8594,2.7428,2.6411,2.6834,2.6589,2.5301,2.4802,2.4621,2.4034,2.3433,2.2794,2.245,2.301,2.3609,2.3088,2.327,2.333,2.3006,2.2502,2.1396,1.977,1.9206,1.8812,1.8213,1.7569,1.7147,1.7107,1.663,1.6365,1.6352,1.6258,1.6311,1.6696,1.7173,1.7437,1.8069,1.8788,1.9406,1.9565,1.9391,1.9178,3.6718,3.6429,3.6561,3.6654,3.6775,3.8436,3.928,3.9593,4.0504,4.1192,4.1525,4.1785,4.1916,4.1917,4.1405,4.1085,4.0987,4.0642,4.0522,4.0504,3.9906,3.9755,3.9943,4.0254,4.0127,3.956,3.9017,3.8231,3.7379,3.7411,3.7649,3.7811,3.7685,3.7632,3.7613,3.7468,3.6629,3.5315,3.4798,3.377,3.2334,3.18,3.1654,3.1744,3.1485,3.1293,3.119,3.0878,3.0584,3.0227,2.9697,2.9102,2.8583,2.8198,2.8077,2.8204,2.7838,2.8077,2.8812,2.7994,2.7632,2.826,2.7773,2.7335,2.759,2.7649,2.8106,2.9112,2.88,2.8963,2.9606,2.9116,2.8651,2.8714,2.7755,2.6777,2.5883,2.5772,2.5463,2.5143,2.4335,2.3848,2.3636,2.365,2.3858,2.399,2.419,2.4346,2.4629,2.4658,2.4545,2.4226,2.3764,2.2935,2.1234,2.04,1.9864,1.9309,1.8736,1.8265,1.7964,1.7753,1.7582,1.7371,1.7001,1.7054,1.7543,1.7806,1.7806,1.837,1.9257,1.9819,1.9653,1.9345,1.9207,3.6788,3.6824,3.7015,3.7365,3.7887,3.8839,3.9792,4.0812,4.1306,4.1881,4.2419,4.2748,4.2719,4.2429,4.2421,4.1774,4.075,4.0362,4.009,3.9941,3.9674,3.9755,4.0163,4.0485,4.0339,3.9882,3.9772,3.9126,3.7992,3.76,3.7448,3.7577,3.7685,3.7739,3.788,3.7809,3.6968,3.5451,3.4978,3.3934,3.2318,3.193,3.182,3.1839,3.1595,3.1481,3.1595,3.123,3.0797,3.0405,3.0086,2.9486,2.8583,2.8033,2.7905,2.8185,2.7842,2.8106,2.902,2.8462,2.8155,2.8495,2.8241,2.7798,2.7714,2.7897,2.8267,2.8651,2.87,2.8925,2.9232,2.8883,2.8515,2.8569,2.7732,2.6722,2.6182,2.6015,2.5667,2.457,2.3866,2.3892,2.437,2.4588,2.464,2.4679,2.5375,2.5732,2.5471,2.5627,2.5575,2.4865,2.4282,2.3687,2.297,2.1759,2.096,2.0395,1.9879,1.9465,1.9101,1.8632,1.8356,1.8055,1.7687,1.7582,1.8016,1.8318,1.8318,1.8593,1.9532,1.9855,1.9709,1.948,1.9388,3.6772,3.7095,3.724,3.793,3.8935,3.949,4.054,4.1873,4.2074,4.2462,4.2935,4.3105,4.2944,4.2617,4.2561,4.1933,4.0782,4.0488,4.0205,3.9834,3.9785,3.9935,4.0288,4.069,4.0676,4.0296,4.0075,3.935,3.818,3.7695,3.754,3.7632,3.7809,3.7966,3.8085,3.8121,3.7241,3.5777,3.5204,3.4147,3.2494,3.1776,3.1547,3.1442,3.0996,3.104,3.1654,3.1346,3.0898,3.0489,3.0194,2.9483,2.8319,2.781,2.7808,2.8185,2.8051,2.8435,2.9287,2.8872,2.8535,2.885,2.8383,2.791,2.7649,2.8029,2.83,2.8469,2.8498,2.8711,2.8963,2.8562,2.8221,2.8272,2.7427,2.6495,2.5943,2.5805,2.5205,2.4392,2.4284,2.4687,2.5289,2.5476,2.5594,2.5546,2.6665,2.6884,2.6378,2.6418,2.6496,2.5625,2.5118,2.4707,2.4115,2.327,2.2114,2.1505,2.0704,2.0344,2.0034,1.9554,1.9138,1.8788,1.8541,1.8318,1.8422,1.8736,1.8893,1.8959,1.9465,1.9973,1.9801,1.9614,1.9597,3.6733,3.7278,3.7317,3.8304,3.9719,4.0551,4.1534,4.2402,4.2776,4.2995,4.3165,4.288,4.2779,4.245,4.2012,4.1427,4.1172,4.1153,4.089,4.0381,4.0256,4.0238,4.0337,4.0823,4.1129,4.1103,4.0046,3.8943,3.7932,3.7846,3.7916,3.814,3.8238,3.8356,3.8437,3.8287,3.7459,3.6045,3.534,3.425,3.2596,3.1516,3.0975,3.0803,2.9933,3.0026,3.1329,3.1108,3.0717,3.0252,2.9816,2.8916,2.7929,2.7665,2.7863,2.8304,2.8469,2.9125,2.9969,2.9139,2.886,2.9089,2.8263,2.7637,2.7709,2.8055,2.836,2.8469,2.834,2.8336,2.864,2.8241,2.7784,2.7476,2.6834,2.6113,2.5495,2.4735,2.4392,2.4732,2.5119,2.5611,2.6061,2.6344,2.6627,2.7205,2.7736,2.7814,2.7336,2.7324,2.7112,2.6673,2.6132,2.5615,2.5244,2.4775,2.3619,2.2518,2.1674,2.1062,2.0755,2.038,2.0071,1.9672,1.9272,1.9101,1.8982,1.9242,1.9257,1.9376,1.9828,2.0122,2.0076,1.995,1.9917,3.6772,3.7335,3.7799,3.8755,4.0054,4.0913,4.1839,4.2793,4.3214,4.3377,4.3394,4.3682,4.3311,4.258,4.2307,4.1866,4.1103,4.109,4.0795,4.0314,4.0189,4.0288,4.051,4.0965,4.138,4.1468,4.0353,3.9542,3.9056,3.824,3.815,3.8772,3.8458,3.8647,3.9248,3.8558,3.739,3.6012,3.544,3.4438,3.2915,3.2176,3.1568,3.0993,3.0473,3.0226,3.0031,3.0142,3.0048,2.9687,2.9696,2.9148,2.8204,2.789,2.8256,2.8839,2.8737,2.9065,2.9999,2.9635,2.9059,2.8906,2.8509,2.8171,2.7836,2.824,2.8543,2.8599,2.839,2.8417,2.8643,2.845,2.7939,2.754,2.6901,2.6274,2.5756,2.5169,2.5311,2.6094,2.6137,2.6289,2.6832,2.7217,2.7564,2.7913,2.8278,2.8412,2.8264,2.8184,2.8271,2.7992,2.7337,2.6645,2.633,2.575,2.4641,2.3659,2.2771,2.1928,2.1623,2.1165,2.0858,2.055,2.0138,1.9879,1.9761,1.9672,1.9724,1.9791,2.0138,2.0328,2.0349,2.037,2.0357,3.6615,3.7152,3.7781,3.8948,4.0359,4.1115,4.2114,4.322,4.3412,4.3481,4.359,4.3868,4.3391,4.2492,4.247,4.2116,4.1432,4.1268,4.101,4.0737,4.048,4.051,4.0704,4.1071,4.1327,4.1358,4.0633,3.9957,3.9489,3.8761,3.8671,3.9222,3.8944,3.9094,3.98,3.9159,3.7927,3.6292,3.57,3.4702,3.32,3.229,3.1653,3.1027,3.0473,2.9848,2.9294,2.9649,2.9713,2.9415,2.9426,2.9042,2.835,2.8356,2.8479,2.8611,2.8886,2.9212,2.9523,2.9304,2.9056,2.8693,2.8471,2.8192,2.7896,2.8265,2.8487,2.8222,2.8086,2.8171,2.8507,2.8168,2.7818,2.7506,2.7172,2.6742,2.6315,2.6268,2.6586,2.7355,2.7461,2.7544,2.7916,2.8165,2.8497,2.8561,2.8756,2.8858,2.8783,2.8764,2.8773,2.8712,2.8235,2.7737,2.7461,2.6675,2.5671,2.4815,2.3995,2.3173,2.2535,2.1979,2.1505,2.1216,2.0858,2.0601,2.0498,2.0292,2.0292,2.0395,2.0498,2.055,2.0656,2.0809,2.0801,3.6377,3.6783,3.7423,3.8977,4.0804,4.1273,4.2361,4.3747,4.3502,4.3394,4.3523,4.3465,4.2983,4.2377,4.22,4.2099,4.1984,4.1774,4.1706,4.167,4.1354,4.108,4.1012,4.129,4.1323,4.1096,4.0861,4.017,3.9279,3.9103,3.9317,3.947,3.9475,3.9763,3.9874,3.9921,3.8536,3.6538,3.5994,3.4966,3.3173,3.2069,3.1232,3.0941,3.0023,2.9382,2.922,2.9593,2.9708,2.9305,2.9195,2.8967,2.8714,2.8847,2.8516,2.8025,2.8903,2.8943,2.8624,2.8677,2.8581,2.8401,2.8004,2.7585,2.773,2.8038,2.8144,2.7743,2.7647,2.7847,2.8197,2.7988,2.7635,2.7624,2.7424,2.7084,2.7176,2.7857,2.8299,2.8633,2.8958,2.9124,2.9054,2.9103,2.9218,2.926,2.9187,2.9044,2.9055,2.9102,2.8988,2.8891,2.881,2.8411,2.8012,2.7195,2.6328,2.6005,2.5131,2.422,2.3388,2.2719,2.2215,2.1928,2.1623,2.142,2.1267,2.1113,2.0909,2.0858,2.0858,2.0925,2.1017,2.1227,2.1412,3.6575,3.7384,3.8072,3.9633,4.1565,4.1894,4.2633,4.3693,4.3583,4.3331,4.319,4.3102,4.2703,4.1976,4.2158,4.2016,4.1936,4.233,4.2368,4.2189,4.2195,4.1823,4.1508,4.1493,4.1587,4.1598,4.1233,4.061,3.978,3.95,3.937,3.9451,3.9216,3.9307,3.9785,3.9458,3.814,3.656,3.6105,3.5109,3.3532,3.2771,3.1938,3.0941,3.0525,2.9863,2.92,2.9498,2.9856,2.9941,2.9663,2.922,2.8787,2.8687,2.8639,2.856,2.8655,2.8764,2.8505,2.8469,2.8316,2.779,2.779,2.774,2.7765,2.7941,2.8004,2.7873,2.7852,2.8047,2.8567,2.8588,2.8811,2.9202,2.8056,2.7452,2.8425,2.8694,2.9036,2.9808,2.9967,2.9866,2.9725,2.969,2.9693,2.9555,2.9414,2.9316,2.9579,2.961,2.9654,2.9526,2.9391,2.8955,2.8383,2.7614,2.7105,2.6988,2.6261,2.5235,2.4313,2.347,2.302,2.2619,2.2333,2.2131,2.2131,2.208,2.1776,2.1404,2.1507,2.1643,2.1607,2.1745,2.2013,3.6811,3.7433,3.8304,3.9673,4.1291,4.1664,4.2431,4.3311,4.3428,4.332,4.3232,4.3402,4.3031,4.2423,4.2658,4.2717,4.2638,4.3194,4.3182,4.2725,4.2323,4.1946,4.1719,4.1692,4.1823,4.2079,4.1762,4.128,4.0773,4.0383,4.0184,4.0013,3.9657,3.9678,3.989,3.9592,3.8523,3.711,3.6435,3.5542,3.4434,3.3347,3.2674,3.1865,3.1425,3.0651,3.0078,3.0118,3.0235,3.0171,2.9946,2.9592,2.9114,2.9084,2.8983,2.8747,2.8707,2.8591,2.8218,2.8158,2.7953,2.7629,2.7665,2.7715,2.769,2.769,2.7705,2.7954,2.7802,2.8081,2.8732,2.901,2.9565,3.0073,2.9031,2.8697,3.0124,3.0217,3.0425,3.0882,3.1019,3.0798,3.049,3.0483,3.0399,3.0308,3.0168,3.0276,3.0471,3.0363,3.0325,3.0268,3.0319,3.0051,2.9477,2.8724,2.7827,2.7682,2.7122,2.6141,2.5118,2.4214,2.3719,2.337,2.3088,2.2887,2.2887,2.2837,2.2535,2.2299,2.2315,2.2348,2.2416,2.2316,2.255,3.7056,3.7211,3.8352,3.9483,4.0619,4.1127,4.2094,4.3072,4.3226,4.3328,4.3562,4.3881,4.3484,4.3216,4.324,4.3639,4.4009,4.4182,4.3919,4.3276,4.2449,4.1749,4.1858,4.1845,4.1973,4.2225,4.2287,4.1972,4.1554,4.1467,4.1144,4.0574,4.0477,4.0301,3.9832,3.983,3.9106,3.7542,3.6943,3.6207,3.5239,3.3923,3.3216,3.3073,3.1977,3.1439,3.1138,3.1004,3.0777,3.0321,3.0162,2.9848,2.9579,2.9753,2.9366,2.8687,2.8625,2.8435,2.7771,2.7495,2.7355,2.7181,2.7205,2.7465,2.735,2.7229,2.7299,2.7825,2.756,2.8111,2.9024,2.9351,3.0076,3.0865,3.0801,3.0996,3.1554,3.188,3.2017,3.2122,3.2152,3.1869,3.156,3.1342,3.1281,3.0765,3.0675,3.0694,3.0846,3.0878,3.0957,3.1109,3.118,3.1362,3.0668,2.9937,2.8961,2.8277,2.7676,2.6822,2.5723,2.4903,2.4412,2.4066,2.4035,2.3836,2.3569,2.337,2.317,2.3153,2.3182,2.3313,2.3363,2.3079,2.3161,3.7366,3.8014,3.8575,3.9817,4.1309,4.1401,4.2232,4.3621,4.3408,4.3505,4.3672,4.3556,4.339,4.3277,4.3668,4.3928,4.4294,4.4863,4.4938,4.3839,4.2542,4.2037,4.2072,4.2129,4.21,4.2246,4.243,4.2197,4.181,4.1796,4.123,4.0115,4.0223,3.9764,3.9191,3.9283,3.8503,3.7133,3.7211,3.668,3.5469,3.4521,3.382,3.3546,3.2295,3.1651,3.1538,3.1423,3.1249,3.0952,3.0531,3.0086,2.9814,2.9498,2.9099,2.8614,2.821,2.7775,2.6961,2.6678,2.6371,2.5972,2.6044,2.6122,2.6782,2.6624,2.6905,2.7544,2.7909,2.87,2.9951,3.0391,3.1181,3.2099,3.2488,3.2778,3.3558,3.3183,3.2895,3.2953,3.2939,3.2636,3.1981,3.1858,3.1642,3.1264,3.1158,3.1112,3.1268,3.1533,3.1663,3.1909,3.1757,3.1811,3.1184,3.0427,2.9466,2.8716,2.8163,2.7461,2.6368,2.5849,2.5441,2.5216,2.5088,2.4775,2.4282,2.4258,2.4073,2.4024,2.3956,2.3999,2.3926,2.3761,2.3834,3.7787,3.8389,3.9053,4.0097,4.1252,4.168,4.2398,4.3354,4.3764,4.3889,4.4026,4.3996,4.4061,4.4054,4.4333,4.4548,4.4742,4.5101,4.5183,4.4564,4.3674,4.3208,4.3187,4.2992,4.2803,4.2481,4.2629,4.2515,4.2412,4.2305,4.181,4.0364,4.0345,3.9874,3.8958,3.9007,3.8665,3.7956,3.7765,3.7396,3.6618,3.5175,3.3952,3.3192,3.2211,3.1747,3.1576,3.1519,3.12,3.0823,3.0415,3.0199,2.9847,2.9124,2.856,2.8455,2.7573,2.7028,2.6398,2.6022,2.574,2.5259,2.5325,2.5806,2.6342,2.6494,2.7088,2.7984,2.8741,2.9535,3.0842,3.1393,3.2253,3.3093,3.358,3.41,3.4644,3.4275,3.3674,3.3768,3.3751,3.3463,3.3121,3.273,3.2835,3.2831,3.2907,3.2842,3.2861,3.304,3.2701,3.2718,3.2381,3.2071,3.1514,3.0752,2.9815,2.9128,2.8623,2.7882,2.6983,2.6723,2.6572,2.6119,2.5567,2.5333,2.4922,2.4925,2.4706,2.4447,2.4342,2.4428,2.4524,2.4506,2.4687,3.8202,3.8612,3.9559,4.0335,4.1021,4.1916,4.2619,4.3176,4.386,4.4207,4.4406,4.4797,4.4777,4.4927,4.4954,4.5169,4.5329,4.5187,4.5164,4.5301,4.4338,4.3978,4.3992,4.3647,4.3212,4.2724,4.2861,4.2958,4.3087,4.3105,4.2348,4.1209,4.0985,4.0215,3.9239,3.8998,3.8869,3.8465,3.8316,3.8136,3.7764,3.6039,3.4258,3.2766,3.2301,3.1985,3.1749,3.1535,3.1115,3.0388,3.0039,3.0037,2.9822,2.8759,2.7833,2.8254,2.7119,2.6306,2.5849,2.5465,2.5106,2.5023,2.51,2.5449,2.5963,2.6583,2.7508,2.8683,2.9656,3.068,3.1633,3.2162,3.2917,3.3761,3.4386,3.482,3.5265,3.51,3.4662,3.4199,3.4264,3.4132,3.3991,3.3767,3.4093,3.4401,3.4407,3.4412,3.4365,3.4262,3.3852,3.3469,3.3133,3.2216,3.1588,3.112,3.02,2.9465,2.9008,2.8308,2.7644,2.7551,2.722,2.6376,2.5827,2.5644,2.5324,2.5035,2.4813,2.4621,2.4716,2.4813,2.5042,2.5279,2.5467,3.8538,3.8833,3.9743,4.065,4.1456,4.198,4.2743,4.3565,4.3831,4.4207,4.4692,4.4803,4.494,4.5022,4.5123,4.5441,4.567,4.5574,4.5505,4.5485,4.4634,4.4178,4.4169,4.3772,4.3242,4.2973,4.305,4.325,4.3443,4.3487,4.2803,4.1693,4.1406,4.057,3.9497,3.9041,3.8836,3.853,3.8627,3.8646,3.7858,3.6567,3.4773,3.3045,3.257,3.2334,3.2056,3.1533,3.1098,3.082,2.9539,2.9435,2.9488,2.8504,2.7782,2.7539,2.6773,2.5852,2.5205,2.4754,2.4115,2.3697,2.3967,2.4575,2.5233,2.621,2.7641,2.9317,3.0839,3.21,3.2702,3.3082,3.3853,3.4684,3.5049,3.5232,3.5734,3.5656,3.5235,3.4721,3.4734,3.4761,3.4647,3.4645,3.4898,3.4947,3.4883,3.484,3.475,3.4727,3.4581,3.422,3.3909,3.2747,3.1576,3.125,3.0602,2.9797,2.9225,2.8743,2.8272,2.824,2.7814,2.6757,2.6235,2.6124,2.5745,2.5223,2.4894,2.4719,2.4938,2.5216,2.5456,2.5717,2.5996,3.8907,3.9343,4.0161,4.0956,4.1721,4.2365,4.3021,4.3684,4.4035,4.4316,4.4631,4.4913,4.5103,4.5203,4.5336,4.5675,4.593,4.6094,4.6117,4.6074,4.5774,4.5509,4.5228,4.4542,4.4336,4.4106,4.3779,4.3426,4.3583,4.3684,4.313,4.2289,4.1727,4.0837,3.9894,3.9319,3.9012,3.8687,3.8914,3.8961,3.8289,3.6977,3.5147,3.3564,3.2846,3.2459,3.1755,3.1461,3.0608,2.9776,2.8965,2.8801,2.8591,2.7966,2.7147,2.7287,2.6241,2.5146,2.4442,2.4,2.345,2.3062,2.345,2.4086,2.4904,2.6179,2.8053,3.0164,3.1293,3.2619,3.335,3.39,3.4687,3.5541,3.5792,3.6006,3.6215,3.6071,3.5683,3.5322,3.568,3.5713,3.5307,3.5404,3.5567,3.5587,3.5431,3.5293,3.5201,3.5207,3.5259,3.4727,3.4294,3.341,3.2183,3.153,3.0974,3.0192,2.9483,2.9002,2.8637,2.8473,2.7814,2.6863,2.6619,2.6594,2.6101,2.5625,2.5205,2.4822,2.5198,2.5585,2.5913,2.6189,2.6499,3.9254,3.9733,4.055,4.1292,4.2013,4.2772,4.3355,4.3831,4.4288,4.4569,4.4708,4.5096,4.5336,4.5468,4.5624,4.5879,4.6301,4.6507,4.673,4.691,4.6823,4.6931,4.6555,4.5908,4.4945,4.4474,4.412,4.3651,4.3664,4.3795,4.3447,4.2813,4.1972,4.1386,4.0775,4.0056,3.9605,3.9456,3.9283,3.9127,3.828,3.7071,3.5338,3.3388,3.3132,3.2541,3.1569,3.1083,3.0216,2.9212,2.8492,2.8382,2.8169,2.7009,2.6825,2.736,2.5674,2.4544,2.41,2.3561,2.3236,2.2953,2.3374,2.4055,2.5312,2.7084,2.9222,3.1476,3.2585,3.3276,3.4332,3.4892,3.5527,3.6164,3.662,3.6772,3.6547,3.6365,3.6062,3.6087,3.663,3.6671,3.6296,3.6335,3.6621,3.6539,3.6387,3.6247,3.611,3.5924,3.5738,3.5112,3.4582,3.3935,3.2984,3.1973,3.1298,3.0491,2.9827,2.9279,2.8868,2.8571,2.7893,2.7416,2.721,2.7082,2.6568,2.5945,2.543,2.5231,2.5565,2.5932,2.6221,2.6634,2.7037,3.9581,3.9613,4.0772,4.1721,4.2491,4.2959,4.3591,4.4316,4.4569,4.4927,4.523,4.5468,4.5546,4.5624,4.5829,4.6179,4.6471,4.6731,4.6962,4.7138,4.6866,4.6494,4.5787,4.4946,4.4693,4.445,4.4066,4.3897,4.3892,4.4033,4.3826,4.3263,4.3034,4.2693,4.1788,4.099,4.0691,4.0465,3.984,3.8701,3.7312,3.6653,3.5399,3.4067,3.3335,3.2718,3.1581,3.0975,3.0072,2.9062,2.8248,2.8382,2.8818,2.759,2.7669,2.7611,2.65,2.4606,2.4606,2.394,2.3418,2.3398,2.3805,2.4605,2.6269,2.8679,3.1126,3.2976,3.3889,3.461,3.5358,3.5911,3.6505,3.6825,3.7127,3.7035,3.6878,3.6932,3.6603,3.6797,3.735,3.7494,3.736,3.7487,3.7612,3.7479,3.7366,3.718,3.6871,3.6492,3.6085,3.5414,3.4717,3.4047,3.3311,3.2392,3.1622,3.0834,3.0148,2.9555,2.928,2.8984,2.8754,2.8321,2.796,2.7356,2.666,2.6085,2.5584,2.5614,2.6032,2.6279,2.6486,2.6983,2.7573,4.0286,4.0347,4.133,4.2045,4.2648,4.3355,4.3919,4.4406,4.4824,4.5096,4.531,4.552,4.5675,4.5829,4.6105,4.6326,4.6542,4.6883,4.7133,4.7341,4.716,4.7098,4.6825,4.5882,4.5076,4.4756,4.428,4.3929,4.4002,4.4109,4.4005,4.3873,4.3492,4.3131,4.2696,4.1944,4.1305,4.0678,3.984,3.8527,3.7192,3.6464,3.5611,3.384,3.3186,3.2306,3.1405,3.0776,3.0,2.9253,2.8901,2.9352,2.9489,2.8611,2.8028,2.9264,2.7038,2.5559,2.5371,2.4462,2.4037,2.4165,2.4798,2.5936,2.7845,3.0192,3.2283,3.3435,3.4448,3.5365,3.6062,3.6278,3.6788,3.7205,3.7538,3.7689,3.7568,3.7422,3.7393,3.7717,3.8017,3.8141,3.8297,3.83,3.8232,3.7985,3.7756,3.7505,3.7047,3.6493,3.6109,3.5629,3.486,3.4072,3.3384,3.2584,3.196,3.1196,3.0489,2.9988,2.976,2.9509,2.9189,2.8582,2.7914,2.7267,2.675,2.6451,2.6115,2.6275,2.6455,2.6791,2.7128,2.7628,2.8207,4.1189,4.1256,4.1883,4.2396,4.2896,4.3805,4.4298,4.4547,4.5015,4.5283,4.5415,4.5649,4.5905,4.6105,4.6326,4.6495,4.6613,4.7007,4.729,4.7508,4.7705,4.7789,4.7363,4.658,4.6029,4.5768,4.4823,4.4305,4.4123,4.4177,4.431,4.4426,4.4014,4.3726,4.3489,4.2888,4.2121,4.0952,3.9977,3.8615,3.7194,3.6731,3.5547,3.4168,3.2903,3.1897,3.0972,3.0585,3.003,2.9369,2.9343,2.9615,2.9799,2.8493,2.8248,2.8845,2.727,2.6416,2.6176,2.5651,2.4897,2.5214,2.6351,2.7902,3.008,3.2004,3.3536,3.4761,3.5528,3.6297,3.6797,3.7177,3.751,3.7825,3.7959,3.8198,3.8435,3.8263,3.809,3.8227,3.8546,3.9029,3.9098,3.9057,3.8863,3.853,3.8213,3.7874,3.7298,3.6693,3.634,3.6029,3.5257,3.4442,3.3744,3.2967,3.2337,3.1598,3.0918,3.0352,3.0125,2.9783,2.9464,2.8767,2.801,2.7917,2.7772,2.7274,2.6756,2.6857,2.6977,2.7458,2.7908,2.8395,2.8932,4.227,4.227,4.2301,4.2772,4.3535,4.4064,4.4519,4.494,4.5257,4.552,4.5752,4.603,4.6228,4.6398,4.6542,4.6731,4.6939,4.7187,4.7428,4.7663,4.7854,4.7782,4.7516,4.7132,4.6431,4.55,4.5032,4.4712,4.4341,4.431,4.4397,4.4458,4.4459,4.4676,4.4409,4.3649,4.2621,4.14,4.0303,3.8818,3.7526,3.6696,3.5812,3.4251,3.3064,3.2075,3.108,3.0837,3.0267,2.9364,2.9433,2.9371,2.9471,2.8169,2.8117,2.8576,2.7618,2.7183,2.7507,2.6632,2.5787,2.6429,2.802,3.0142,3.2032,3.3355,3.5002,3.6596,3.7053,3.7806,3.857,3.91,3.863,3.8592,3.8639,3.8929,3.9073,3.9011,3.8899,3.8835,3.9131,3.9647,3.9741,3.9683,3.9424,3.9069,3.8621,3.8285,3.775,3.7221,3.6847,3.6416,3.5739,3.4965,3.4284,3.3498,3.2552,3.1974,3.1407,3.0847,3.0442,3.0125,2.9829,2.9263,2.8724,2.8766,2.8627,2.7865,2.7305,2.7314,2.7547,2.8104,2.8699,2.9209,2.9806,4.2649,4.2836,4.3019,4.3323,4.3743,4.4236,4.4631,4.5015,4.5363,4.5727,4.6055,4.6326,4.6471,4.6566,4.6754,4.6916,4.7098,4.7407,4.7642,4.7886,4.8015,4.8103,4.7924,4.7552,4.69,4.6034,4.5637,4.5043,4.4326,4.4426,4.4551,4.4672,4.4815,4.4852,4.4607,4.3869,4.2806,4.2013,4.0646,3.9071,3.7613,3.6974,3.6073,3.4435,3.309,3.247,3.1942,3.1513,3.0791,3.0189,3.0066,2.9859,2.935,2.81,2.8086,2.8807,2.7607,2.779,2.8528,2.7649,2.715,2.8742,3.0537,3.2344,3.367,3.4887,3.6179,3.7404,3.8256,3.8956,3.8995,3.9179,3.9131,3.9217,3.941,3.9721,3.9896,3.9894,4.002,4.0117,4.0209,4.0463,4.0405,4.0275,3.9924,3.9584,3.9141,3.8684,3.8081,3.7436,3.6981,3.647,3.5743,3.5009,3.4256,3.3477,3.2665,3.2279,3.1869,3.1427,3.0982,3.0578,3.0214,2.976,2.9375,2.9195,2.8813,2.8164,2.7893,2.7993,2.8324,2.8795,2.9416,3.0057,3.0578,4.3021,4.3355,4.3625,4.3964,4.4307,4.4767,4.5329,4.5836,4.622,4.6402,4.6594,4.6684,4.6661,4.6731,4.6962,4.7098,4.7276,4.7557,4.7809,4.8032,4.8229,4.8458,4.8475,4.8155,4.7536,4.6701,4.6141,4.5455,4.4318,4.4524,4.4685,4.4802,4.4889,4.501,4.4695,4.3663,4.2786,4.2326,4.0998,3.93,3.7697,3.7165,3.6201,3.4547,3.3043,3.245,3.2109,3.1707,3.1058,3.062,3.0407,3.012,2.9246,2.8442,2.8184,2.8194,2.8222,2.8044,2.8661,2.8872,2.9023,3.0646,3.2317,3.3854,3.5183,3.6476,3.773,3.8783,3.9354,3.9731,3.9906,4.048,4.0393,4.0538,4.0233,4.0448,4.0881,4.1036,4.1302,4.1509,4.1433,4.1197,4.0817,4.0631,4.0229,3.9738,3.901,3.8603,3.8229,3.751,3.6804,3.6217,3.5538,3.4804,3.4093,3.3536,3.3021,3.2736,3.2376,3.2069,3.1605,3.1205,3.0913,3.066,3.0248,2.966,2.9483,2.9463,2.915,2.8808,2.9191,2.9669,3.008,3.0691,3.116,4.3535,4.3802,4.401,4.4586,4.5361,4.5852,4.6563,4.7375,4.7742,4.7735,4.7386,4.7086,4.6836,4.6929,4.7165,4.732,4.7472,4.7788,4.8012,4.8131,4.8382,4.8569,4.8695,4.8539,4.8079,4.6892,4.6417,4.5814,4.4489,4.4643,4.4802,4.501,4.5148,4.5218,4.5069,4.375,4.3052,4.2748,4.1129,3.9411,3.7985,3.7313,3.6077,3.4603,3.3171,3.2625,3.2557,3.1783,3.1132,3.0728,3.0156,2.9524,2.8567,2.7487,2.7348,2.7833,2.7955,2.8622,2.9881,3.0102,3.1211,3.2555,3.4039,3.5403,3.6917,3.8142,3.9186,4.0176,4.1076,4.1912,4.2337,4.2346,4.1804,4.1537,4.1267,4.1356,4.1824,4.1991,4.2203,4.2152,4.2005,4.1785,4.1367,4.0944,4.0516,3.9889,3.9027,3.8488,3.8199,3.7739,3.7016,3.6174,3.5495,3.5011,3.4408,3.382,3.3351,3.3111,3.2853,3.2506,3.2245,3.1869,3.1669,3.1509,3.1172,3.0605,3.0835,3.1113,3.0483,2.9896,3.0191,3.0578,3.0937,3.1273,3.1673,4.3835,4.4039,4.4265,4.5229,4.6436,4.6203,4.6804,4.795,4.8408,4.8363,4.784,4.7654,4.7436,4.7308,4.7377,4.7593,4.7788,4.7988,4.8168,4.8362,4.855,4.8732,4.8873,4.8915,4.8562,4.7744,4.7215,4.6486,4.542,4.5128,4.4976,4.5148,4.5361,4.553,4.5295,4.4445,4.3813,4.2934,4.1378,3.9607,3.7929,3.6996,3.6003,3.4695,3.3646,3.3252,3.32,3.2124,3.1281,3.06,2.9885,2.8816,2.8008,2.7029,2.7231,2.7704,2.7987,2.9249,3.1089,3.2317,3.3635,3.4666,3.5717,3.7028,3.8238,3.9136,4.0283,4.1347,4.2106,4.2572,4.2453,4.2423,4.2175,4.2321,4.2248,4.2548,4.289,4.2842,4.2852,4.2508,4.2281,4.1785,4.1325,4.1156,4.0773,4.043,3.9621,3.8689,3.8249,3.7913,3.7357,3.6369,3.5653,3.522,3.4705,3.4108,3.3709,3.3428,3.3197,3.2939,3.268,3.2438,3.2059,3.1792,3.1689,3.1584,3.1372,3.1233,3.1219,3.1066,3.1178,3.1226,3.1472,3.1717,3.1981,4.4897,4.5149,4.5077,4.6079,4.7495,4.6918,4.7493,4.888,4.9305,4.9167,4.8839,4.877,4.8325,4.7909,4.7955,4.785,4.8008,4.8168,4.8362,4.855,4.866,4.8855,4.9044,4.9155,4.8802,4.8236,4.7665,4.692,4.5817,4.5483,4.5334,4.5388,4.5573,4.5719,4.5433,4.4689,4.3761,4.2792,4.1461,3.9677,3.8197,3.7051,3.6112,3.4956,3.412,3.3731,3.3264,3.2451,3.1373,3.0406,2.9465,2.8428,2.7759,2.7636,2.774,2.8104,2.9117,3.0677,3.2916,3.4476,3.5687,3.6786,3.7831,3.8486,3.9291,4.0345,4.1241,4.2141,4.2715,4.2982,4.3051,4.2982,4.299,4.3136,4.3188,4.346,4.3395,4.3319,4.315,4.2809,4.2444,4.1881,4.1381,4.1241,4.1071,4.0702,4.0287,3.9271,3.8276,3.793,3.7434,3.6373,3.5698,3.5292,3.4925,3.446,3.4063,3.3742,3.3471,3.324,3.3025,3.2766,3.2364,3.2043,3.1945,3.1785,3.1361,3.1207,3.1462,3.1739,3.1923,3.1972,3.2045,3.2245,3.255,4.6629,4.7079,4.6424,4.7146,4.8471,4.7967,4.8875,5.0689,5.0439,5.0371,5.0388,4.984,4.9274,4.8614,4.8908,4.8696,4.8138,4.8283,4.842,4.8642,4.8803,4.901,4.9197,4.9358,4.903,4.8536,4.798,4.7339,4.6121,4.5721,4.5606,4.5582,4.5687,4.5687,4.5208,4.4395,4.3557,4.2808,4.1517,3.9783,3.8328,3.7512,3.6397,3.5244,3.4282,3.3627,3.2982,3.2054,3.0939,3.0098,2.9541,2.8895,2.8575,2.8707,2.8866,2.9555,3.0803,3.2884,3.4749,3.6107,3.7624,3.8732,3.9385,3.9631,4.0285,4.155,4.2341,4.2985,4.3502,4.3899,4.4136,4.4059,4.3952,4.3952,4.3905,4.3849,4.3762,4.3596,4.3409,4.309,4.2769,4.2333,4.1881,4.166,4.131,4.083,4.0365,3.9466,3.8504,3.7783,3.7206,3.6183,3.5574,3.5371,3.5018,3.4673,3.4356,3.4063,3.3641,3.3411,3.324,3.3018,3.2543,3.2258,3.2197,3.1945,3.1546,3.1663,3.1974,3.2208,3.2506,3.2667,3.2698,3.2957,3.3215,4.6869,4.7176,4.7152,4.7773,4.8832,4.9507,5.0344,5.0955,5.1195,5.1076,5.0519,5.0546,5.0158,4.9617,4.934,4.9184,4.8962,4.8751,4.8643,4.8767,4.8996,4.9164,4.9295,4.9406,4.9249,4.8964,4.8469,4.7819,4.6884,4.6244,4.5653,4.5532,4.568,4.5522,4.486,4.3951,4.3516,4.2802,4.1442,4.0037,3.8607,3.7594,3.6549,3.5597,3.4609,3.3956,3.329,3.2032,3.1015,3.0513,2.9272,2.8457,2.8483,2.9358,3.0283,3.1994,3.3268,3.4667,3.6001,3.8083,3.965,4.04,4.1201,4.1933,4.2349,4.2698,4.3343,4.3724,4.409,4.4358,4.4412,4.4335,4.4335,4.4297,4.422,4.4104,4.3949,4.3793,4.3596,4.313,4.285,4.2648,4.224,4.1993,4.1657,4.1076,4.0358,3.9489,3.8682,3.795,3.7112,3.6048,3.5669,3.5534,3.5249,3.4921,3.4605,3.4314,3.3894,3.3556,3.3428,3.3156,3.2742,3.2381,3.2139,3.1964,3.1787,3.2055,3.2525,3.2844,3.3122,3.3275,3.3428,3.3641,3.3768,4.8051,4.8272,4.8083,4.8368,4.9076,5.0243,5.0919,5.1141,5.1531,5.1412,5.1093,5.1371,5.1148,5.0605,5.0378,5.0094,4.9444,4.9269,4.9085,4.8907,4.9152,4.9262,4.9358,4.9459,4.9452,4.9265,4.892,4.8257,4.7263,4.6123,4.539,4.5559,4.5696,4.529,4.4628,4.3901,4.3224,4.2434,4.1403,4.0212,3.8954,3.7679,3.6891,3.5985,3.5082,3.439,3.3661,3.2129,3.147,3.0887,2.9481,2.9402,2.9589,3.0551,3.2019,3.3596,3.4577,3.5634,3.6907,3.9045,4.0343,4.1489,4.2694,4.3433,4.3721,4.3898,4.4075,4.4182,4.4472,4.4648,4.4534,4.445,4.445,4.445,4.4374,4.4266,4.4143,4.4026,4.3606,4.313,4.289,4.2729,4.2526,4.2281,4.186,4.122,4.0474,3.9593,3.8786,3.8013,3.7123,3.6155,3.5885,3.5737,3.5413,3.5044,3.4714,3.4397,3.4105,3.381,3.3615,3.3166,3.2651,3.2264,3.2012,3.1971,3.2047,3.2608,3.3088,3.3411,3.3759,3.4021,3.4147,3.4189,3.4314,4.9679,4.9844,4.9189,4.9026,4.932,5.0395,5.0919,5.1141,5.1556,5.1747,5.1884,5.2221,5.1973,5.1514,5.1511,5.0965,5.0407,5.0064,4.9693,4.9176,4.9475,4.9551,4.9481,4.9505,4.9505,4.9505,4.9235,4.8602,4.7208,4.6183,4.5648,4.5624,4.5648,4.5262,4.4363,4.3773,4.298,4.1841,4.11,4.0209,3.9144,3.8112,3.7147,3.6079,3.5077,3.4143,3.3229,3.2428,3.1823,3.1204,3.0861,3.0936,3.1506,3.2082,3.3607,3.482,3.5853,3.6914,3.8233,4.0166,4.1511,4.2607,4.3682,4.4408,4.4676,4.4613,4.4586,4.4541,4.4761,4.4761,4.4685,4.4825,4.4918,4.4818,4.4718,4.4465,4.4104,4.3871,4.3488,4.309,4.2941,4.2809,4.2769,4.2496,4.1924,4.1273,4.0596,3.9745,3.8757,3.7957,3.7171,3.6261,3.5952,3.5696,3.5331,3.5003,3.4714,3.4424,3.4173,3.4004,3.3768,3.3206,3.2504,3.2403,3.2352,3.2311,3.2485,3.3137,3.3649,3.3799,3.4214,3.4744,3.4853,3.4812,3.4971,4.9801,4.9976,4.9804,4.9844,5.0126,5.0597,5.0972,5.1272,5.1582,5.1858,5.2042,5.2268,5.2427,5.2353,5.2123,5.1708,5.1576,5.099,5.0598,5.021,5.0134,4.9787,4.9565,4.9551,4.9551,4.9551,4.9348,4.881,4.7577,4.6637,4.5913,4.5609,4.5646,4.5271,4.3957,4.3478,4.2729,4.1435,4.0907,4.0125,3.9021,3.815,3.7204,3.6137,3.5098,3.4337,3.3644,3.3231,3.266,3.2063,3.1865,3.2392,3.338,3.4144,3.5368,3.669,3.7262,3.8272,3.9637,4.1241,4.2661,4.3711,4.4601,4.5044,4.529,4.5167,4.5017,4.498,4.4942,4.4874,4.496,4.5201,4.5348,4.5217,4.5087,4.4626,4.4126,4.3714,4.3329,4.317,4.3021,4.29,4.289,4.2543,4.197,4.137,4.0802,3.9944,3.8599,3.7668,3.7174,3.6365,3.5898,3.5588,3.5249,3.4962,3.4714,3.4465,3.4256,3.4063,3.3937,3.345,3.2941,3.2895,3.2834,3.2987,3.332,3.3901,3.4327,3.4342,3.4533,3.5032,3.529,3.5263,3.5558,4.9889,5.0011,5.0097,5.0178,5.0376,5.0757,5.1026,5.1246,5.1556,5.1858,5.209,5.2291,5.2499,5.2761,5.2547,5.2397,5.2375,5.2029,5.1245,5.0779,5.0574,5.0097,4.9837,4.9582,4.9582,4.9559,4.9114,4.8499,4.7806,4.7188,4.6569,4.6081,4.6009,4.5395,4.4007,4.3512,4.2711,4.139,4.0952,3.9988,3.8837,3.7947,3.7157,3.6137,3.5353,3.4649,3.4385,3.4051,3.3766,3.338,3.3195,3.414,3.5058,3.5733,3.66,3.7646,3.8504,3.9333,4.0808,4.2264,4.3631,4.4459,4.5232,4.5578,4.5609,4.5426,4.5278,4.5204,4.5092,4.5055,4.5452,4.5756,4.5711,4.5572,4.5441,4.5157,4.4317,4.3606,4.3369,4.325,4.309,4.289,4.2771,4.2495,4.1893,4.1087,4.0558,3.9615,3.8352,3.751,3.7007,3.6536,3.6098,3.5588,3.5208,3.4921,3.4714,3.4507,3.4314,3.4033,3.382,3.3643,3.3472,3.3416,3.358,3.3968,3.4383,3.4665,3.48,3.4788,3.5006,3.529,3.5453,3.5656,3.5954,5.0011,5.0068,5.0178,5.0228,5.0313,5.0819,5.1061,5.1202,5.1495,5.1797,5.2054,5.2304,5.2477,5.2702,5.2944,5.2803,5.271,5.2753,5.1988,5.1337,5.0981,5.0557,5.0078,4.9672,4.9642,4.9468,4.9106,4.8777,4.8372,4.7795,4.73,4.6838,4.6426,4.6018,4.4808,4.3838,4.2963,4.1996,4.1113,3.9904,3.8816,3.7712,3.6881,3.6157,3.5539,3.5122,3.4863,3.4979,3.4869,3.4871,3.4812,3.5664,3.6395,3.7002,3.7681,3.8542,3.9311,4.0115,4.1279,4.2673,4.3791,4.4656,4.5399,4.5755,4.5755,4.5714,4.5568,4.5457,4.5309,4.5453,4.5852,4.6181,4.6105,4.5773,4.5672,4.5472,4.4494,4.3606,4.3448,4.3329,4.313,4.293,4.2723,4.2446,4.1804,4.0967,4.0011,3.8948,3.8045,3.7595,3.7123,3.6693,3.6298,3.5777,3.529,3.5003,3.4839,3.4632,3.4454,3.4042,3.3803,3.3934,3.4042,3.405,3.4293,3.4559,3.4788,3.4991,3.51,3.5127,3.5331,3.5494,3.5575,3.5791,3.6225,5.0063,5.0178,5.0285,5.0425,5.053,5.0749,5.0946,5.1141,5.1531,5.1758,5.1907,5.2293,5.2595,5.2761,5.2937,5.3015,5.3267,5.3385,5.3199,5.2643,5.1748,5.1152,5.05,4.986,4.9744,4.957,4.9367,4.9103,4.8875,4.8513,4.8049,4.7521,4.6894,4.6319,4.5619,4.459,4.3522,4.2479,4.1633,4.0629,3.9138,3.79,3.652,3.5775,3.5119,3.4839,3.4935,3.5989,3.5972,3.6105,3.6528,3.716,3.759,3.8055,3.8735,3.9477,4.0248,4.1117,4.2283,4.3372,4.4329,4.5132,4.5682,4.5792,4.5823,4.5823,4.5677,4.5641,4.5625,4.579,4.6153,4.6639,4.6687,4.5949,4.5594,4.5163,4.4442,4.3918,4.3566,4.3409,4.325,4.309,4.2911,4.2565,4.2119,4.1233,4.0373,3.9276,3.7911,3.7528,3.7201,3.6811,3.6445,3.5978,3.5467,3.5249,3.5044,3.4839,3.4688,3.4489,3.4436,3.4541,3.4598,3.4588,3.4656,3.4924,3.51,3.5208,3.529,3.5263,3.5507,3.5629,3.571,3.5872,3.6224]}]]